[[{"header":{"parameterUnit":"m.s-1","parameterCategory":1,"la1":31.0,"la2":29.5877,"lo1":-88.7671,"lo2":-86.6584,"dx":0.0162,"dy":0.0185,"nx":115,"ny":88,"refTime":"2023-01-05T06:00:00:Z","depth":0,"parameterNumber":2,"parameterNumberName":"U-component_of_WINDS"},"data":[0.0,0.0,0.0,0.0,0.0,0.0,0.0,0.0,0.0,0.0,0.0,0.0,0.0,0.0,0.0,0.0,0.0,0.0,0.0,0.0,0.0,0.0,0.0,0.0,0.0,0.0,0.0,0.0,0.0,0.0,0.0,0.0,0.0,0.0,0.0,0.0,0.0,0.0,0.0,0.0,0.0,0.0,0.0,0.0,0.0,0.0,0.0,0.0,0.0,0.0,0.0,0.0,0.0,0.0,0.0,0.0,0.0,0.0,0.0,0.0,0.0,0.0,0.0,0.0,0.0,0.0,0.0,0.0,0.0,0.0,0.0,0.0,0.0,0.0,0.0,0.0,0.0,0.0,0.0,0.0,0.0,0.0,0.0,0.0,0.0,0.0,0.0,0.0,0.0,0.0,0.0,0.0,0.0,0.0,0.0,0.0,0.0,0.0,0.0,0.0,0.0,0.0,0.0,0.0,0.0,0.0,0.0,0.0,0.0,0.0,0.0,0.0,0.0,0.0,0.0,0.0,0.0,0.0,0.0,0.0,0.0,0.0,0.0,0.0,0.0,0.0,0.0,0.0,0.0,0.0,0.0,0.0,0.0,0.0,0.0,0.0,0.0,0.0,0.0,0.0,0.0,0.0,0.0,0.0,0.0,0.0,0.0,0.0,0.0,0.0,0.0,0.0,0.0,0.0,0.0,0.0,0.0,0.0,0.0,0.0,0.0,0.0,0.0,0.0,0.0,0.0,0.0,0.0,0.0,0.0,0.0,0.0,0.0,0.0,0.0,0.0,0.0,0.0,0.0,0.0,0.0,0.0,0.0,0.0,0.0,0.0,0.0,0.0,0.0,0.0,0.0,0.0,0.0,0.0,0.0,0.0,0.0,0.0,0.0,0.0,0.0,0.0,0.0,0.0,0.0,0.0,0.0,0.0,0.0,0.0,0.0,0.0,0.0,0.0,0.0,0.0,0.0,0.0,0.0,0.0,0.0,0.0,0.0,0.0,0.0,0.0,0.0,0.0,0.0,0.0,0.0,0.0,0.0,0.0,0.0,0.0,0.0,0.0,0.0,0.0,0.0,0.0,0.0,0.0,0.0,0.0,0.0,0.0,0.0,0.0,0.0,0.0,0.0,0.0,0.0,0.0,0.0,0.0,0.0,0.0,0.0,0.0,0.0,0.0,0.0,0.0,0.0,0.0,0.0,0.0,0.0,0.0,0.0,0.0,0.0,0.0,0.0,0.0,0.0,0.0,0.0,0.0,0.0,0.0,0.0,0.0,0.0,0.0,0.0,0.0,0.0,0.0,0.0,0.0,0.0,0.0,0.0,0.0,0.0,0.0,0.0,0.0,0.0,0.0,0.0,0.0,0.0,0.0,0.0,0.0,0.0,0.0,0.0,0.0,0.0,0.0,0.0,0.0,0.0,0.0,0.0,0.0,0.0,0.0,0.0,0.0,0.0,0.0,0.0,0.0,0.0,0.0,0.0,0.0,0.0,0.0,0.0,0.0,0.0,0.0,0.0,0.0,0.0,0.0,0.0,0.0,0.0,0.0,0.0,0.0,0.0,0.0,0.0,0.0,0.0,0.0,0.0,0.0,0.0,0.0,0.0,0.0,0.0,0.0,0.0,0.0,0.0,0.0,0.0,0.0,0.0,0.0,0.0,0.0,0.0,0.0,0.0,0.0,0.0,0.0,0.0,0.0,0.0,0.0,0.0,0.0,0.0,0.0,0.0,0.0,0.0,0.0,0.0,0.0,0.0,0.0,0.0,0.0,0.0,0.0,0.0,0.0,0.0,0.0,0.0,0.0,0.0,0.0,0.0,0.0,0.0,0.0,0.0,0.0,0.0,0.0,0.0,0.0,0.0,0.0,0.0,0.0,0.0,0.0,0.0,0.0,0.0,0.0,0.0,0.0,0.0,0.0,0.0,0.0,0.0,0.0,0.0,0.0,0.0,0.0,0.0,0.0,0.0,0.0,0.0,0.0,0.0,0.0,0.0,0.0,0.0,0.0,0.0,0.0,0.0,0.0,0.0,0.0,0.0,0.0,0.0,0.0,0.0,0.0,0.0,0.0,0.0,0.0,0.0,0.0,0.0,0.0,0.0,0.0,0.0,0.0,0.0,0.0,0.0,0.0,0.0,0.0,0.0,0.0,0.0,0.0,0.0,0.0,0.0,0.0,0.0,0.0,0.0,0.0,0.0,0.0,0.0,0.0,0.0,0.0,0.0,0.0,0.0,0.0,0.0,0.0,0.0,0.0,0.0,0.0,0.0,0.0,0.0,0.0,0.0,0.0,0.0,0.0,0.0,0.0,0.0,0.0,0.0,0.0,0.0,0.0,0.0,0.0,0.0,0.0,0.0,0.0,0.0,0.0,0.0,0.0,0.0,0.0,0.0,0.0,0.0,0.0,0.0,0.0,0.0,0.0,0.0,0.0,0.0,0.0,0.0,0.0,0.0,0.0,0.0,0.0,0.0,0.0,0.0,0.0,0.0,0.0,0.0,0.0,0.0,0.0,0.0,0.0,0.0,0.0,0.0,0.0,0.0,0.0,0.0,0.0,0.0,0.0,0.0,0.0,0.0,0.0,0.0,0.0,0.0,0.0,0.0,0.0,0.0,0.0,0.0,0.0,0.0,0.0,0.0,0.0,0.0,0.0,0.0,0.0,0.0,0.0,0.0,0.0,0.0,0.0,0.0,0.0,0.0,0.0,0.0,0.0,0.0,0.0,0.0,0.0,0.0,0.0,0.0,0.0,0.0,0.0,0.0,0.0,0.0,0.0,0.0,0.0,0.0,0.0,0.0,0.0,0.0,0.0,0.0,0.0,0.0,0.0,0.0,0.0,0.0,0.0,0.0,0.0,0.0,0.0,0.0,0.0,0.0,0.0,0.0,0.0,0.0,0.0,0.0,0.0,0.0,0.0,0.0,0.0,0.0,0.0,0.0,0.0,0.0,0.0,0.0,0.0,0.0,0.0,0.0,0.0,0.0,0.0,0.0,0.0,0.0,0.0,0.0,0.0,0.0,0.0,0.0,0.0,0.0,0.0,0.0,0.0,0.0,0.0,0.0,0.0,0.0,0.0,0.0,0.0,0.0,0.0,0.0,0.0,0.0,0.0,0.0,0.0,0.0,0.0,0.0,0.0,0.0,0.0,0.0,0.0,0.0,0.0,0.0,0.0,0.0,0.0,0.0,0.0,0.0,0.0,0.0,0.0,0.0,0.0,0.0,0.0,0.0,0.0,0.0,0.0,0.0,0.0,0.0,0.0,0.0,0.0,0.0,0.0,0.0,0.0,0.0,0.0,0.0,0.0,0.0,0.0,0.0,0.0,0.0,0.0,0.0,0.0,0.0,0.0,0.0,0.0,0.0,0.0,0.0,0.0,0.0,0.0,0.0,0.0,0.0,0.0,0.0,0.0,0.0,0.0,0.0,0.0,0.0,0.0,0.0,0.0,0.0,0.0,0.0,0.0,0.0,0.0,0.0,0.0,0.0,0.0,0.0,0.0,0.0,0.0,0.0,0.0,0.0,0.0,0.0,0.0,0.0,0.0,0.0,0.0,0.0,0.0,0.0,0.0,0.0,0.0,0.0,0.0,0.0,0.0,0.0,0.0,0.0,0.0,0.0,0.0,0.0,0.0,0.0,0.0,0.0,0.0,0.0,0.0,0.0,0.0,0.0,0.0,0.0,0.0,0.0,0.0,0.0,0.0,0.0,0.0,0.0,0.0,0.0,0.0,0.0,0.0,0.0,0.0,0.0,0.0,0.0,0.0,0.0,0.0,0.0,0.0,0.0,0.0,0.0,0.0,0.0,0.0,0.0,0.0,0.0,0.0,0.0,0.0,0.0,0.0,0.0,0.0,0.0,0.0,0.0,0.0,0.0,0.0,0.0,0.0,0.0,0.0,0.0,0.0,0.0,0.0,0.0,0.0,0.0,0.0,0.0,0.0,0.0,0.0,0.0,0.0,0.0,0.0,0.0,0.0,0.0,0.0,0.0,0.0,0.0,0.0,0.0,0.0,0.0,0.0,0.0,0.0,0.0,0.0,0.0,0.0,0.0,0.0,0.0,0.0,0.0,0.0,0.0,0.0,0.0,0.0,0.0,0.0,0.0,0.0,0.0,0.0,0.0,0.0,0.0,0.0,0.0,0.0,0.0,0.0,0.0,0.0,0.0,0.0,0.0,0.0,0.0,0.0,0.0,0.0,0.0,0.0,0.0,0.0,0.0,0.0,0.0,0.0,0.0,0.0,0.0,0.0,0.0,0.0,-1.3183,0.0,0.0,0.0,-1.2307,0.0,0.0,0.0,0.0,0.0,0.0,0.0,0.0,0.0,0.0,0.0,0.0,0.0,0.0,0.0,0.0,0.0,0.0,0.0,0.0,0.0,0.0,0.0,0.0,0.0,0.0,0.0,0.0,0.0,0.0,0.0,0.0,0.0,0.0,0.0,0.0,0.0,0.0,0.0,0.0,0.0,0.0,0.0,0.0,0.0,0.0,0.0,0.0,0.0,0.0,0.0,0.0,0.0,0.0,0.0,0.0,0.0,0.0,0.0,0.0,0.0,0.0,0.0,0.0,0.0,0.0,0.0,0.0,0.0,0.0,0.0,0.0,0.0,0.0,0.0,0.0,0.0,0.0,0.0,0.0,0.0,0.0,0.0,0.0,0.0,0.0,0.0,0.0,0.0,0.0,0.0,0.0,0.0,0.0,0.0,0.0,0.0,0.0,0.0,0.0,0.0,0.0,0.0,0.0,0.0,0.0,0.0,0.0,0.0,0.0,-1.3086,-1.2995,-1.2745,-1.2493,-1.2256,0.0,0.0,0.0,0.0,0.0,0.0,0.0,0.0,0.0,0.0,0.0,0.0,0.0,0.0,0.0,0.0,0.0,0.0,0.0,0.0,0.0,0.0,0.0,0.0,0.0,0.0,0.0,0.0,0.0,0.0,0.0,0.0,0.0,0.0,0.0,0.0,0.0,0.0,0.0,0.0,0.0,0.0,0.0,0.0,0.0,0.0,0.0,0.0,0.0,0.0,0.0,0.0,0.0,0.0,0.0,0.0,0.0,0.0,0.0,0.0,0.0,0.0,0.0,0.0,0.0,0.0,0.0,0.0,0.0,0.0,0.0,0.0,0.0,0.0,0.0,0.0,0.0,0.0,0.0,0.0,0.0,0.0,0.0,0.0,0.0,0.0,0.0,0.0,0.0,0.0,0.0,0.0,0.0,0.0,0.0,0.0,0.0,0.0,0.0,0.0,0.0,0.0,0.0,0.0,0.0,0.0,0.0,0.0,0.0,0.0,0.0,0.0,-1.2684,-1.2449,-1.2164,0.0,0.0,0.0,0.0,0.0,0.0,0.0,0.0,0.0,0.0,0.0,0.0,0.0,0.0,0.0,0.0,0.0,0.0,0.0,0.0,0.0,0.0,0.0,0.0,0.0,0.0,0.0,0.0,0.0,0.0,0.0,0.0,0.0,0.0,0.0,0.0,0.0,0.0,0.0,0.0,0.0,0.0,0.0,0.0,0.0,0.0,0.0,0.0,0.0,0.0,0.0,0.0,0.0,0.0,0.0,0.0,0.0,0.0,0.0,0.0,0.0,0.0,0.0,0.0,0.0,0.0,0.0,0.0,0.0,0.0,0.0,0.0,0.0,0.0,0.0,0.0,0.0,0.0,0.0,0.0,0.0,0.0,0.0,0.0,0.0,0.0,0.0,0.0,0.0,0.0,0.0,0.0,0.0,0.0,0.0,0.0,0.0,0.0,0.0,0.0,0.0,0.0,0.0,0.0,0.0,0.0,0.0,0.0,0.0,0.0,-1.295,-1.2794,-1.2616,0.0,-1.2033,0.0,0.0,0.0,0.0,0.0,0.0,0.0,0.0,0.0,0.0,0.0,0.0,0.0,0.0,0.0,0.0,0.0,0.0,0.0,0.0,0.0,0.0,0.0,0.0,0.0,0.0,0.0,0.0,0.0,0.0,0.0,0.0,0.0,0.0,0.0,0.0,0.0,0.0,0.0,0.0,0.0,0.0,0.0,0.0,0.0,0.0,0.0,0.0,0.0,0.0,0.0,0.0,0.0,0.0,0.0,0.0,0.0,0.0,0.0,0.0,0.0,0.0,0.0,0.0,0.0,0.0,0.0,0.0,0.0,0.0,0.0,0.0,0.0,0.0,0.0,0.0,0.0,0.0,0.0,0.0,0.0,0.0,0.0,0.0,0.0,0.0,0.0,0.0,0.0,0.0,0.0,0.0,0.0,0.0,0.0,0.0,0.0,0.0,0.0,0.0,0.0,0.0,0.0,0.0,0.0,0.0,0.0,0.0,0.0,0.0,-1.2709,-1.2571,-1.2323,-1.2117,0.0,0.0,0.0,0.0,0.0,0.0,0.0,0.0,0.0,0.0,0.0,0.0,0.0,0.0,0.0,0.0,0.0,0.0,0.0,0.0,0.0,0.0,0.0,0.0,0.0,0.0,0.0,0.0,0.0,0.0,0.0,0.0,0.0,0.0,0.0,0.0,0.0,0.0,0.0,0.0,0.0,0.0,0.0,0.0,0.0,0.0,0.0,0.0,0.0,0.0,0.0,0.0,0.0,0.0,0.0,0.0,0.0,0.0,0.0,0.0,0.0,0.0,0.0,0.0,0.0,0.0,0.0,0.0,0.0,0.0,0.0,0.0,0.0,0.0,0.0,0.0,0.0,0.0,0.0,0.0,0.0,0.0,0.0,0.0,0.0,0.0,0.0,0.0,0.0,0.0,0.0,0.0,0.0,0.0,0.0,0.0,0.0,0.0,0.0,0.0,0.0,0.0,0.0,0.0,0.0,0.0,0.0,0.0,0.0,0.0,-1.27,-1.2497,-1.2313,-1.2096,-1.1959,-1.1902,0.0,0.0,0.0,0.0,0.0,0.0,0.0,0.0,0.0,0.0,0.0,0.0,0.0,0.0,0.0,0.0,0.0,0.0,0.0,0.0,0.0,0.0,0.0,0.0,0.0,0.0,0.0,0.0,0.0,0.0,0.0,0.0,0.0,0.0,0.0,0.0,0.0,0.0,0.0,0.0,0.0,0.0,0.0,0.0,0.0,0.0,0.0,0.0,0.0,0.0,0.0,0.0,0.0,0.0,0.0,0.0,0.0,0.0,0.0,0.0,0.0,0.0,0.0,0.0,0.0,0.0,0.0,0.0,0.0,0.0,0.0,0.0,0.0,0.0,0.0,0.0,0.0,0.0,0.0,0.0,0.0,0.0,0.0,0.0,0.0,0.0,0.0,0.0,0.0,0.0,0.0,0.0,0.0,0.0,0.0,0.0,0.0,0.0,0.0,0.0,0.0,0.0,0.0,0.0,0.0,0.0,0.0,0.0,-1.2892,-1.2636,-1.2379,-1.2122,-1.197,-1.1902,0.0,0.0,0.0,0.0,0.0,0.0,0.0,0.0,0.0,0.0,0.0,0.0,0.0,0.0,0.0,0.0,0.0,0.0,0.0,0.0,0.0,0.0,0.0,0.0,0.0,0.0,0.0,0.0,0.0,0.0,0.0,0.0,0.0,0.0,0.0,0.0,0.0,0.0,0.0,0.0,0.0,0.0,0.0,0.0,0.0,0.0,0.0,0.0,0.0,0.0,0.0,0.0,0.0,0.0,0.0,0.0,0.0,0.0,0.0,0.0,0.0,0.0,0.0,0.0,0.0,0.0,0.0,0.0,0.0,0.0,0.0,0.0,0.0,0.0,0.0,0.0,0.0,0.0,0.0,0.0,0.0,0.0,0.0,0.0,0.0,0.0,0.0,0.0,0.0,0.0,0.0,0.0,0.0,0.0,0.0,0.0,0.0,0.0,0.0,0.0,0.0,0.0,0.0,0.0,0.0,0.0,0.0,0.0,0.0,-1.2646,-1.2302,-1.2054,-1.1927,-1.1859,-1.1837,0.0,0.0,0.0,0.0,0.0,0.0,0.0,0.0,0.0,0.0,0.0,0.0,0.0,0.0,0.0,0.0,0.0,0.0,0.0,0.0,0.0,0.0,0.0,0.0,0.0,0.0,0.0,0.0,0.0,0.0,0.0,0.0,0.0,0.0,0.0,0.0,0.0,0.0,0.0,0.0,0.0,0.0,0.0,0.0,0.0,0.0,0.0,0.0,0.0,0.0,0.0,0.0,0.0,0.0,0.0,0.0,0.0,0.0,0.0,0.0,0.0,0.0,0.0,0.0,0.0,0.0,0.0,0.0,0.0,0.0,0.0,0.0,0.0,0.0,0.0,0.0,0.0,0.0,0.0,0.0,0.0,0.0,0.0,0.0,0.0,0.0,0.0,0.0,0.0,0.0,0.0,0.0,0.0,0.0,0.0,0.0,0.0,0.0,0.0,0.0,0.0,0.0,0.0,0.0,0.0,0.0,0.0,0.0,0.0,-1.2384,-1.2075,-1.1869,-1.1816,-1.1816,-1.1816,0.0,0.0,0.0,0.0,0.0,0.0,0.0,0.0,0.0,0.0,0.0,0.0,0.0,0.0,0.0,0.0,0.0,0.0,0.0,0.0,0.0,0.0,0.0,0.0,0.0,0.0,0.0,0.0,0.0,0.0,0.0,0.0,0.0,0.0,0.0,0.0,0.0,0.0,0.0,0.0,0.0,0.0,0.0,0.0,0.0,0.0,0.0,0.0,0.0,0.0,0.0,0.0,0.0,0.0,0.0,0.0,0.0,0.0,0.0,0.0,0.0,0.0,0.0,0.0,0.0,0.0,0.0,0.0,0.0,0.0,0.0,0.0,0.0,0.0,0.0,0.0,0.0,0.0,0.0,0.0,0.0,0.0,0.0,0.0,0.0,0.0,0.0,0.0,0.0,0.0,0.0,0.0,0.0,0.0,0.0,0.0,0.0,0.0,0.0,0.0,0.0,0.0,0.0,0.0,0.0,0.0,0.0,0.0,-1.2528,-1.2137,-1.1985,-1.1915,-1.1831,-1.1835,-1.1831,0.0,0.0,0.0,0.0,0.0,0.0,0.0,0.0,0.0,0.0,0.0,0.0,0.0,0.0,0.0,0.0,0.0,0.0,0.0,0.0,0.0,0.0,0.0,0.0,0.0,0.0,0.0,0.0,0.0,0.0,0.0,0.0,0.0,0.0,0.0,0.0,0.0,0.0,0.0,0.0,0.0,0.0,0.0,0.0,0.0,0.0,0.0,0.0,0.0,0.0,0.0,0.0,0.0,0.0,0.0,0.0,0.0,0.0,0.0,0.0,0.0,0.0,0.0,0.0,0.0,0.0,0.0,0.0,0.0,0.0,0.0,0.0,0.0,0.0,0.0,0.0,0.0,0.0,0.0,0.0,0.0,0.0,0.0,0.0,0.0,0.0,0.0,0.0,0.0,0.0,0.0,0.0,0.0,0.0,0.0,0.0,0.0,0.0,0.0,0.0,0.0,0.0,0.0,0.0,0.0,0.0,0.0,0.0,0.0,-1.2663,-1.2558,-1.2512,-1.249,-1.249,-1.2265,0.0,0.0,0.0,0.0,0.0,0.0,0.0,0.0,0.0,0.0,0.0,0.0,0.0,0.0,0.0,0.0,0.0,0.0,0.0,0.0,0.0,0.0,0.0,0.0,0.0,0.0,0.0,0.0,0.0,0.0,0.0,0.0,0.0,0.0,0.0,0.0,0.0,0.0,0.0,0.0,0.0,0.0,0.0,0.0,0.0,0.0,0.0,0.0,0.0,0.0,0.0,0.0,0.0,0.0,0.0,0.0,0.0,0.0,0.0,0.0,0.0,0.0,0.0,0.0,0.0,0.0,0.0,0.0,0.0,0.0,0.0,0.0,0.0,0.0,0.0,0.0,0.0,0.0,0.0,0.0,0.0,0.0,0.0,0.0,0.0,0.0,0.0,0.0,0.0,0.0,0.0,0.0,0.0,0.0,0.0,0.0,0.0,0.0,0.0,0.0,0.0,0.0,0.0,0.0,0.0,0.0,0.0,0.0,0.0,-1.3958,-1.3698,-1.355,-1.3553,-1.3301,-1.2852,-1.2194,0.0,0.0,0.0,0.0,0.0,0.0,0.0,0.0,0.0,0.0,0.0,0.0,0.0,0.0,0.0,0.0,0.0,0.0,0.0,0.0,0.0,0.0,0.0,0.0,0.0,0.0,0.0,0.0,0.0,0.0,0.0,0.0,0.0,0.0,0.0,0.0,0.0,0.0,0.0,0.0,0.0,0.0,0.0,0.0,0.0,0.0,0.0,0.0,0.0,0.0,0.0,0.0,0.0,0.0,0.0,0.0,0.0,0.0,0.0,0.0,0.0,0.0,0.0,0.0,0.0,0.0,0.0,0.0,0.0,0.0,0.0,0.0,0.0,0.0,0.0,0.0,0.0,0.0,0.0,0.0,0.0,0.0,0.0,0.0,0.0,0.0,0.0,0.0,0.0,0.0,0.0,0.0,0.0,0.0,0.0,0.0,0.0,0.0,0.0,0.0,0.0,0.0,0.0,0.0,0.0,0.0,0.0,0.0,-1.5829,-1.5305,-1.499,-1.4902,-1.426,-1.3558,0.0,0.0,0.0,0.0,0.0,0.0,0.0,0.0,0.0,0.0,0.0,0.0,0.0,0.0,0.0,0.0,0.0,0.0,0.0,0.0,0.0,0.0,0.0,0.0,0.0,0.0,0.0,0.0,0.0,0.0,0.0,0.0,0.0,0.0,0.0,0.0,0.0,0.0,0.0,0.0,0.0,0.0,0.0,0.0,0.0,0.0,0.0,0.0,0.0,0.0,0.0,0.0,0.0,0.0,0.0,0.0,0.0,0.0,0.0,0.0,0.0,0.0,0.0,0.0,0.0,0.0,0.0,0.0,0.0,0.0,0.0,0.0,0.0,0.0,0.0,0.0,0.0,0.0,0.0,0.0,0.0,0.0,0.0,0.0,0.0,0.0,0.0,0.0,0.0,0.0,0.0,0.0,0.0,0.0,0.0,0.0,0.0,0.0,0.0,0.0,0.0,0.0,0.0,0.0,0.0,0.0,0.0,0.0,0.0,-1.6428,-1.725,-1.7221,-1.6234,-1.5504,-1.4599,0.0,0.0,0.0,0.0,0.0,0.0,0.0,0.0,0.0,0.0,0.0,0.0,0.0,0.0,0.0,0.0,0.0,0.0,0.0,0.0,0.0,0.0,0.0,0.0,0.0,0.0,0.0,0.0,0.0,0.0,0.0,0.0,0.0,0.0,0.0,0.0,0.0,0.0,0.0,0.0,0.0,0.0,0.0,0.0,0.0,0.0,0.0,0.0,0.0,0.0,0.0,0.0,0.0,0.0,0.0,0.0,0.0,0.0,0.0,0.0,0.0,0.0,0.0,0.0,0.0,0.0,0.0,0.0,0.0,0.0,0.0,0.0,0.0,0.0,0.0,0.0,0.0,0.0,0.0,0.0,0.0,0.0,0.0,0.0,0.0,0.0,0.0,0.0,0.0,0.0,0.0,0.0,0.0,0.0,0.0,0.0,0.0,0.0,0.0,0.0,0.0,0.0,0.0,0.0,0.0,0.0,0.0,0.0,-1.6099,-1.7115,-1.8431,-1.8644,-1.7638,-1.6554,-1.5373,0.0,0.0,0.0,0.0,0.0,0.0,0.0,0.0,0.0,0.0,0.0,0.0,0.0,0.0,0.0,0.0,0.0,0.0,0.0,0.0,0.0,0.0,0.0,0.0,0.0,0.0,0.0,0.0,0.0,0.0,0.0,0.0,0.0,0.0,0.0,0.0,0.0,0.0,0.0,0.0,0.0,0.0,0.0,0.0,0.0,0.0,0.0,0.0,0.0,0.0,0.0,0.0,0.0,0.0,0.0,0.0,0.0,0.0,0.0,0.0,0.0,0.0,0.0,0.0,0.0,0.0,0.0,0.0,0.0,0.0,0.0,0.0,0.0,0.0,0.0,0.0,0.0,0.0,0.0,0.0,0.0,0.0,0.0,0.0,0.0,0.0,0.0,0.0,0.0,0.0,0.0,0.0,0.0,0.0,0.0,0.0,0.0,0.0,0.0,0.0,0.0,0.0,0.0,0.0,0.0,0.0,0.0,0.0,-1.716,-1.7923,-1.9143,-1.956,-1.9056,-1.7447,-1.5918,0.0,0.0,0.0,0.0,0.0,0.0,0.0,0.0,0.0,0.0,0.0,0.0,0.0,0.0,0.0,0.0,0.0,0.0,0.0,0.0,0.0,0.0,0.0,0.0,0.0,0.0,0.0,0.0,0.0,0.0,0.0,0.0,0.0,0.0,0.0,0.0,0.0,0.0,0.0,0.0,0.0,0.0,0.0,0.0,0.0,0.0,0.0,0.0,0.0,0.0,0.0,0.0,0.0,0.0,0.0,0.0,0.0,0.0,0.0,0.0,0.0,0.0,0.0,0.0,0.0,0.0,0.0,0.0,0.0,0.0,0.0,0.0,0.0,0.0,0.0,0.0,0.0,0.0,0.0,0.0,0.0,0.0,0.0,0.0,0.0,0.0,0.0,0.0,0.0,0.0,0.0,0.0,0.0,0.0,0.0,0.0,0.0,0.0,0.0,0.0,0.0,0.0,0.0,0.0,0.0,0.0,0.0,0.0,-1.8072,-1.9238,-2.006,-2.0437,-2.0321,-1.8147,-1.6196,0.0,0.0,0.0,0.0,0.0,0.0,0.0,0.0,0.0,0.0,0.0,0.0,0.0,0.0,0.0,0.0,0.0,0.0,0.0,0.0,0.0,0.0,0.0,0.0,0.0,0.0,0.0,0.0,0.0,0.0,0.0,0.0,0.0,0.0,0.0,0.0,0.0,0.0,0.0,0.0,0.0,0.0,0.0,0.0,0.0,0.0,0.0,0.0,-0.791,0.0,0.0,0.0,0.0,0.0,0.0,0.0,0.0,0.0,0.0,0.0,0.0,0.0,0.0,0.0,0.0,0.0,0.0,0.0,0.0,0.0,0.0,0.0,0.0,0.0,0.0,0.0,0.0,0.0,0.0,0.0,0.0,0.0,0.0,0.0,0.0,0.0,0.0,0.0,0.0,0.0,0.0,0.0,0.0,0.0,0.0,0.0,0.0,0.0,0.0,0.0,0.0,0.0,0.0,0.0,0.0,0.0,0.0,0.0,-1.8672,-1.9675,-2.0351,-2.0577,-2.026,-1.8369,-1.6618,0.0,0.0,0.0,0.0,0.0,0.0,0.0,0.0,0.0,0.0,0.0,0.0,0.0,0.0,0.0,0.0,0.0,0.0,0.0,0.0,0.0,0.0,0.0,0.0,0.0,0.0,0.0,0.0,0.0,0.0,0.0,0.0,0.0,0.0,0.0,0.0,0.0,0.0,0.0,0.0,0.0,0.0,0.0,0.0,0.0,0.0,0.0,0.0,0.0,0.0,0.0,0.0,0.0,0.0,0.0,0.0,0.0,0.0,0.0,0.0,0.0,0.0,0.0,0.0,0.0,0.0,0.0,0.0,0.0,0.0,0.0,0.0,0.0,0.0,0.0,0.0,0.0,0.0,0.0,0.0,0.0,0.0,0.0,0.0,0.0,0.0,0.0,0.0,0.0,0.0,0.0,0.0,0.0,0.0,0.0,0.0,0.0,0.0,0.0,0.0,0.0,0.0,0.0,0.0,0.0,0.0,0.0,-1.758,-1.9226,-1.9986,-2.0642,-2.0734,-2.0186,-1.8625,-1.7216,-1.5994,0.0,0.0,0.0,0.0,0.0,0.0,0.0,0.0,0.0,0.0,0.0,0.0,0.0,0.0,0.0,0.0,0.0,0.0,0.0,0.0,0.0,0.0,0.0,0.0,0.0,0.0,0.0,0.0,0.0,0.0,0.0,0.0,0.0,0.0,0.0,0.0,0.0,0.0,-0.701,-0.8234,0.0,0.0,0.0,0.0,0.0,0.0,0.0,0.0,-0.968,0.0,0.0,0.0,0.0,0.0,0.0,0.0,0.0,0.0,0.0,0.0,0.0,0.0,0.0,0.0,0.0,0.0,0.0,0.0,0.0,0.0,0.0,0.0,0.0,0.0,0.0,0.0,0.0,0.0,0.0,0.0,0.0,0.0,0.0,0.0,0.0,0.0,0.0,0.0,0.0,0.0,0.0,0.0,0.0,0.0,0.0,0.0,0.0,0.0,0.0,0.0,0.0,0.0,0.0,0.0,0.0,-1.6368,-1.8463,-2.0124,-2.135,-2.2024,-2.207,-2.1388,-1.985,-1.8184,-1.6417,0.0,0.0,0.0,0.0,0.0,0.0,0.0,0.0,0.0,0.0,0.0,0.0,0.0,0.0,0.0,0.0,0.0,0.0,0.0,0.0,0.0,0.0,0.0,0.0,0.0,0.0,0.0,0.0,0.0,0.0,0.0,0.0,0.0,0.0,0.0,0.0,0.0,0.0,0.0,-0.915,-0.968,0.0,0.0,0.0,0.0,0.0,0.0,0.0,0.0,-1.0317,0.0,0.0,0.0,0.0,0.0,0.0,0.0,0.0,0.0,0.0,0.0,0.0,0.0,0.0,0.0,0.0,0.0,0.0,0.0,0.0,0.0,0.0,0.0,0.0,0.0,0.0,0.0,0.0,0.0,0.0,0.0,0.0,0.0,0.0,0.0,0.0,0.0,0.0,0.0,0.0,0.0,0.0,0.0,0.0,0.0,0.0,0.0,0.0,0.0,0.0,0.0,0.0,0.0,0.0,0.0,-1.7265,-1.954,-2.1365,-2.2616,-2.2681,-2.2715,-2.2692,-2.0585,-1.868,0.0,0.0,0.0,0.0,0.0,0.0,0.0,0.0,0.0,0.0,0.0,0.0,0.0,0.0,0.0,0.0,0.0,0.0,0.0,0.0,0.0,0.0,0.0,0.0,0.0,0.0,0.0,0.0,0.0,0.0,0.0,0.0,0.0,0.0,0.0,0.0,0.0,0.0,0.0,0.0,-0.9879,-1.0676,-1.2168,0.0,0.0,0.0,0.0,0.0,0.0,-1.1952,-1.1435,0.0,0.0,0.0,0.0,0.0,0.0,0.0,0.0,0.0,0.0,0.0,0.0,0.0,0.0,0.0,0.0,0.0,0.0,0.0,0.0,0.0,0.0,0.0,0.0,0.0,0.0,0.0,0.0,0.0,0.0,0.0,0.0,0.0,0.0,0.0,0.0,0.0,0.0,0.0,0.0,0.0,0.0,0.0,0.0,0.0,0.0,0.0,0.0,0.0,0.0,0.0,0.0,0.0,0.0,0.0,-1.7938,-2.0408,-2.2308,-2.3498,-2.312,-2.3157,-2.362,-2.1145,-1.9078,0.0,0.0,0.0,0.0,0.0,0.0,0.0,0.0,0.0,0.0,0.0,0.0,0.0,0.0,0.0,0.0,0.0,0.0,0.0,0.0,0.0,0.0,0.0,0.0,0.0,0.0,0.0,0.0,0.0,0.0,0.0,0.0,0.0,0.0,0.0,0.0,0.0,0.0,0.0,0.0,0.0,-1.1806,-1.3478,-1.3781,0.0,0.0,0.0,0.0,-1.3856,-1.3313,0.0,0.0,0.0,0.0,0.0,0.0,0.0,0.0,0.0,0.0,0.0,0.0,0.0,0.0,0.0,0.0,0.0,0.0,0.0,0.0,0.0,0.0,0.0,0.0,0.0,0.0,0.0,0.0,0.0,0.0,0.0,0.0,0.0,0.0,0.0,0.0,0.0,0.0,0.0,0.0,0.0,0.0,0.0,0.0,0.0,0.0,0.0,0.0,0.0,0.0,0.0,0.0,0.0,0.0,0.0,0.0,-1.8583,-2.0647,-2.2323,-2.352,-2.3545,-2.3577,-2.3672,-2.1721,-1.9698,0.0,0.0,0.0,0.0,0.0,0.0,0.0,0.0,0.0,0.0,0.0,0.0,0.0,0.0,0.0,0.0,0.0,0.0,0.0,0.0,0.0,0.0,0.0,0.0,0.0,0.0,0.0,0.0,0.0,0.0,0.0,0.0,0.0,0.0,0.0,0.0,0.0,0.0,0.0,0.0,0.0,-1.2841,-1.4591,-1.4734,-1.4681,0.0,0.0,-1.5177,-1.5177,-1.4898,0.0,0.0,0.0,0.0,0.0,0.0,0.0,0.0,0.0,0.0,0.0,0.0,0.0,0.0,0.0,0.0,0.0,0.0,0.0,0.0,0.0,0.0,0.0,0.0,0.0,0.0,0.0,0.0,0.0,0.0,0.0,0.0,0.0,0.0,0.0,0.0,0.0,0.0,0.0,0.0,0.0,0.0,0.0,0.0,0.0,0.0,0.0,0.0,0.0,0.0,0.0,0.0,0.0,0.0,0.0,-1.7849,-1.9806,-2.1769,-2.3595,-2.5196,-2.4545,-2.4357,-2.4764,-2.2622,-2.0447,0.0,0.0,0.0,0.0,0.0,0.0,0.0,0.0,0.0,0.0,0.0,0.0,0.0,0.0,0.0,0.0,0.0,0.0,0.0,0.0,0.0,0.0,0.0,0.0,0.0,0.0,0.0,0.0,0.0,0.0,0.0,0.0,0.0,0.0,0.0,0.0,0.0,0.0,0.0,0.0,0.0,0.0,-1.5001,-1.5398,0.0,0.0,0.0,-1.5751,-1.5642,0.0,0.0,0.0,0.0,0.0,0.0,0.0,0.0,0.0,0.0,0.0,0.0,0.0,0.0,0.0,0.0,0.0,0.0,0.0,0.0,0.0,0.0,0.0,0.0,0.0,0.0,0.0,0.0,0.0,0.0,0.0,0.0,0.0,0.0,0.0,0.0,0.0,0.0,0.0,0.0,0.0,0.0,0.0,0.0,0.0,0.0,0.0,0.0,0.0,0.0,0.0,0.0,0.0,0.0,0.0,0.0,0.0,-2.0673,-2.2607,-2.4567,-2.6467,-2.5277,-2.4903,-2.5531,-2.3584,0.0,0.0,0.0,0.0,0.0,0.0,0.0,0.0,0.0,0.0,0.0,0.0,0.0,0.0,0.0,0.0,0.0,0.0,0.0,0.0,0.0,0.0,0.0,0.0,0.0,0.0,0.0,-0.8708,0.0,0.0,0.0,0.0,0.0,0.0,0.0,0.0,0.0,0.0,0.0,0.0,0.0,0.0,-1.4459,-1.5576,-1.6401,-1.6867,0.0,0.0,-1.6479,-1.6241,-1.6261,-1.6087,0.0,0.0,0.0,0.0,0.0,0.0,0.0,0.0,0.0,0.0,0.0,0.0,0.0,0.0,0.0,0.0,0.0,0.0,0.0,0.0,0.0,0.0,0.0,0.0,0.0,0.0,0.0,0.0,0.0,0.0,0.0,0.0,0.0,0.0,0.0,0.0,0.0,0.0,0.0,0.0,0.0,0.0,0.0,0.0,0.0,0.0,0.0,0.0,0.0,0.0,0.0,0.0,0.0,0.0,0.0,-2.0688,-2.2622,-2.4582,-2.6492,-2.5277,-2.4933,-2.5546,-2.4637,-2.2717,0.0,0.0,0.0,0.0,0.0,0.0,0.0,0.0,0.0,0.0,0.0,0.0,0.0,0.0,0.0,0.0,0.0,0.0,0.0,0.0,0.0,0.0,0.0,0.0,0.0,0.0,0.0,0.0,0.0,0.0,0.0,0.0,0.0,0.0,0.0,0.0,0.0,0.0,0.0,0.0,0.0,-1.6687,-1.6635,-1.7988,-1.8585,0.0,0.0,-1.7656,-1.735,-1.7295,-1.7108,-1.6507,0.0,0.0,0.0,0.0,0.0,0.0,0.0,0.0,0.0,0.0,0.0,0.0,0.0,0.0,0.0,0.0,0.0,0.0,0.0,0.0,0.0,0.0,0.0,0.0,0.0,0.0,0.0,0.0,0.0,0.0,0.0,0.0,0.0,0.0,0.0,0.0,0.0,0.0,0.0,0.0,0.0,0.0,0.0,0.0,0.0,0.0,0.0,0.0,0.0,0.0,0.0,0.0,0.0,-1.8894,-2.1291,-2.3229,-2.5196,-2.7091,-2.6303,-2.5764,-2.5615,-2.4773,-2.3091,0.0,0.0,0.0,0.0,0.0,0.0,0.0,0.0,0.0,0.0,0.0,0.0,0.0,0.0,0.0,0.0,0.0,0.0,0.0,0.0,0.0,0.0,0.0,0.0,0.0,0.0,0.0,0.0,-1.1635,-1.1817,-1.1554,0.0,0.0,0.0,0.0,0.0,0.0,0.0,0.0,0.0,0.0,-1.7631,-1.8445,-1.9149,0.0,0.0,-1.905,-1.9018,-1.8691,-1.8868,-1.8805,-1.8103,-1.7372,0.0,0.0,0.0,0.0,0.0,0.0,0.0,0.0,0.0,0.0,0.0,0.0,0.0,0.0,0.0,0.0,0.0,0.0,0.0,0.0,0.0,0.0,0.0,0.0,0.0,0.0,0.0,0.0,0.0,0.0,0.0,0.0,0.0,0.0,0.0,0.0,0.0,0.0,0.0,0.0,0.0,0.0,0.0,0.0,0.0,0.0,0.0,0.0,0.0,0.0,0.0,0.0,-1.9331,-2.1984,-2.3708,-2.5561,-2.7555,-2.6931,-2.6363,-2.5914,-2.5488,-2.4227,0.0,0.0,0.0,0.0,0.0,0.0,0.0,0.0,0.0,0.0,0.0,0.0,0.0,0.0,0.0,0.0,0.0,0.0,0.0,0.0,0.0,0.0,0.0,0.0,0.0,0.0,0.0,0.0,-1.2975,-1.3087,-1.2449,0.0,0.0,0.0,0.0,0.0,0.0,0.0,0.0,0.0,0.0,-1.9074,-1.9954,-2.0488,-2.0673,-2.0375,-2.0395,-2.0257,-1.9656,-1.987,-1.9862,-1.9191,0.0,0.0,0.0,0.0,0.0,0.0,0.0,0.0,0.0,0.0,0.0,0.0,0.0,0.0,0.0,0.0,0.0,0.0,0.0,0.0,0.0,0.0,0.0,0.0,0.0,0.0,0.0,0.0,0.0,0.0,-1.423,0.0,0.0,0.0,0.0,0.0,0.0,0.0,0.0,0.0,0.0,0.0,0.0,0.0,0.0,0.0,0.0,0.0,0.0,0.0,0.0,0.0,0.0,-1.9989,-2.2628,-2.3999,-2.5615,-2.7525,-2.6971,-2.6632,-2.6617,-2.721,-2.645,-2.4141,0.0,0.0,0.0,0.0,0.0,0.0,0.0,0.0,0.0,0.0,0.0,0.0,0.0,0.0,0.0,0.0,0.0,0.0,0.0,0.0,0.0,0.0,0.0,0.0,0.0,0.0,-1.2868,-1.3749,-1.413,0.0,0.0,0.0,0.0,0.0,0.0,0.0,0.0,0.0,0.0,-2.0253,-2.1266,-2.0972,-2.2007,-2.2463,-2.1483,-2.1584,-2.1388,-2.027,-2.0078,-1.9897,0.0,0.0,0.0,0.0,0.0,0.0,0.0,0.0,0.0,0.0,0.0,0.0,0.0,0.0,0.0,0.0,0.0,0.0,0.0,0.0,0.0,0.0,0.0,0.0,0.0,0.0,0.0,-1.7056,-1.6962,0.0,0.0,0.0,0.0,0.0,0.0,0.0,0.0,0.0,0.0,0.0,-2.1177,-2.1681,0.0,0.0,0.0,0.0,0.0,0.0,0.0,0.0,0.0,0.0,0.0,0.0,-2.0471,-2.2703,-2.5255,-2.7126,-2.8218,-2.8483,-2.8393,-2.7934,-2.8158,-2.721,-2.4938,0.0,0.0,0.0,0.0,0.0,0.0,0.0,0.0,0.0,0.0,0.0,0.0,0.0,0.0,0.0,0.0,0.0,0.0,0.0,0.0,0.0,0.0,0.0,0.0,0.0,-1.4672,0.0,0.0,0.0,0.0,0.0,0.0,0.0,0.0,0.0,0.0,0.0,-1.9813,-2.1289,-2.1798,-2.2352,-2.3154,-2.367,-2.4047,0.0,0.0,0.0,0.0,0.0,0.0,0.0,0.0,0.0,0.0,0.0,0.0,0.0,0.0,-1.9611,-1.9326,-1.9531,-1.9586,-1.9161,0.0,0.0,0.0,0.0,0.0,0.0,0.0,0.0,0.0,0.0,0.0,0.0,0.0,0.0,-1.8778,0.0,-1.8742,0.0,0.0,0.0,0.0,0.0,0.0,0.0,0.0,-2.2026,-2.2693,-2.3463,-2.3936,-2.3902,0.0,-2.2348,-2.0907,0.0,0.0,0.0,0.0,0.0,0.0,0.0,0.0,-2.149,-2.3699,-2.6282,-2.8008,-2.8906,-2.9397,-2.9412,-2.8966,-2.8936,-2.8036,-2.6095,-2.4361,-2.2113,0.0,0.0,0.0,0.0,0.0,0.0,0.0,0.0,0.0,0.0,0.0,0.0,0.0,0.0,0.0,0.0,0.0,0.0,0.0,0.0,0.0,0.0,0.0,-1.6669,0.0,0.0,0.0,0.0,0.0,0.0,0.0,0.0,0.0,-1.9229,-2.0576,-2.214,-2.3361,-2.3447,-2.3755,-2.48,0.0,0.0,0.0,0.0,0.0,0.0,0.0,-2.4846,-2.4519,-2.4266,-2.4034,-2.38,-2.3161,-2.2697,-2.2901,0.0,0.0,-2.1344,-2.141,-2.1584,-2.1155,-2.1115,-2.1087,-2.0983,-2.131,-2.1668,0.0,0.0,0.0,0.0,0.0,0.0,0.0,0.0,-2.0683,-2.0806,0.0,-2.0847,0.0,0.0,0.0,0.0,0.0,-2.1409,0.0,0.0,-2.5897,-2.6336,-2.5695,-2.5712,-2.5662,-2.5446,-2.3638,-2.3309,-2.4142,-2.0998,0.0,0.0,0.0,0.0,0.0,0.0,-2.3026,-2.554,-2.7001,-2.8319,-2.9577,-2.9681,-2.9669,-2.9654,-2.9651,-2.9037,-2.7764,-2.6802,-2.5115,-2.2509,-2.0105,0.0,0.0,0.0,0.0,0.0,0.0,0.0,0.0,0.0,0.0,0.0,0.0,0.0,0.0,0.0,0.0,0.0,0.0,0.0,0.0,-1.7992,0.0,0.0,0.0,0.0,0.0,0.0,0.0,0.0,0.0,0.0,-2.1431,-2.2703,-2.4042,-2.4722,0.0,0.0,0.0,0.0,-2.7654,-2.7089,-2.7469,-2.7478,-2.6399,-2.6991,-2.747,-2.7143,0.0,0.0,-2.7329,-2.6857,-2.655,-2.7161,-2.7541,-2.6806,-2.2501,-2.2219,-2.2411,-2.2332,-2.2442,-2.2457,-2.2835,-2.3212,-2.3442,-2.5314,0.0,0.0,0.0,0.0,-2.1692,-2.2189,-2.2917,-2.3374,-2.3382,-2.3106,-2.3354,0.0,0.0,0.0,0.0,0.0,0.0,-2.3984,-2.595,-2.6438,-2.6889,-2.7398,-2.7931,-2.7668,-2.6713,-2.6711,-2.6831,-2.6939,-2.5637,-2.366,-2.1116,0.0,0.0,0.0,0.0,-2.4133,-2.6273,-2.8109,-2.94,-3.0238,-3.0688,-3.0943,-3.0943,-3.0492,-3.0058,-2.9669,-2.8092,-2.6405,-2.4585,-2.2438,0.0,0.0,0.0,0.0,0.0,0.0,0.0,0.0,0.0,0.0,0.0,0.0,0.0,0.0,0.0,0.0,0.0,0.0,0.0,-2.0415,-2.1169,-2.1278,0.0,0.0,0.0,0.0,0.0,0.0,0.0,0.0,0.0,-2.5099,-2.5272,-2.589,0.0,0.0,-2.6746,-2.7733,-2.8612,-2.9334,-2.9799,-2.9797,0.0,0.0,-2.9759,-2.9392,-2.9288,-2.8813,-2.8272,-2.7734,-2.735,-2.712,-2.7315,-2.7452,-2.7216,-2.6644,-2.6689,-2.6823,-2.6529,-2.6259,-2.6007,-2.5788,-2.5911,-2.6124,-2.8391,-2.7145,-2.5207,-2.4204,-2.3829,-2.3621,-2.4078,-2.4965,-2.5235,-2.5171,-2.4856,-2.5296,-2.4413,-2.26,-2.2247,0.0,0.0,0.0,-2.5091,-2.7264,-2.6968,-2.7164,-2.7757,-2.8184,-2.8123,-2.7586,-2.7848,-2.8306,-2.8888,-2.7941,-2.688,-2.5566,0.0,0.0,-2.3519,-2.4649,-2.6033,-2.7779,-2.9232,-3.0253,-3.0911,-3.1286,-3.1496,-3.1496,-3.1107,-3.0748,-3.0492,-2.9355,-2.7983,-2.6346,-2.4762,-2.2745,0.0,0.0,0.0,0.0,0.0,0.0,0.0,0.0,0.0,0.0,0.0,-1.5931,-1.6109,0.0,0.0,0.0,-2.0775,-2.2059,-2.402,-2.4117,0.0,0.0,0.0,0.0,0.0,0.0,0.0,-2.6039,-2.7184,-2.8021,-2.8156,-2.8,-2.8114,-2.8693,-2.8707,-2.8952,-2.969,0.0,-3.1294,-3.1545,-3.1588,-3.1744,-3.2187,-3.199,-3.1826,-3.1918,-3.1444,-3.0828,-3.0189,-3.0083,-3.0064,-2.9878,-2.9978,-3.0194,-3.0368,-3.059,-3.0367,-2.9213,-2.9017,-2.8884,-2.8592,-2.8664,-2.8673,-3.118,-3.0534,-2.7263,-2.5789,-2.5596,-2.5167,-2.5333,-2.5897,-2.659,-2.6455,-2.5882,-2.6753,-2.586,-2.3592,-2.2932,0.0,-2.5874,-2.5221,-2.6141,-2.8275,-2.7609,-2.7291,-2.7317,-2.7376,-2.7632,-2.8134,-2.7662,-2.838,-2.9993,-2.8699,-2.8906,-3.0567,-2.8138,-2.6634,-2.6211,-2.715,-2.8334,-2.9651,-3.0208,-3.0836,-3.1481,-3.1496,-3.1496,-3.1496,-3.1496,-3.1197,-3.0627,-3.0522,-2.9669,-2.7929,-2.6966,-2.5621,-2.3718,0.0,0.0,0.0,0.0,0.0,0.0,0.0,0.0,0.0,0.0,0.0,0.0,0.0,0.0,0.0,-2.4227,0.0,-2.7816,-2.6895,0.0,0.0,0.0,-2.6882,-2.7785,-2.7904,-2.817,-2.8787,0.0,0.0,-3.0627,-3.0876,-3.0729,-3.0172,-3.1007,-3.1687,-3.1645,-3.2796,-3.338,-3.2615,-3.3046,-3.3384,-3.3326,-3.3896,-3.4414,-3.4482,-3.4668,-3.4259,-3.3692,-3.3946,-3.4218,-3.3571,-3.4128,-3.4291,-3.3739,-3.3542,-3.3024,-3.1009,-3.0872,-3.1121,-3.1079,-3.1029,-3.0767,-3.1162,-3.07,-2.9553,-2.886,-2.8497,-2.8367,-2.8271,-2.8214,-2.8383,-2.8349,-2.8143,-2.7947,-2.7261,-2.6277,-2.629,-2.6512,-2.6841,-2.6789,-2.7321,-2.8253,-2.8131,-2.8075,-2.8202,-2.8643,-2.871,-2.8432,-2.8732,-2.9396,-3.0273,-3.0003,-3.0332,-3.1239,-3.1174,-3.0361,-2.8892,-2.8531,-2.8996,-3.0283,-3.0432,-3.0836,-3.1466,-3.1496,-3.1496,-3.1496,-3.1496,-3.1421,-3.1256,-3.0748,-3.0283,-2.9804,-2.8689,-2.7354,-2.583,-2.3681,0.0,0.0,0.0,0.0,0.0,0.0,0.0,0.0,0.0,-1.9311,-1.9963,0.0,-2.4325,0.0,-2.7491,-2.9416,-3.0139,-2.9964,0.0,0.0,-2.9342,-2.9485,-3.0263,-3.0608,-3.0917,-3.1155,-3.2045,-3.2567,-3.2359,-3.3708,-3.4625,-3.4343,-3.3633,-3.315,-3.3096,-3.4197,-3.482,-3.4222,-3.4545,-3.5141,-3.5505,-3.6197,-3.6473,-3.6088,-3.6046,-3.5789,-3.5145,-3.5145,-3.5205,-3.5055,-3.513,-3.5175,-3.5055,-3.504,-3.4884,-3.4242,-3.338,-3.2592,-3.2592,-3.2412,-3.2165,-3.211,-3.1541,-3.1322,-3.0851,-3.0223,-2.9555,-2.9362,-2.9501,-2.9499,-2.9499,-2.9428,-2.8264,-2.7273,-2.6512,-2.6635,-2.6797,-2.6939,-2.701,-2.7387,-2.7977,-2.7977,-2.8029,-2.8116,-2.8709,-2.8966,-2.8919,-2.9248,-3.0028,-3.1194,-3.1052,-3.1577,-3.282,-3.2975,-3.2522,-3.1507,-3.0757,-3.0594,-3.0941,-3.0943,-3.1122,-3.1481,-3.1496,-3.1361,-3.1062,-3.1047,-3.0928,-3.0672,-3.0313,-2.9953,-2.9654,-2.8981,-2.8102,-2.7046,-2.538,-2.365,0.0,0.0,0.0,0.0,0.0,0.0,0.0,0.0,0.0,0.0,0.0,-2.7255,-2.8354,-3.0087,-3.1299,-3.1735,-3.1741,-3.1836,-3.2027,-3.1967,-3.2128,-3.2633,-3.3214,-3.355,-3.3639,-3.4288,-3.4833,-3.5056,-3.5813,-3.6451,-3.6657,-3.6313,-3.5726,-3.5109,-3.587,-3.6286,-3.5582,-3.5978,-3.6529,-3.6843,-3.718,-3.73,-3.6985,-3.6911,-3.6776,-3.6432,-3.6596,-3.6716,-3.6447,-3.6582,-3.6686,-3.6417,-3.6357,-3.6357,-3.6231,-3.5663,-3.4871,-3.4277,-3.4028,-3.3802,-3.3266,-3.2501,-3.2501,-3.2021,-3.1106,-2.9822,-2.9634,-3.0243,-3.0224,-3.0167,-2.9906,-2.8294,-2.6942,-2.5878,-2.5854,-2.6168,-2.6707,-2.6722,-2.7046,-2.757,-2.77,-2.771,-2.7735,-2.8415,-2.9012,-2.9518,-2.9614,-3.0571,-3.2264,-3.1949,-3.2721,-3.4431,-3.4063,-3.3761,-3.3572,-3.3013,-3.2327,-3.1524,-3.1496,-3.1496,-3.1496,-3.1421,-3.1077,-3.0537,-3.0432,-3.0133,-2.9609,-2.9621,-2.9337,-2.8771,-2.8727,-2.8457,-2.7869,-2.6662,-2.5435,0.0,-2.3541,0.0,0.0,0.0,0.0,0.0,0.0,0.0,0.0,-2.8065,-2.981,-3.1687,-3.2231,-3.2642,-3.3051,-3.3073,-3.3462,-3.4415,-3.4538,-3.4653,-3.4998,-3.5596,-3.5976,-3.5976,-3.6104,-3.67,-3.7656,-3.753,-3.7483,-3.804,-3.8646,-3.8525,-3.7417,-3.7655,-3.7789,-3.6964,-3.7505,-3.8116,-3.805,-3.7941,-3.7944,-3.788,-3.7788,-3.7659,-3.7689,-3.8108,-3.8302,-3.7853,-3.8078,-3.8227,-3.7659,-3.7509,-3.7479,-3.7345,-3.731,-3.6963,-3.5917,-3.566,-3.5421,-3.3299,-3.2517,-3.2501,-3.1986,-3.1173,-3.0903,-3.0852,-3.1004,-3.1004,-3.0459,-2.9529,-2.9143,-2.8349,-2.7275,-2.7225,-2.7285,-2.742,-2.7405,-2.748,-2.7625,-2.81,-2.8319,-2.8391,-2.9451,-3.0,-3.0156,-3.074,-3.1484,-3.2398,-3.2938,-3.367,-3.4568,-3.5008,-3.4681,-3.3649,0.0,0.0,0.0,-3.1496,-3.1496,-3.1481,-3.0957,-3.0642,-3.0492,-3.0013,0.0,-2.9621,-2.9621,-2.9547,-2.9442,-2.9427,0.0,0.0,0.0,0.0,0.0,0.0,0.0,0.0,0.0,0.0,0.0,-2.8715,-2.8997,-2.8768,-3.0294,-3.1964,-3.3534,-3.3846,-3.427,-3.4976,-3.5049,-3.5408,-3.6202,-3.6303,-3.6567,-3.7182,-3.74,-3.7461,-3.7477,-3.8002,-3.8464,-3.8698,-3.9169,-3.9469,-3.9618,-4.0294,-4.0374,-3.9547,-3.9563,-3.9357,-3.8699,-3.9483,-4.0292,-4.0341,-4.01,-3.984,-4.0013,-3.9435,-3.9041,-3.8955,-3.9029,-3.9215,-3.8955,-3.9104,-3.899,-3.8347,-3.8212,-3.8108,-3.7524,-3.7853,-3.7823,-3.6582,-3.6716,-3.6828,-3.3284,0.0,-3.2501,-3.2003,0.0,-3.119,-3.119,-3.119,-3.119,-3.0518,-2.9384,-2.9088,-2.8448,-2.7585,-2.7585,-2.776,-2.8042,-2.8042,-2.8213,-2.8496,-2.8803,-2.8966,-2.8989,-2.9886,-3.0512,-3.0841,-3.1226,-3.2083,-3.3401,-3.3564,-3.4111,-3.5098,-3.5447,-3.4934,-3.3624,-3.2891,-3.2201,-3.1496,-3.1496,-3.1496,-3.1481,-3.1167,-3.0851,-3.0507,0.0,0.0,0.0,0.0,0.0,0.0,0.0,0.0,0.0,0.0,0.0,-2.86,-2.8283,-2.8228,-2.8559,-2.927,-3.0124,-3.1144,-3.2309,-3.2486,-3.137,-3.2789,-3.4051,-3.4802,-3.4953,-3.5318,-3.6096,-3.6214,-3.6502,-3.7212,-3.7347,-3.7499,-3.7855,-3.8227,-3.8447,-3.8497,-3.9097,-3.9529,-3.9554,-3.9842,-4.0265,-4.0578,-4.095,-4.1225,-4.1201,-4.1197,-4.1006,-4.0583,-4.0997,-4.1485,-4.1422,-4.1012,-4.0724,-4.0588,-3.999,-3.9481,-3.9388,-3.9388,-3.9388,-3.9388,-3.9388,-3.9254,-3.9035,-3.9155,-3.9275,-3.9035,-3.9409,-3.9544,-3.8601,-3.8167,-3.7808,-3.3284,-3.2501,-3.2501,-3.2003,-3.119,-3.119,-3.119,-3.119,0.0,0.0,0.0,-2.8826,-2.8238,-2.776,-2.765,-2.7934,-2.8503,-2.8503,-2.8826,-2.9422,-2.9518,-2.9563,-2.9585,-3.0318,-3.0974,-3.1558,-3.1823,-3.2827,-3.4433,-3.413,-3.4514,-3.5526,-3.5616,-3.4918,-3.3608,-3.2339,-3.1682,-3.1697,-3.1697,-3.164,-3.1511,-3.1491,-3.1204,-3.0522,-3.0402,-3.0103,-2.9636,-2.9621,-2.9621,-2.9621,-2.9621,-2.9651,-2.9729,-2.9771,-2.9883,-3.0123,-3.014,-3.0432,-3.1109,-3.1756,-3.2659,-3.3866,-3.4964,-3.507,-3.3789,-3.4845,-3.565,-3.5785,-3.5825,-3.6146,-3.6914,-3.7015,-3.728,-3.8024,-3.8108,-3.8142,-3.8311,-3.8802,-3.9191,-3.9242,-3.9706,-4.0096,-4.0079,-4.0248,-4.0476,-4.1085,-4.1491,-4.1863,-4.2489,-4.2537,-4.2465,-4.2543,-4.2602,-4.2503,-4.2363,-4.182,-4.1213,-4.128,-4.055,-3.9829,-3.9666,-3.9773,-3.9737,-3.9409,-3.9592,-3.9754,-3.967,-4.0098,-4.0531,-4.0576,-4.11,-4.1437,-4.0801,-3.9783,-3.8916,-3.3302,-3.2501,-3.2501,-3.2003,-3.119,-3.119,-3.119,-3.1151,-3.0658,-3.0335,-3.0102,-2.8973,-2.8455,-2.8359,-2.7835,-2.7934,-2.8503,-2.8503,-2.8826,0.0,-2.9935,-3.0166,-3.0241,-3.1453,-3.209,-3.2276,-3.3435,-3.4204,-3.4539,-3.5043,-3.5431,-3.56,-3.5616,-3.4934,-3.3633,-3.2841,-3.2437,-3.2437,-3.2437,-3.2132,-3.1524,-3.1555,-3.1258,-3.0505,-3.0013,-2.9711,-2.9594,-2.9636,-2.9621,-2.9621,-2.9621,-2.9819,-3.0328,-3.0385,-3.09,-3.2052,-3.218,-3.2487,-3.3134,-3.3802,-3.4516,-3.5233,-3.5509,-3.5498,-3.5329,-3.5464,-3.5893,-3.6541,-3.6626,-3.6924,-3.7635,-3.7736,-3.8041,-3.8717,-3.8836,-3.9056,-3.9639,-3.98,-3.9893,-3.991,-4.0011,-4.0146,-4.0214,-4.0663,-4.1102,-4.139,-4.2303,-4.3352,-4.3826,-4.3673,-4.3595,-4.4086,-4.4243,-4.4253,-4.396,-4.3486,-4.2847,-4.2909,-4.2093,-4.1213,-4.0588,-4.0995,-4.0977,-3.9732,-4.0482,-4.0924,-4.0467,-4.0786,-4.116,-4.1302,-4.1773,-4.2171,-4.1991,-4.1332,-4.0516,-3.3284,-3.2534,-3.2501,-3.1986,-3.119,-3.119,-3.119,-3.1134,-3.0576,-3.0293,-3.0166,-2.9019,-2.8685,-2.8966,-2.8693,-2.8904,-2.9473,-2.9473,-2.9805,-3.0372,-3.0658,-3.0797,-3.0868,-3.1817,-3.2513,-3.297,-3.3981,-3.4709,-3.5098,-3.5447,-3.5616,-3.5577,-3.523,-3.4736,-3.4137,-3.3469,-3.3145,-3.3119,-3.2394,-3.2035,-3.2076,-3.1746,-3.1384,-3.1032,-3.0748,-3.0822,-3.1204,-3.1231,-3.1405,-3.1773,-3.1757,-3.1743,-3.1671,-3.1983,-3.2482,-3.3087,-3.313,-3.3614,-3.4616,-3.4965,-3.5293,-3.5577,-3.6011,-3.6248,-3.6248,-3.6248,-3.6569,-3.7297,-3.7381,-3.7686,-3.8413,-3.8497,-3.8802,-3.9512,-3.9622,-3.974,-4.0028,-4.0113,-4.0113,-4.0146,-4.046,-4.0696,-4.0679,-4.1339,-4.1982,-4.2388,-4.3403,-4.4181,-4.4547,-4.4299,-4.4147,-4.4502,-4.4598,-4.4598,-4.4542,-4.3873,-4.3366,-4.3306,-4.2599,-4.1933,-4.1445,-4.1852,-4.18,-4.1497,-4.1697,-4.1707,-4.1601,-4.1791,-4.1918,-4.2006,-4.2432,-4.2731,-4.247,-4.1886,-4.095,-3.3357,-3.2665,-3.2534,-3.2003,-3.121,-3.119,-3.119,-3.1131,-3.0559,-3.0356,-3.0314,-2.9225,-2.9042,-2.9563,-2.9473,-2.9717,-3.0251,-3.0293,-3.0601,-3.1171,-3.119,-3.119,-3.1258,-3.1955,-3.2699,-3.3423,-3.415,-3.4878,-3.5532,-3.5616,-3.5616,-3.5554,-3.5075,-3.4736,-3.4583,-3.4087,-3.382,-3.3761,-3.261,-3.2188,-3.2559,-3.2312,-3.2076,-3.1768,-3.1739,-3.2092,-3.2761,-3.2668,-3.2922,-3.3531,-3.3608,-3.3381,-3.2895,-3.3313,-3.3659,-3.3786,-3.3811,-3.435,-3.5487,-3.5791,-3.587,-3.587,-3.6603,-3.7134,-3.7286,-3.7303,-3.7516,-3.8058,-3.8159,-3.8464,-3.9089,-3.9225,-3.9486,-4.0028,-4.0113,-4.0079,-4.0113,-4.0231,-4.035,-4.0434,-4.0984,-4.1441,-4.1559,-4.2083,-4.2811,-4.3555,-4.4215,-4.4564,-4.4598,-4.4598,-4.4598,-4.4598,-4.4598,-4.4598,-4.4542,-4.4093,-4.368,-4.3591,-4.3092,-4.2774,-4.2667,-4.2685,-4.2848,-4.3233,-4.3119,-4.2953,-4.3065,-4.3041,-4.2863,-4.2767,-4.2955,-4.3075,-4.2515,-4.1886,-4.0965,-3.3536,-3.309,-3.2682,-3.1986,-3.1213,-3.119,-3.119,-3.1114,-3.0559,-3.0601,-3.0918,-2.9848,-2.9673,-3.0064,-2.9657,-2.9799,-3.0314,-3.0293,-3.0638,-3.1134,-3.119,-3.119,-3.1258,-3.1972,-3.2699,-3.3423,-3.4167,-3.4945,-3.5566,-3.5616,-3.5616,-3.56,-3.5538,-3.5207,-3.4664,-3.4552,-3.4503,-3.4479,-3.3786,-3.3145,-3.2722,-3.3735,-3.3761,-3.2504,-3.2492,-3.2815,-3.3469,-3.2922,-3.2922,-3.3505,-3.3633,-3.3582,-3.3521,-3.3598,-3.3887,-3.4414,-3.4503,-3.4847,-3.5583,-3.6265,-3.666,-3.6745,-3.7364,-3.8075,-3.865,-3.8768,-3.8802,-3.8935,-3.8911,-3.924,-3.9893,-3.9985,-4.001,-4.0079,-4.0197,-4.0113,-4.0265,-4.0696,-4.1102,-4.1119,-4.1781,-4.2185,-4.2269,-4.2844,-4.3589,-4.4231,-4.4479,-4.4598,-4.4598,-4.4598,-4.4598,-4.4598,-4.4598,-4.4598,-4.457,-4.457,-4.4355,-4.4384,-4.4417,-4.4215,-4.4178,-4.4627,-4.5167,-4.4691,-4.5064,-4.5137,-4.4346,-4.4096,-4.4113,-4.3256,-4.311,-4.3105,-4.2515,-4.1931,-4.101,-3.3404,-3.2777,-3.2583,-3.1986,-3.1252,-3.119,-3.119,-3.1171,-3.0938,-3.0975,-3.1114,-3.0662,-3.0617,-3.0818,-3.0576,-3.0617,-3.0801,-3.0838,-3.0955,-3.119,-3.119,-3.119,-3.1309,-3.2408,-3.3136,-3.347,-3.459,-3.5278,-3.5549,-3.5616,-3.5616,-3.5616,-3.5616,-3.547,-3.5207,-3.5184,-3.5207,-3.5184,-3.4934,-3.4464,-3.3862,-3.3912,-3.3777,-3.3261,-3.3198,-3.3521,-3.4087,-3.3896,-3.4103,-3.4704,-3.4776,-3.4609,-3.4211,-3.4585,-3.4728,-3.4648,-3.4981,-3.5541,-3.6259,-3.6643,-3.6998,-3.7398,-3.8125,-3.8684,-3.8971,-3.9402,-3.9746,-4.0059,-4.013,-4.0158,-4.0145,-4.0392,-4.0449,-4.028,-4.0802,-4.1346,-4.1363,-4.1975,-4.2438,-4.2465,-4.2737,-4.2963,-4.3064,-4.3639,-4.4198,-4.4564,-4.4598,-4.4598,-4.4598,-4.4598,-4.4598,-4.4598,-4.4598,-4.4598,-4.4598,-4.4598,-4.4598,-4.4654,-4.4976,-4.5197,-4.5328,-4.5829,-4.6283,-4.626,-4.6514,-4.6388,-4.5463,-4.4798,-4.4472,-4.3609,-4.2925,-4.2656,-4.2425,-4.2186,-4.1587,-3.3447,-3.2854,-3.2616,-3.1986,-3.121,-3.119,-3.119,-3.119,-3.119,-3.119,-3.119,-3.119,-3.119,-3.119,-3.119,-3.119,-3.119,-3.119,-3.119,-3.119,-3.119,-3.119,-3.1343,-3.2476,-3.3203,-3.3571,-3.4692,-3.538,-3.5566,-3.5616,-3.5616,-3.5616,-3.5616,-3.5616,-3.5616,-3.5616,-3.5616,-3.56,-3.5616,-3.5362,-3.4871,-3.4399,-3.4062,-3.3871,-3.3862,-3.4186,-3.483,-3.4712,-3.4901,-3.5538,-3.5616,-3.5385,-3.4941,-3.5339,-3.5385,-3.4998,-3.5541,-3.6163,-3.6778,-3.7185,-3.7642,-3.8176,-3.887,-3.9317,-3.941,-3.9923,-4.0463,-4.081,-4.1024,-4.0903,-4.0449,-4.0546,-4.0614,-4.0692,-4.1647,-4.2257,-4.2476,-4.3135,-4.3487,-4.3373,-4.352,-4.3741,-4.3809,-4.4198,-4.4581,-4.4581,-4.4598,-4.4598,-4.4598,-4.4598,-4.4598,-4.4598,-4.4598,-4.4598,-4.4598,-4.4598,-4.4632,-4.4959,-4.5399,-4.5788,-4.6126,-4.6836,-4.7344,-4.7445,-4.7295,-4.6799,-4.6041,-4.5389,-4.4684,-4.368,-4.301,-4.2734,-4.2716,-4.256,-4.2111,-3.3762,-3.3606,-3.2856,-3.2003,-3.121,-3.121,-3.119,-3.119,-3.119,-3.119,-3.119,-3.119,-3.119,-3.119,-3.119,-3.119,-3.119,-3.119,-3.119,-3.119,-3.1224,-3.1207,-3.1241,-3.1989,-3.2747,-3.3525,-3.4336,-3.503,-3.5583,-3.5616,-3.5616,-3.5616,-3.5616,-3.5616,-3.5616,-3.5616,-3.5616,-3.5616,-3.5616,-3.5577,-3.5515,-3.547,-3.5138,-3.464,-3.4552,-3.4871,-3.5345,-3.4918,-3.4918,-3.556,-3.5616,-3.5577,-3.5554,-3.5577,-3.5577,-3.5639,-3.6293,-3.6778,-3.7032,-3.8058,-3.8836,-3.9022,-3.9588,-4.0011,-4.0051,-4.0501,-4.0856,-4.0949,-4.1499,-4.1534,-4.1082,-4.0803,-4.0957,-4.1899,-4.2198,-4.2652,-4.3218,-4.394,-4.4001,-4.3797,-4.4153,-4.4472,-4.4552,-4.4564,-4.4598,-4.4598,-4.4598,-4.4598,-4.4598,-4.4598,-4.4598,-4.4598,-4.4598,-4.4615,-4.4615,-4.4784,-4.5026,-4.5382,-4.5788,-4.621,-4.7141,-4.7936,-4.8325,-4.8612,-4.8526,-4.7897,-4.6716,-4.5782,-4.5085,-4.4297,-4.3663,-4.3371,-4.3084,-4.271,-4.2381,-3.3634,-3.3379,-3.2761,-3.2144,-3.1621,-3.1584,-3.1449,-3.119,-3.119,-3.119,-3.119,-3.119,-3.119,-3.119,-3.119,-3.119,-3.119,-3.119,-3.119,-3.1278,-3.1701,-3.1921,-3.2039,-3.3123,-3.3816,-3.4167,-3.4878,-3.5329,-3.5549,-3.5616,-3.5616,-3.5616,-3.5616,-3.5616,-3.5616,-3.5616,-3.5616,-3.5616,-3.5616,-3.5616,-3.5616,-3.5616,-3.547,-3.5253,-3.5253,-3.5362,-3.5583,-3.5362,-3.5362,-3.56,-3.5616,-3.5616,-3.5616,-3.5616,-3.5853,-3.6315,-3.662,-3.7218,-3.8115,-3.8684,-3.9208,-3.9673,-3.9943,-4.0279,-4.057,-4.0827,-4.1201,-4.1903,-4.2331,-4.2562,-4.2725,-4.2313,-4.2195,-4.2825,-4.3658,-4.4226,-4.4536,-4.4876,-4.5129,-4.5248,-4.5321,-4.5161,-4.5062,-4.4824,-4.4598,-4.4598,-4.4598,-4.4598,-4.4598,-4.4598,-4.4598,-4.4598,-4.4615,-4.4784,-4.5297,-4.5314,-4.5483,-4.5906,-4.6346,-4.7022,-4.7868,-4.8376,-4.8765,-4.8798,-4.8984,-4.8545,-4.7155,-4.6154,-4.5436,-4.4706,-4.4105,-4.3551,-4.3433,-4.3114,-4.2895,-3.3564,-3.3184,-3.284,-3.2366,-3.1842,-3.2084,-3.1943,-3.1585,-3.1565,-3.1549,-3.1512,-3.1309,-3.119,-3.119,-3.119,-3.119,-3.119,-3.119,-3.119,-3.1258,-3.1955,-3.2293,-3.253,-3.3816,-3.4489,-3.4607,-3.5228,-3.5616,-3.5616,-3.5616,-3.5616,-3.5616,-3.5616,-3.5616,-3.5616,-3.5616,-3.5616,-3.5616,-3.5616,-3.5616,-3.5616,-3.5616,-3.5616,-3.5616,-3.5616,-3.5616,-3.5616,-3.5616,-3.5616,-3.5616,-3.5616,-3.5701,-3.5943,-3.5994,-3.6349,-3.7066,-3.7405,-3.7929,-3.8836,-3.9233,-3.9588,-4.0053,-4.0279,-4.0546,-4.088,-4.1246,-4.1895,-4.2564,-4.312,-4.356,-4.4086,-4.4118,-4.4134,-4.4347,-4.5093,-4.5726,-4.5936,-4.6065,-4.6187,-4.6163,-4.5773,-4.552,-4.5451,-4.4961,-4.4665,-4.4598,-4.4598,-4.4598,-4.4598,-4.4598,-4.475,-4.4919,-4.4976,-4.5348,-4.594,-4.6295,-4.6498,-4.687,-4.6989,-4.7699,-4.824,-4.8731,-4.8968,-4.9001,-4.8829,-4.8433,-4.7688,-4.6609,-4.5742,-4.5005,-4.422,-4.3551,-4.3538,-4.3569,-4.3404,-3.3583,-3.3276,-3.3214,-3.2752,-3.2124,-3.2747,-3.2737,-3.2286,-3.2293,-3.2276,-3.209,-3.1599,-3.141,-3.1258,-3.1326,-3.1258,-3.1292,-3.1326,-3.1309,-3.1376,-3.2124,-3.2479,-3.2598,-3.3969,-3.4624,-3.4641,-3.5284,-3.56,-3.5616,-3.5616,-3.5616,-3.5616,-3.5616,-3.5616,-3.5616,-3.5616,-3.5616,-3.5616,-3.5616,-3.5616,-3.5616,-3.5616,-3.5616,-3.5616,-3.5616,-3.5616,-3.5616,-3.5616,-3.5616,-3.5616,-3.5616,-3.5994,-3.6592,-3.6761,-3.7151,-3.7855,-3.8531,-3.892,-3.9089,-3.9673,-3.9994,-4.0171,-4.0552,-4.0856,-4.1133,-4.1937,-4.2652,-4.3022,-4.36,-4.4269,-4.5043,-4.575,-4.6161,-4.6272,-4.6275,-4.6563,-4.7089,-4.7345,-4.7128,-4.6501,-4.5915,-4.5545,-4.5381,-4.4971,-4.4626,-4.4598,-4.4598,-4.4598,-4.4632,-4.4699,-4.4976,-4.5415,-4.5686,-4.5991,-4.6684,-4.7344,-4.7618,-4.7872,-4.7872,-4.8206,-4.8578,-4.8984,-4.8984,-4.9018,-4.9018,-4.8656,-4.8225,-4.7172,-4.6083,-4.5285,-4.4419,-4.3823,-4.3723,-4.3783,-4.3858,-3.3721,-3.3679,-3.4213,-3.3898,-3.3195,-3.3881,-3.3546,-3.2418,-3.2797,-3.278,-3.2412,-3.2577,-3.2442,-3.2039,-3.1955,-3.1955,-3.1955,-3.1935,-3.1972,-3.2154,-3.3224,-3.3766,-3.3947,-3.4793,-3.5267,-3.5278,-3.5481,-3.5616,-3.5616,-3.5616,-3.5616,-3.5616,-3.5616,-3.5616,-3.5616,-3.5616,-3.5616,-3.5616,-3.5616,-3.5616,-3.5616,-3.5616,-3.5616,-3.5616,-3.5616,-3.5616,-3.5616,-3.5616,-3.5616,-3.5616,-3.5616,-3.596,-3.6688,-3.728,-3.7889,-3.8565,-3.8836,-3.9283,-3.9723,-3.996,-4.0121,-4.0204,-4.0583,-4.1087,-4.1512,-4.2279,-4.3136,-4.3925,-4.4802,-4.5588,-4.6372,-4.7195,-4.744,-4.7087,-4.7063,-4.7124,-4.7377,-4.7428,-4.7106,-4.6548,-4.624,-4.5982,-4.5537,-4.4998,-4.4665,-4.4626,-4.4643,-4.4649,-4.4682,-4.5106,-4.5348,-4.5669,-4.6092,-4.6718,-4.7411,-4.7885,-4.8105,-4.8311,-4.846,-4.846,-4.8832,-4.9018,-4.9018,-4.9018,-4.9018,-4.8861,-4.8433,-4.777,-4.6712,-4.6012,-4.5436,-4.4862,-4.4203,-4.4122,-4.4257,-3.4247,-3.4307,-3.4784,-3.477,-3.442,-3.4978,-3.4539,-3.3539,-3.3677,-3.3389,-3.2882,-3.2882,-3.2577,-3.2073,-3.2175,-3.2293,-3.2344,-3.2818,-3.3123,-3.3224,-3.3986,-3.4472,-3.4607,-3.5267,-3.5616,-3.5616,-3.5616,-3.5616,-3.5616,-3.5616,-3.5616,-3.5616,-3.5616,-3.5616,-3.5616,-3.5616,-3.5616,-3.5616,-3.5616,-3.5616,-3.5616,-3.5616,-3.5616,-3.5616,-3.5616,-3.5616,-3.5616,-3.5616,-3.5616,-3.5667,-3.5876,-3.6535,-3.7523,-3.8091,-3.865,-3.9257,-3.9615,-3.9876,-4.0103,-4.0294,-4.0375,-4.048,-4.092,-4.149,-4.2154,-4.2872,-4.3889,-4.4619,-4.57,-4.6562,-4.7076,-4.781,-4.8058,-4.7779,-4.772,-4.7736,-4.7718,-4.7736,-4.7614,-4.7219,-4.6937,-4.6519,-4.5933,-4.532,-4.4971,-4.4951,-4.4958,-4.5156,-4.5337,-4.579,-4.6048,-4.6413,-4.6938,-4.7564,-4.8156,-4.8426,-4.8545,-4.8714,-4.8883,-4.8849,-4.8984,-4.9018,-4.9018,-4.9018,-4.9018,-4.9018,-4.8656,-4.8225,-4.7456,-4.6968,-4.6276,-4.5375,-4.4658,-4.4689,-4.4881,-3.5023,-3.4949,-3.5114,-3.5337,-3.5517,-3.5847,-3.5634,-3.5163,-3.4763,-3.415,-3.344,-3.3068,-3.2357,-3.1799,-3.2446,-3.2666,-3.2682,-3.3732,-3.4353,-3.4421,-3.4641,-3.4675,-3.4793,-3.5312,-3.56,-3.5616,-3.5616,-3.5616,-3.5616,-3.5616,-3.5616,-3.5616,-3.5616,-3.5616,-3.5616,-3.5616,-3.5616,-3.5616,-3.5616,-3.5616,-3.5616,-3.5616,-3.5616,-3.5616,-3.5616,-3.565,-3.5808,-3.5904,-3.5836,-3.5808,-3.6535,-3.7567,-3.8674,-3.9022,-3.9377,-4.0085,-4.0631,-4.058,-4.0424,-4.072,-4.0949,-4.1013,-4.1512,-4.2133,-4.2794,-4.3778,-4.4638,-4.5113,-4.625,-4.7058,-4.7314,-4.7846,-4.8231,-4.8287,-4.8209,-4.821,-4.8287,-4.8248,-4.8075,-4.7977,-4.7677,-4.7128,-4.6425,-4.591,-4.5822,-4.5736,-4.5843,-4.6165,-4.6436,-4.6783,-4.7162,-4.7479,-4.7716,-4.8122,-4.8629,-4.868,-4.8781,-4.8832,-4.9018,-4.9018,-4.9018,-4.9018,-4.9018,-4.9018,-4.9018,-4.9018,-4.8829,-4.837,-4.795,-4.7423,-4.658,-4.564,-4.5341,-4.541,-4.557,-3.5238,-3.4339,-3.6064,-3.6355,-3.5715,-3.6452,-3.6271,-3.5394,-3.5326,-3.4844,-3.4336,-3.4607,-3.415,-3.3694,-3.3744,-3.3935,-3.3964,-3.4303,-3.4844,-3.5267,-3.5312,-3.5312,-3.5312,-3.5481,-3.5616,-3.5616,-3.5616,-3.5616,-3.5616,-3.5616,-3.5616,-3.5616,-3.5616,-3.5616,-3.5616,-3.5616,-3.5616,-3.5616,-3.5616,-3.5616,-3.5616,-3.5616,-3.5616,-3.5616,-3.5616,-3.5926,-3.6468,-3.7026,-3.7009,-3.662,-3.7736,-3.8556,-3.9022,-3.9528,-4.0048,-4.0556,-4.0827,-4.1087,-4.1291,-4.1468,-4.1556,-4.1617,-4.208,-4.2771,-4.3523,-4.4272,-4.5223,-4.6122,-4.6947,-4.7351,-4.7846,-4.8158,-4.8306,-4.8324,-4.8324,-4.8324,-4.8324,-4.8287,-4.8152,-4.7715,-4.7512,-4.715,-4.6778,-4.6854,-4.7061,-4.7121,-4.7143,-4.7303,-4.7543,-4.7546,-4.7834,-4.7986,-4.8223,-4.8612,-4.8917,-4.8951,-4.8984,-4.8968,-4.9018,-4.9018,-4.9018,-4.9018,-4.9018,-4.9018,-4.9018,-4.9018,-4.8719,-4.8338,-4.7982,-4.7803,-4.6799,-4.5881,-4.6112,-4.6265,-4.6353,-3.6028,-3.4981,-3.6776,-3.7266,-3.688,-3.7113,-3.687,-3.634,-3.5771,-3.5319,-3.4972,-3.4999,-3.4726,-3.41,-3.4336,-3.4472,-3.4523,-3.4827,-3.5216,-3.5498,-3.5583,-3.5583,-3.56,-3.56,-3.5616,-3.5616,-3.5616,-3.5616,-3.5616,-3.5616,-3.5616,-3.5616,-3.5616,-3.5616,-3.5616,-3.5616,-3.5616,-3.5616,-3.5616,-3.5616,-3.5616,-3.5616,-3.5616,-3.5684,-3.587,-3.6468,-3.7229,-3.7956,-3.8125,-3.7997,-3.8548,-3.9123,-3.9511,-4.0063,-4.0577,-4.0943,-4.1335,-4.1768,-4.1793,-4.2,-4.2183,-4.2241,-4.2539,-4.3205,-4.4086,-4.4803,-4.581,-4.6819,-4.7333,-4.7791,-4.8158,-4.8324,-4.8324,-4.8324,-4.8324,-4.8324,-4.8324,-4.8324,-4.8152,-4.7897,-4.7775,-4.7714,-4.7321,-4.7829,-4.8186,-4.8413,-4.8311,-4.8461,-4.8625,-4.8471,-4.8342,-4.846,-4.8545,-4.8832,-4.8968,-4.9001,-4.9018,-4.9018,-4.9018,-4.9018,-4.9018,-4.9018,-4.9018,-4.9018,-4.9018,-4.894,-4.8719,-4.8545,-4.8513,-4.8034,-4.6949,-4.6605,-4.6905,-4.6665,-4.6834,-3.7088,-3.6391,-3.7272,-3.7988,-3.8259,-3.7614,-3.7397,-3.7524,-3.6323,-3.5668,-3.5503,-3.4972,-3.4683,-3.3761,-3.4605,-3.4658,-3.4675,-3.525,-3.5481,-3.5616,-3.5616,-3.5616,-3.5616,-3.5616,-3.5616,-3.5616,-3.5616,-3.5616,-3.5616,-3.5616,-3.5616,-3.5616,-3.5616,-3.5616,-3.5616,-3.5616,-3.5616,-3.5616,-3.5616,-3.5616,-3.5616,-3.5616,-3.5616,-3.5701,-3.6535,-3.7229,-3.799,-3.8684,-3.9097,-3.9106,-3.9131,-3.9536,-4.0102,-4.0679,-4.1036,-4.1291,-4.2021,-4.2362,-4.2185,-4.256,-4.2788,-4.2807,-4.2898,-4.343,-4.4675,-4.5572,-4.6397,-4.7296,-4.7921,-4.8177,-4.8288,-4.8324,-4.8324,-4.8324,-4.8324,-4.8324,-4.8324,-4.8324,-4.8343,-4.8434,-4.8434,-4.8545,-4.8768,-4.8952,-4.9201,-4.9559,-4.9468,-4.9424,-4.9311,-4.8951,-4.8833,-4.8832,-4.89,-4.8951,-4.9001,-4.9001,-4.9018,-4.9018,-4.9018,-4.9018,-4.9018,-4.9018,-4.9018,-4.9018,-4.9018,-4.9001,-4.894,-4.8861,-4.8767,-4.8412,-4.747,-4.7549,-4.7722,-4.7063,-4.6905,-3.7606,-3.6413,-3.7845,-3.8175,-3.7741,-3.7381,-3.747,-3.7807,-3.6726,-3.6417,-3.6578,-3.62,-3.5866,-3.5669,-3.5423,-3.5363,-3.5345,-3.5543,-3.56,-3.5616,-3.5616,-3.5616,-3.5616,-3.5616,-3.5616,-3.5616,-3.5616,-3.5616,-3.5616,-3.5616,-3.5616,-3.5616,-3.5616,-3.5616,-3.5616,-3.5616,-3.5616,-3.5616,-3.5616,-3.5616,-3.5616,-3.5616,-3.565,-3.5836,-3.6992,-3.799,-3.8734,-3.9486,-3.9859,-3.9876,-3.9892,-4.0107,-4.0573,-4.0874,-4.138,-4.2041,-4.246,-4.2827,-4.3087,-4.3178,-4.334,-4.3396,-4.3853,-4.4656,-4.5535,-4.6342,-4.7131,-4.7865,-4.8233,-4.8306,-4.8324,-4.8324,-4.8324,-4.8324,-4.8324,-4.8324,-4.8324,-4.8324,-4.8545,-4.9058,-4.9279,-4.957,-5.02,-5.0759,-5.0878,-5.0759,-5.0517,-5.04,-4.9938,-4.9401,-4.9175,-4.9018,-4.9018,-4.9018,-4.9018,-4.9018,-4.9018,-4.9018,-4.9018,-4.9018,-4.9018,-4.9018,-4.9018,-4.9018,-4.9018,-4.9001,-4.9001,-4.8545,-4.8289,-4.8117,-4.8001,-4.7891,-4.7694,-4.7221,-4.698,-3.7973,-3.7019,-3.8193,-3.845,-3.8047,-3.7697,-3.7808,-3.8015,-3.721,-3.6941,-3.7078,-3.6882,-3.6661,-3.6395,-3.6101,-3.5968,-3.5898,-3.5694,-3.5616,-3.5616,-3.5616,-3.5616,-3.5616,-3.5616,-3.5616,-3.5616,-3.5616,-3.5616,-3.5616,-3.5616,-3.5616,-3.5616,-3.5616,-3.5616,-3.5616,-3.5616,-3.5616,-3.5616,-3.5616,-3.5616,-3.5616,-3.5616,-3.6107,-3.6698,-3.7821,-3.8768,-3.9503,-3.9842,-4.0203,-4.0417,-4.0497,-4.0601,-4.0972,-4.1424,-4.208,-4.2539,-4.2976,-4.316,-4.3427,-4.3497,-4.3644,-4.403,-4.4488,-4.5315,-4.614,-4.6892,-4.7424,-4.8067,-4.8306,-4.8324,-4.8324,-4.8324,-4.8324,-4.8324,-4.8324,-4.8324,-4.8324,-4.8324,-4.8636,-4.9315,-4.9555,-5.0233,-5.1022,-5.1773,-5.1803,-5.1355,-5.082,-5.0647,-4.9985,-4.947,-4.9148,-4.9018,-4.9018,-4.9018,-4.9018,-4.9018,-4.9018,-4.9018,-4.9018,-4.9018,-4.9018,-4.9018,-4.9018,-4.9018,-4.9018,-4.9018,-4.8909,-4.8401,-4.8162,-4.838,-4.8328,-4.7971,-4.7675,-4.7431,-4.7274,-3.8285,-3.7731,-3.8414,-3.8707,-3.8611,-3.8133,-3.8183,-3.8515,-3.7738,-3.7323,-3.7303,-3.7248,-3.6862,-3.6457,-3.6249,-3.6266,-3.6118,-3.5871,-3.5616,-3.5616,-3.5616,-3.5616,-3.5616,-3.5616,-3.5616,-3.5616,-3.5616,-3.5616,-3.5616,-3.5616,-3.5616,-3.5616,-3.5616,-3.5616,-3.5616,-3.5616,-3.5616,-3.5616,-3.5616,-3.5616,-3.5616,-3.565,-3.6293,-3.7584,-3.8447,-3.9225,-3.9858,-4.0195,-4.0449,-4.0897,-4.1064,-4.1155,-4.1424,-4.2,-4.277,-4.2808,-4.3232,-4.341,-4.3535,-4.3681,-4.4048,-4.469,-4.5058,-4.5663,-4.6727,-4.7259,-4.7681,-4.8012,-4.8324,-4.8324,-4.8324,-4.8324,-4.8324,-4.8324,-4.8324,-4.8324,-4.8343,-4.8398,-4.8985,-4.9664,-5.0288,-5.1004,-5.1584,-5.2178,-5.2063,-5.1849,-5.1304,-5.0689,-5.0022,-4.9521,-4.9199,-4.9018,-4.9018,-4.9018,-4.9018,-4.9018,-4.9018,-4.9018,-4.9018,-4.9018,-4.9018,-4.9018,-4.9018,-4.9018,-4.9018,-4.9018,-4.8861,-4.845,-4.8389,-4.8733,-4.8511,-4.8034,-4.777,-4.7681,-4.7551,-3.8615,-3.8524,-3.8652,-3.8707,-3.8609,-3.815,-3.8234,-3.8546,-3.8048,-3.779,-3.772,-3.7378,-3.6981,-3.6457,-3.592,-3.5761,-3.5854,-3.5739,-3.565,-3.5667,-3.5644,-3.5616,-3.5616,-3.5616,-3.5616,-3.5616,-3.5616,-3.5616,-3.5616,-3.5616,-3.5616,-3.5616,-3.5616,-3.5616,-3.5616,-3.5616,-3.5616,-3.5616,-3.5616,-3.5616,-3.5616,-3.587,-3.6428,-3.7872,-3.8684,-3.9443,-4.0067,-4.0528,-4.0803,-4.0972,-4.1874,-4.2264,-4.2382,-4.2616,-4.292,-4.3232,-4.341,-4.3479,-4.3534,-4.4103,-4.4452,-4.4948,-4.5792,-4.6562,-4.7186,-4.7645,-4.8049,-4.8196,-4.8324,-4.8324,-4.8324,-4.8324,-4.8324,-4.8324,-4.8324,-4.8361,-4.8489,-4.8985,-4.9664,-5.0453,-5.1132,-5.172,-5.2184,-5.2313,-5.1907,-5.1486,-5.0832,-5.0185,-4.9509,-4.9243,-4.9094,-4.9018,-4.9018,-4.9018,-4.9018,-4.9018,-4.9018,-4.9018,-4.9018,-4.9018,-4.9018,-4.9018,-4.9018,-4.9018,-4.9018,-4.9018,-4.8767,-4.845,-4.8194,-4.8213,-4.8095,-4.7994,-4.7692,-4.7496,-4.7779,-3.889,-3.888,-3.8762,-3.8707,-3.8643,-3.8449,-3.8449,-3.8661,-3.8415,-3.8148,-3.7998,-3.7912,-3.7524,-3.6921,-3.6583,-3.6312,-3.6071,-3.6028,-3.6011,-3.5968,-3.5761,-3.5616,-3.5616,-3.5616,-3.5616,-3.5616,-3.5616,-3.5616,-3.5616,-3.5616,-3.5616,-3.5616,-3.5616,-3.5616,-3.5616,-3.5616,-3.5616,-3.5616,-3.5616,-3.5616,-3.5752,-3.6242,-3.728,-3.7905,-3.9011,-3.9863,-4.0391,-4.0703,-4.1246,-4.181,-4.24,-4.2789,-4.3014,-4.3105,-4.3214,-4.3444,-4.3479,-4.3497,-4.3608,-4.4232,-4.4837,-4.5406,-4.647,-4.7259,-4.7645,-4.8067,-4.8306,-4.8324,-4.8324,-4.8324,-4.8324,-4.8324,-4.8324,-4.8324,-4.8343,-4.8563,-4.9003,-4.9719,-5.049,-5.1206,-5.161,-5.2121,-5.2697,-5.2526,-5.1862,-5.1164,-5.0445,-4.9751,-4.9094,-4.9018,-4.9018,-4.9018,-4.9018,-4.9018,-4.9018,-4.9018,-4.9018,-4.9018,-4.9018,-4.9018,-4.9018,-4.9018,-4.9018,-4.9018,-4.9018,-4.9018,-4.8909,-4.8688,-4.8193,-4.7803,-4.8295,-4.8421,-4.7675,-4.7407,-4.7756,-3.9165,-3.9085,-3.8869,-3.8747,-3.8689,-3.8707,-3.8692,-3.8707,-3.8692,-3.8382,-3.7997,-3.8251,-3.7964,-3.736,-3.7097,-3.6884,-3.6437,-3.6457,-3.6481,-3.627,-3.5989,-3.5778,-3.5622,-3.5616,-3.5616,-3.5616,-3.5616,-3.5616,-3.5616,-3.5616,-3.5616,-3.5616,-3.5616,-3.5616,-3.5616,-3.5616,-3.5616,-3.5616,-3.5616,-3.5633,-3.6146,-3.721,-3.8163,-3.8397,-3.9661,-4.0662,-4.1041,-4.1335,-4.1789,-4.2382,-4.2826,-4.305,-4.341,-4.3479,-4.3479,-4.3479,-4.3479,-4.3552,-4.392,-4.4525,-4.5388,-4.6104,-4.6874,-4.7608,-4.8031,-4.8233,-4.8324,-4.8324,-4.8324,-4.8324,-4.8324,-4.8324,-4.8324,-4.8379,-4.8508,-4.8857,-4.9574,-5.0308,-5.1132,-5.1701,-5.2032,-5.2409,-5.2892,-5.2266,-5.1512,-5.0981,-5.0269,-4.9622,-4.9032,-4.9001,-4.9018,-4.9018,-4.9018,-4.9018,-4.9018,-4.9018,-4.9018,-4.9018,-4.9018,-4.9018,-4.9018,-4.9018,-4.9018,-4.9018,-4.9018,-4.9001,-4.897,-4.8545,-4.7671,-4.7564,-4.8595,-4.8429,-4.706,-4.7298,-4.8105,-3.9383,-3.9099,-3.9058,-3.8923,-3.8704,-3.8707,-3.8707,-3.8707,-3.8707,-3.8399,-3.798,-3.7963,-3.7773,-3.7341,-3.7229,-3.6921,-3.6704,-3.6865,-3.6865,-3.6539,-3.6308,-3.6028,-3.5711,-3.5616,-3.5711,-3.5734,-3.5689,-3.5616,-3.5616,-3.5616,-3.5616,-3.5616,-3.5616,-3.5616,-3.5616,-3.5616,-3.5616,-3.5616,-3.5633,-3.596,-3.6695,-3.7911,-3.8836,-3.965,-4.0695,-4.1552,-4.1707,-4.2021,-4.2519,-4.2693,-4.3178,-4.341,-4.3479,-4.3479,-4.3479,-4.3479,-4.3552,-4.3828,-4.4452,-4.5278,-4.6012,-4.6801,-4.7571,-4.8104,-4.8288,-4.8324,-4.8324,-4.8324,-4.8324,-4.8324,-4.8324,-4.8324,-4.8324,-4.86,-4.8948,-4.9335,-4.9922,-5.082,-5.1665,-5.1974,-5.2221,-5.2517,-5.2915,-5.1988,-5.1112,-5.0635,-5.0118,-4.9479,-4.9063,-4.9032,-4.9018,-4.9018,-4.9018,-4.9018,-4.9018,-4.9018,-4.9018,-4.9018,-4.9018,-4.9018,-4.9018,-4.9018,-4.9018,-4.9018,-4.9018,-4.8719,-4.8338,-4.7737,-4.6884,-4.7163,-4.8093,-4.7265,-4.586,-4.6796,-4.8357,-3.9832,-3.9364,-3.9192,-3.8947,-3.8723,-3.8707,-3.8707,-3.8707,-3.8692,-3.8578,-3.8364,-3.8332,-3.8065,-3.7649,-3.7596,-3.7488,-3.7323,-3.7488,-3.7323,-3.6823,-3.658,-3.627,-3.6118,-3.6054,-3.6071,-3.6054,-3.5989,-3.5854,-3.5739,-3.5644,-3.5616,-3.5616,-3.5622,-3.5616,-3.5616,-3.5616,-3.5616,-3.5718,-3.6028,-3.6434,-3.7143,-3.8379,-3.9492,-3.9857,-4.1165,-4.1923,-4.2358,-4.25,-4.2883,-4.3087,-4.3445,-4.3479,-4.3479,-4.3479,-4.3479,-4.3533,-4.3975,-4.436,-4.4782,-4.5883,-4.6617,-4.7131,-4.7791,-4.8269,-4.8324,-4.8324,-4.8324,-4.8324,-4.8324,-4.8324,-4.8324,-4.8324,-4.8636,-4.8967,-4.9427,-5.018,-5.0674,-5.1295,-5.2006,-5.2196,-5.2281,-5.2336,-5.2307,-5.1611,-5.0823,-5.0324,-4.985,-4.9286,-4.9032,-4.9032,-4.9018,-4.9018,-4.9018,-4.9018,-4.9018,-4.9018,-4.9018,-4.9018,-4.9018,-4.9018,-4.9018,-4.9018,-4.9018,-4.9018,-4.9018,-4.8545,-4.7836,-4.7737,-4.7688,-4.7608,-4.7505,-4.6953,-4.6521,-4.7252,-4.8383,-4.0184,-3.9709,-3.9352,-3.9068,-3.8803,-3.8735,-3.8707,-3.8707,-3.8707,-3.8707,-3.8707,-3.8658,-3.8382,-3.8047,-3.8015,-3.8015,-3.7859,-3.8032,-3.779,-3.7341,-3.6884,-3.6643,-3.6522,-3.6519,-3.6437,-3.6583,-3.6374,-3.627,-3.6122,-3.5898,-3.5805,-3.5644,-3.581,-3.5717,-3.5644,-3.5622,-3.5667,-3.5927,-3.6796,-3.7325,-3.79,-3.9347,-4.0188,-4.093,-4.1742,-4.2731,-4.3098,-4.3247,-4.3524,-4.3705,-4.3572,-4.3497,-4.3479,-4.3479,-4.3681,-4.3938,-4.4562,-4.5168,-4.5663,-4.6415,-4.7076,-4.7516,-4.781,-4.8324,-4.8324,-4.8324,-4.8324,-4.8324,-4.8324,-4.8324,-4.8324,-4.8324,-4.871,-4.9224,-4.9812,-5.0804,-5.1665,-5.2084,-5.2209,-5.2136,-5.2028,-5.1522,-5.1393,-5.1008,-5.05,-5.0016,-4.9563,-4.9107,-4.9018,-4.9018,-4.9018,-4.9018,-4.9018,-4.9018,-4.9018,-4.9018,-4.9018,-4.9018,-4.9018,-4.9018,-4.9018,-4.9018,-4.9018,-4.9018,-4.9018,-4.8465,-4.7836,-4.8242,-4.8582,-4.7975,-4.7553,-4.7739,-4.7824,-4.8286,-4.8285,-4.0319,-4.0051,-3.972,-3.9364,-3.9063,-3.8822,-3.8723,-3.8735,-3.8704,-3.8707,-3.8707,-3.8658,-3.8417,-3.815,-3.8316,-3.8316,-3.7946,-3.8415,-3.8201,-3.779,-3.7397,-3.7173,-3.7039,-3.6845,-3.6724,-3.7001,-3.6845,-3.6843,-3.6862,-3.6563,-3.6161,-3.5717,-3.6075,-3.5963,-3.581,-3.5761,-3.6092,-3.6609,-3.7626,-3.8591,-3.9338,-4.055,-4.1579,-4.2452,-4.3577,-4.4509,-4.4509,-4.4254,-4.4162,-4.4287,-4.3808,-4.3497,-4.3479,-4.3626,-4.3938,-4.4452,-4.5333,-4.5957,-4.6581,-4.6966,-4.7443,-4.7957,-4.8269,-4.8324,-4.8324,-4.8324,-4.8324,-4.8324,-4.8324,-4.8324,-4.8324,-4.8416,-4.893,-4.9646,-5.0398,-5.1242,-5.2068,-5.2656,-5.2678,-5.2263,-5.1765,-5.1223,-5.0554,-5.0202,-5.009,-4.9664,-4.9462,-4.9018,-4.9018,-4.9018,-4.9018,-4.9018,-4.9018,-4.9018,-4.9018,-4.9018,-4.9018,-4.9018,-4.9018,-4.9018,-4.9018,-4.9018,-4.9018,-4.9018,-4.897,-4.8401,-4.8047,-4.8482,-4.8556,-4.7844,-4.7579,-4.7804,-4.7737,-4.7766,-4.7743,-4.0449,-4.0302,-4.0023,-3.972,-3.9396,-3.9063,-3.8947,-3.8909,-3.8777,-3.8707,-3.8707,-3.8692,-3.8596,-3.8515,-3.8546,-3.8611,-3.8415,-3.8562,-3.835,-3.8032,-3.7702,-3.7649,-3.7524,-3.747,-3.7451,-3.756,-3.7379,-3.7173,-3.7133,-3.7173,-3.7039,-3.6766,-3.6563,-3.6291,-3.6118,-3.6229,-3.6717,-3.7647,-3.8581,-3.9461,-4.0362,-4.1486,-4.2406,-4.2732,-4.3397,-4.392,-4.392,-4.3938,-4.3956,-4.3937,-4.3698,-4.3588,-4.3663,-4.3956,-4.4378,-4.4893,-4.5938,-4.6672,-4.7131,-4.7516,-4.7993,-4.8122,-4.8306,-4.8324,-4.8324,-4.8324,-4.8324,-4.8324,-4.8324,-4.8324,-4.8343,-4.8802,-4.9481,-5.0251,-5.1004,-5.1775,-5.2417,-5.2965,-5.2581,-5.1904,-5.1368,-5.0823,-5.0118,-4.9419,-4.9389,-4.9299,-4.9138,-4.9018,-4.9018,-4.9018,-4.9018,-4.9018,-4.9018,-4.9018,-4.9018,-4.9018,-4.9018,-4.9018,-4.9018,-4.9018,-4.9018,-4.9018,-4.9018,-4.9018,-4.9018,-4.8688,-4.8608,-4.8798,-4.8739,-4.8539,-4.8148,-4.7822,-4.7679,-4.748,-4.7362,-4.0496,-4.0473,-4.0285,-4.0033,-3.9712,-3.9389,-3.9238,-3.9205,-3.8952,-3.8762,-3.8689,-3.8707,-3.8707,-3.8707,-3.8707,-3.8707,-3.8643,-3.8658,-3.8465,-3.82,-3.7997,-3.8013,-3.803,-3.798,-3.7877,-3.8048,-3.7929,-3.772,-3.7773,-3.7842,-3.7737,-3.7506,-3.7135,-3.6884,-3.6736,-3.7106,-3.7676,-3.8568,-3.9816,-4.048,-4.1332,-4.2282,-4.2922,-4.3086,-4.3668,-4.3994,-4.4048,-4.4103,-4.4066,-4.3938,-4.3754,-4.3681,-4.3956,-4.4397,-4.4893,-4.5608,-4.6342,-4.7149,-4.7553,-4.7865,-4.8268,-4.8324,-4.8324,-4.8324,-4.8324,-4.8324,-4.8324,-4.8324,-4.8324,-4.8398,-4.8563,-4.9243,-5.0106,-5.0875,-5.1371,-5.2068,-5.2656,-5.3124,-5.2266,-5.1469,-5.1034,-5.0662,-4.9809,-4.9168,-4.9182,-4.9152,-4.9107,-4.9018,-4.9018,-4.9018,-4.9018,-4.9018,-4.9018,-4.9018,-4.9018,-4.9018,-4.9018,-4.9018,-4.9018,-4.9018,-4.9018,-4.9018,-4.9018,-4.9018,-4.9018,-4.9018,-4.912,-4.9224,-4.9396,-4.951,-4.9128,-4.8723,-4.8022,-4.7843,-4.745,-4.0496,-4.0496,-4.0481,-4.0311,-4.0052,-3.9724,-3.9587,-3.9552,-3.9244,-3.8961,-3.8743,-3.8732,-3.8704,-3.8704,-3.8707,-3.8707,-3.8707,-3.8707,-3.8643,-3.8496,-3.8234,-3.8283,-3.8334,-3.8283,-3.8234,-3.8449,-3.8318,-3.8234,-3.8496,-3.8183,-3.82,-3.8372,-3.8073,-3.7739,-3.7391,-3.8402,-3.8995,-3.9408,-4.1227,-4.1844,-4.2372,-4.301,-4.3284,-4.3503,-4.3904,-4.4195,-4.4195,-4.4195,-4.4158,-4.4121,-4.3718,-4.3828,-4.447,-4.4709,-4.5461,-4.6709,-4.6966,-4.7516,-4.8159,-4.8269,-4.8287,-4.8324,-4.8324,-4.8324,-4.8324,-4.8324,-4.8324,-4.8324,-4.8416,-4.8802,-4.9206,-4.9794,-5.0749,-5.1353,-5.1848,-5.2344,-5.2949,-5.2915,-5.206,-5.1292,-5.1008,-5.0653,-4.9681,-4.9032,-4.9032,-4.9032,-4.9001,-4.9018,-4.9018,-4.9018,-4.9018,-4.9018,-4.9018,-4.9018,-4.9018,-4.9018,-4.9018,-4.9018,-4.9018,-4.9018,-4.9018,-4.9018,-4.9018,-4.9018,-4.9018,-4.9018,-4.9289,-4.9576,-4.9901,-5.0192,-5.0176,-4.9771,-4.8932,-4.8072,-4.7581,-4.0496,-4.0496,-4.0496,-4.0457,-4.033,-4.0062,-3.9922,-3.988,-3.9576,-3.9257,-3.9013,-3.8957,-3.884,-3.8747,-3.8704,-3.8704,-3.8707,-3.8707,-3.8707,-3.8658,-3.8465,-3.8546,-3.8596,-3.8546,-3.8496,-3.8611,-3.8481,-3.8449,-3.8643,-3.8415,-3.8481,-3.8651,-3.8974,-3.8947,-3.8653,-3.912,-3.9604,-4.1025,-4.2035,-4.2508,-4.3056,-4.3349,-4.3497,-4.3515,-4.3828,-4.3975,-4.3993,-4.3993,-4.3993,-4.403,-4.3589,-4.4011,-4.4745,-4.5094,-4.6012,-4.7058,-4.7461,-4.7994,-4.8269,-4.8306,-4.8324,-4.8324,-4.8324,-4.8324,-4.8324,-4.8324,-4.8324,-4.8489,-4.882,-4.9243,-4.9537,-5.073,-5.1612,-5.1867,-5.2307,-5.2747,-5.3085,-5.2599,-5.1952,-5.1223,-5.077,-5.0146,-4.9316,-4.9032,-4.9018,-4.9018,-4.9018,-4.9018,-4.9018,-4.9018,-4.9018,-4.9018,-4.9018,-4.9018,-4.9018,-4.9018,-4.9018,-4.9018,-4.9018,-4.9018,-4.9018,-4.9018,-4.9018,-4.9018,-4.9018,-4.9035,-4.9526,-5.0038,-5.0491,-5.0801,-5.0561,-4.9758,-4.8486,-4.7807,-4.7467,-4.0496,-4.0496,-4.0496,-4.0496,-4.0473,-4.0294,-4.0186,-4.0062,-3.9851,-3.9587,-3.9314,-3.9282,-3.9117,-3.8909,-3.8844,-3.8732,-3.8704,-3.8707,-3.8707,-3.8707,-3.8692,-3.8692,-3.8692,-3.8707,-3.8643,-3.8707,-3.8707,-3.8707,-3.8707,-3.8707,-3.8875,-3.9258,-3.9662,-3.9995,-4.0048,-4.0557,-4.0881,-4.2035,-4.2561,-4.2983,-4.3331,-4.3479,-4.3479,-4.3479,-4.3534,-4.3516,-4.3497,-4.3479,-4.3497,-4.3552,-4.3828,-4.4268,-4.5076,-4.5865,-4.6673,-4.7461,-4.7921,-4.8288,-4.8306,-4.8324,-4.8324,-4.8324,-4.8324,-4.8324,-4.8324,-4.8324,-4.8581,-4.8857,-4.9335,-4.9904,-5.0492,-5.172,-5.2068,-5.2325,-5.2632,-5.3072,-5.2688,-5.2224,-5.1643,-5.0938,-5.0362,-4.9693,-4.9152,-4.9077,-4.9018,-4.9018,-4.9018,-4.9018,-4.9018,-4.9018,-4.9018,-4.9018,-4.9018,-4.9018,-4.9018,-4.9018,-4.9018,-4.9018,-4.9018,-4.9018,-4.9018,-4.9018,-4.9018,-4.9018,-4.9018,-4.9204,-4.9915,-5.0448,-5.076,-5.0754,-5.0505,-4.9488,-4.8057,-4.7566,-4.7309,-4.0496,-4.0496,-4.0496,-4.0496,-4.0489,-4.0473,-4.0347,-4.012,-4.0139,-3.9922,-3.9622,-3.9611,-3.9445,-3.9147,-3.908,-3.899,-3.8807,-3.8765,-3.8735,-3.8719,-3.8719,-3.8704,-3.8707,-3.8707,-3.8707,-3.8707,-3.8707,-3.8707,-3.8707,-3.8946,-3.9294,-3.9735,-4.0157,-4.0824,-4.1505,-4.1946,-4.2145,-4.2636,-4.3002,-4.3313,-4.3479,-4.3479,-4.3479,-4.3479,-4.3479,-4.3479,-4.3479,-4.3479,-4.357,-4.3791,-4.425,-4.5057,-4.5865,-4.6673,-4.7461,-4.8049,-4.8269,-4.8306,-4.8324,-4.8324,-4.8324,-4.8324,-4.8324,-4.8324,-4.8324,-4.8361,-4.8636,-4.9169,-4.9739,-5.0692,-5.161,-5.2032,-5.2417,-5.2669,-5.2898,-5.2769,-5.2294,-5.1741,-5.1146,-5.0564,-5.0072,-4.9534,-4.9168,-4.9001,-4.9018,-4.9018,-4.9018,-4.9018,-4.9018,-4.9018,-4.9018,-4.9018,-4.9018,-4.9018,-4.9018,-4.9018,-4.9018,-4.9018,-4.9018,-4.9018,-4.9018,-4.9018,-4.9018,-4.9018,-4.9018,-4.9407,-5.0304,-5.069,-5.0842,-5.0749,-5.045,-4.9449,-4.8099,-4.7566,-4.7309,-4.0496,-4.0496,-4.0496,-4.0496,-4.0496,-4.0496,-4.0457,-4.0381,-4.0381,-4.0232,-3.9962,-3.9943,-3.9765,-3.945,-3.9199,-3.9236,-3.9127,-3.8984,-3.8913,-3.8855,-3.8803,-3.8735,-3.8707,-3.8707,-3.8707,-3.8707,-3.8707,-3.8707,-3.8854,-3.9148,-3.9551,-3.9918,-4.0928,-4.1791,-4.2323,-4.2855,-4.2983,-4.3112,-4.3386,-4.3442,-4.3479,-4.3479,-4.3479,-4.3479,-4.3479,-4.3479,-4.3479,-4.3552,-4.3736,-4.4342,-4.4562,-4.526,-4.6691,-4.7003,-4.7443,-4.8177,-4.8306,-4.8324,-4.8324,-4.8324,-4.8324,-4.8324,-4.8324,-4.8324,-4.8324,-4.8489,-4.8783,-4.9462,-5.0233,-5.1187,-5.1977,-5.2435,-5.2729,-5.2944,-5.2977,-5.2531,-5.2,-5.1325,-5.0725,-5.0129,-4.9664,-4.9419,-4.9032,-4.9018,-4.9018,-4.9018,-4.9018,-4.9018,-4.9018,-4.9018,-4.9018,-4.9018,-4.9018,-4.9018,-4.9018,-4.9018,-4.9018,-4.9018,-4.9018,-4.9018,-4.9018,-4.9018,-4.9018,-4.9052,-4.9137,-4.9864,-5.0879,-5.1127,-5.1245,-5.0692,-5.0288,-4.9256,-4.835,-4.7694,-4.7309,-4.0496,-4.0496,-4.0496,-4.0496,-4.0496,-4.0496,-4.0496,-4.0496,-4.0496,-4.0408,-4.0258,-4.025,-4.0091,-3.9808,-3.9611,-3.9541,-3.9529,-3.9294,-3.9136,-3.8985,-3.8952,-3.8818,-3.8747,-3.8704,-3.8707,-3.8707,-3.8707,-3.8707,-3.8964,-3.9533,-4.0026,-4.102,-4.2029,-4.2396,-4.2818,-4.3185,-4.3387,-4.3424,-4.3479,-4.3479,-4.3479,-4.3479,-4.3479,-4.3479,-4.3479,-4.3479,-4.3552,-4.3663,-4.425,-4.4856,-4.504,-4.6012,-4.7149,-4.7351,-4.7645,-4.8288,-4.8324,-4.8324,-4.8324,-4.8324,-4.8324,-4.8324,-4.8343,-4.8545,-4.8765,-4.8985,-4.9444,-5.0013,-5.082,-5.161,-5.227,-5.2858,-5.3002,-5.3185,-5.2769,-5.2335,-5.1667,-5.0964,-5.0307,-4.9693,-4.9359,-4.9138,-4.9018,-4.9018,-4.9018,-4.9018,-4.9018,-4.9018,-4.9018,-4.9018,-4.9018,-4.9018,-4.9018,-4.9018,-4.9018,-4.9018,-4.9018,-4.9018,-4.9018,-4.9018,-4.9018,-4.9018,-4.9018,-4.9137,-4.9306,-5.0152,-5.1048,-5.1475,-5.1581,-5.0928,-5.0165,-4.9271,-4.8392,-4.7581,-4.7309,-4.0534,-4.0518,-4.0527,-4.0519,-4.0496,-4.0496,-4.0496,-4.0496,-4.0496,-4.0489,-4.0481,-4.0489,-4.0347,-4.012,-4.0002,-3.9891,-3.9778,-3.9587,-3.9396,-3.9173,-3.9178,-3.9087,-3.8946,-3.8792,-3.8873,-3.8807,-3.8787,-3.8902,-3.9126,-3.9918,-4.113,-4.2268,-4.2451,-4.2763,-4.3259,-4.3387,-4.3479,-4.3479,-4.3479,-4.3479,-4.3479,-4.3479,-4.3479,-4.3479,-4.3479,-4.3497,-4.3699,-4.4121,-4.4727,-4.5278,-4.6012,-4.6929,-4.7443,-4.781,-4.8159,-4.8269,-4.8306,-4.8324,-4.8324,-4.8324,-4.8324,-4.8343,-4.8379,-4.882,-4.917,-4.9335,-4.9701,-5.0637,-5.1481,-5.2068,-5.2711,-5.2926,-5.3091,-5.2959,-5.2576,-5.1898,-5.106,-5.0417,-4.9907,-4.9389,-4.9212,-4.9018,-4.9018,-4.9018,-4.9018,-4.9018,-4.9018,-4.9018,-4.9018,-4.9018,-4.9018,-4.9018,-4.9018,-4.9018,-4.9018,-4.9018,-4.9018,-4.9018,-4.9018,-4.9018,-4.9018,-4.9018,-4.9018,-4.9187,-4.9407,-5.0219,-5.0982,-5.1508,-5.1613,-5.0802,-5.0048,-4.9311,-4.8475,-4.7538,-4.7309,-4.0676,-4.0704,-4.0678,-4.0589,-4.0504,-4.0496,-4.0496,-4.0496,-4.0496,-4.0496,-4.0496,-4.0489,-4.0473,-4.0372,-4.0195,-4.012,-4.0166,-3.9874,-3.9746,-3.9705,-3.9637,-3.9608,-3.9439,-3.9418,-3.929,-3.9082,-3.9064,-3.929,-3.98,-4.0836,-4.1791,-4.2359,-4.2745,-4.3277,-4.3442,-4.3479,-4.3479,-4.3479,-4.3479,-4.3479,-4.3479,-4.3479,-4.3479,-4.3479,-4.3479,-4.3534,-4.3791,-4.4305,-4.5002,-4.57,-4.6526,-4.7314,-4.7975,-4.8214,-4.8306,-4.8324,-4.8324,-4.8324,-4.8324,-4.8324,-4.8361,-4.8618,-4.882,-4.9224,-4.9519,-4.9574,-5.0124,-5.1187,-5.2013,-5.2564,-5.2928,-5.3054,-5.302,-5.2702,-5.2399,-5.1444,-5.049,-4.9936,-4.9432,-4.9243,-4.9063,-4.9018,-4.9018,-4.9018,-4.9018,-4.9018,-4.9018,-4.9018,-4.9018,-4.9018,-4.9018,-4.9018,-4.9018,-4.9018,-4.9018,-4.9018,-4.9018,-4.9018,-4.9018,-4.9018,-4.9018,-4.9018,-4.9035,-4.9238,-4.9576,-5.0405,-5.1166,-5.1809,-5.1642,-5.0741,-5.0126,-4.9472,-4.835,-4.7352,-4.7309,-4.0729,-4.0772,-4.0747,-4.0676,-4.0603,-4.0582,-4.0559,-4.0504,-4.0496,-4.0496,-4.0496,-4.0496,-4.0496,-4.0496,-4.0339,-4.0294,-4.0422,-4.0156,-4.0043,-4.0031,-4.0285,-4.0321,-4.0227,-4.0129,-4.0119,-3.9902,-3.9735,-3.9962,-4.0633,-4.1497,-4.2323,-4.2799,-4.3331,-4.3496,-4.3496,-4.3479,-4.3479,-4.3479,-4.3479,-4.3479,-4.3479,-4.3479,-4.3479,-4.3479,-4.3516,-4.3626,-4.425,-4.4819,-4.5608,-4.6416,-4.7223,-4.77,-4.8158,-4.8288,-4.8306,-4.8324,-4.8324,-4.8324,-4.8324,-4.8379,-4.8508,-4.8912,-4.9243,-4.961,-5.0804,-5.0932,-5.0949,-5.1922,-5.2472,-5.3023,-5.3078,-5.3146,-5.2791,-5.2445,-5.2154,-5.1544,-5.05,-4.9622,-4.9316,-4.9107,-4.9018,-4.9018,-4.9018,-4.9018,-4.9018,-4.9018,-4.9018,-4.9018,-4.9018,-4.9018,-4.9018,-4.9018,-4.9018,-4.9018,-4.9018,-4.9018,-4.9018,-4.9018,-4.9018,-4.9018,-4.9018,-4.9018,-4.9069,-4.9323,-4.9813,-5.0625,-5.1352,-5.2097,-5.1654,-5.0742,-5.0204,-4.9734,-4.846,-4.7309,-4.7309,-4.0729,-4.0751,-4.08,-4.0794,-4.0718,-4.0726,-4.0661,-4.0554,-4.053,-4.0523,-4.0515,-4.0512,-4.0496,-4.0496,-4.0496,-4.0496,-4.0465,-4.037,-4.0294,-4.0452,-4.0979,-4.0777,-4.076,-4.0881,-4.0828,-4.0764,-4.0592,-4.097,-4.1551,-4.2385,-4.3041,-4.3471,-4.3565,-4.3548,-4.3496,-4.3479,-4.3479,-4.3479,-4.3479,-4.3479,-4.3479,-4.3479,-4.3479,-4.3497,-4.3663,-4.403,-4.4727,-4.5572,-4.636,-4.7003,-4.7681,-4.8067,-4.8232,-4.8324,-4.8324,-4.8324,-4.8324,-4.8324,-4.8361,-4.8545,-4.8948,-4.939,-4.9665,-5.0437,-5.1628,-5.205,-5.2087,-5.2362,-5.2931,-5.3133,-5.3167,-5.2959,-5.2576,-5.1994,-5.1692,-5.1401,-5.0335,-4.9389,-4.9182,-4.9018,-4.9018,-4.9018,-4.9018,-4.9018,-4.9018,-4.9018,-4.9018,-4.9018,-4.9018,-4.9018,-4.9018,-4.9018,-4.9018,-4.9018,-4.9018,-4.9018,-4.9018,-4.9018,-4.9018,-4.9018,-4.9018,-4.9018,-4.9154,-4.9492,-5.0067,-5.0913,-5.1742,-5.2503,-5.1756,-5.0779,-5.0358,-4.9773,-4.824,-4.7309,-4.7309,-4.0836,-4.0942,-4.0955,-4.0896,-4.0796,-4.0788,-4.0775,-4.0738,-4.0665,-4.0655,-4.063,-4.0537,-4.0496,-4.0496,-4.0496,-4.0496,-4.0496,-4.0516,-4.0516,-4.0575,-4.1419,-4.118,-4.1194,-4.1762,-4.1485,-4.1345,-4.1387,-4.1996,-4.2426,-4.3185,-4.3692,-4.3881,-4.3881,-4.3756,-4.3496,-4.3479,-4.3479,-4.3479,-4.3479,-4.3479,-4.3533,-4.3533,-4.3479,-4.3718,-4.414,-4.4452,-4.5021,-4.614,-4.6727,-4.7278,-4.781,-4.8196,-4.8324,-4.8324,-4.8324,-4.8324,-4.8324,-4.8416,-4.8526,-4.8912,-4.9427,-4.9959,-5.0437,-5.1334,-5.2215,-5.2656,-5.2711,-5.2821,-5.3167,-5.3167,-5.3103,-5.2684,-5.2247,-5.1292,-5.0716,-5.0417,-4.978,-4.9346,-4.9063,-4.9018,-4.9018,-4.9018,-4.9018,-4.9018,-4.9018,-4.9018,-4.9018,-4.9018,-4.9018,-4.9018,-4.9018,-4.9018,-4.9018,-4.9018,-4.9018,-4.9018,-4.9018,-4.9018,-4.9018,-4.9018,-4.9018,-4.9018,-4.9204,-4.9644,-5.0388,-5.1268,-5.208,-5.2773,-5.1926,-5.1021,-5.0589,-4.9813,-4.8198,-4.7309,-4.7309]},{"header":{"parameterUnit":"m.s-1","parameterCategory":1,"la1":31.0,"la2":29.5877,"lo1":-88.7671,"lo2":-86.6584,"dx":0.0162,"dy":0.0185,"nx":115,"ny":88,"refTime":"2023-01-05T06:00:00:Z","depth":0,"parameterNumber":3,"parameterNumberName":"V-component_of_WINDS"},"data":[0.0,0.0,0.0,0.0,0.0,0.0,0.0,0.0,0.0,0.0,0.0,0.0,0.0,0.0,0.0,0.0,0.0,0.0,0.0,0.0,0.0,0.0,0.0,0.0,0.0,0.0,0.0,0.0,0.0,0.0,0.0,0.0,0.0,0.0,0.0,0.0,0.0,0.0,0.0,0.0,0.0,0.0,0.0,0.0,0.0,0.0,0.0,0.0,0.0,0.0,0.0,0.0,0.0,0.0,0.0,0.0,0.0,0.0,0.0,0.0,0.0,0.0,0.0,0.0,0.0,0.0,0.0,0.0,0.0,0.0,0.0,0.0,0.0,0.0,0.0,0.0,0.0,0.0,0.0,0.0,0.0,0.0,0.0,0.0,0.0,0.0,0.0,0.0,0.0,0.0,0.0,0.0,0.0,0.0,0.0,0.0,0.0,0.0,0.0,0.0,0.0,0.0,0.0,0.0,0.0,0.0,0.0,0.0,0.0,0.0,0.0,0.0,0.0,0.0,0.0,0.0,0.0,0.0,0.0,0.0,0.0,0.0,0.0,0.0,0.0,0.0,0.0,0.0,0.0,0.0,0.0,0.0,0.0,0.0,0.0,0.0,0.0,0.0,0.0,0.0,0.0,0.0,0.0,0.0,0.0,0.0,0.0,0.0,0.0,0.0,0.0,0.0,0.0,0.0,0.0,0.0,0.0,0.0,0.0,0.0,0.0,0.0,0.0,0.0,0.0,0.0,0.0,0.0,0.0,0.0,0.0,0.0,0.0,0.0,0.0,0.0,0.0,0.0,0.0,0.0,0.0,0.0,0.0,0.0,0.0,0.0,0.0,0.0,0.0,0.0,0.0,0.0,0.0,0.0,0.0,0.0,0.0,0.0,0.0,0.0,0.0,0.0,0.0,0.0,0.0,0.0,0.0,0.0,0.0,0.0,0.0,0.0,0.0,0.0,0.0,0.0,0.0,0.0,0.0,0.0,0.0,0.0,0.0,0.0,0.0,0.0,0.0,0.0,0.0,0.0,0.0,0.0,0.0,0.0,0.0,0.0,0.0,0.0,0.0,0.0,0.0,0.0,0.0,0.0,0.0,0.0,0.0,0.0,0.0,0.0,0.0,0.0,0.0,0.0,0.0,0.0,0.0,0.0,0.0,0.0,0.0,0.0,0.0,0.0,0.0,0.0,0.0,0.0,0.0,0.0,0.0,0.0,0.0,0.0,0.0,0.0,0.0,0.0,0.0,0.0,0.0,0.0,0.0,0.0,0.0,0.0,0.0,0.0,0.0,0.0,0.0,0.0,0.0,0.0,0.0,0.0,0.0,0.0,0.0,0.0,0.0,0.0,0.0,0.0,0.0,0.0,0.0,0.0,0.0,0.0,0.0,0.0,0.0,0.0,0.0,0.0,0.0,0.0,0.0,0.0,0.0,0.0,0.0,0.0,0.0,0.0,0.0,0.0,0.0,0.0,0.0,0.0,0.0,0.0,0.0,0.0,0.0,0.0,0.0,0.0,0.0,0.0,0.0,0.0,0.0,0.0,0.0,0.0,0.0,0.0,0.0,0.0,0.0,0.0,0.0,0.0,0.0,0.0,0.0,0.0,0.0,0.0,0.0,0.0,0.0,0.0,0.0,0.0,0.0,0.0,0.0,0.0,0.0,0.0,0.0,0.0,0.0,0.0,0.0,0.0,0.0,0.0,0.0,0.0,0.0,0.0,0.0,0.0,0.0,0.0,0.0,0.0,0.0,0.0,0.0,0.0,0.0,0.0,0.0,0.0,0.0,0.0,0.0,0.0,0.0,0.0,0.0,0.0,0.0,0.0,0.0,0.0,0.0,0.0,0.0,0.0,0.0,0.0,0.0,0.0,0.0,0.0,0.0,0.0,0.0,0.0,0.0,0.0,0.0,0.0,0.0,0.0,0.0,0.0,0.0,0.0,0.0,0.0,0.0,0.0,0.0,0.0,0.0,0.0,0.0,0.0,0.0,0.0,0.0,0.0,0.0,0.0,0.0,0.0,0.0,0.0,0.0,0.0,0.0,0.0,0.0,0.0,0.0,0.0,0.0,0.0,0.0,0.0,0.0,0.0,0.0,0.0,0.0,0.0,0.0,0.0,0.0,0.0,0.0,0.0,0.0,0.0,0.0,0.0,0.0,0.0,0.0,0.0,0.0,0.0,0.0,0.0,0.0,0.0,0.0,0.0,0.0,0.0,0.0,0.0,0.0,0.0,0.0,0.0,0.0,0.0,0.0,0.0,0.0,0.0,0.0,0.0,0.0,0.0,0.0,0.0,0.0,0.0,0.0,0.0,0.0,0.0,0.0,0.0,0.0,0.0,0.0,0.0,0.0,0.0,0.0,0.0,0.0,0.0,0.0,0.0,0.0,0.0,0.0,0.0,0.0,0.0,0.0,0.0,0.0,0.0,0.0,0.0,0.0,0.0,0.0,0.0,0.0,0.0,0.0,0.0,0.0,0.0,0.0,0.0,0.0,0.0,0.0,0.0,0.0,0.0,0.0,0.0,0.0,0.0,0.0,0.0,0.0,0.0,0.0,0.0,0.0,0.0,0.0,0.0,0.0,0.0,0.0,0.0,0.0,0.0,0.0,0.0,0.0,0.0,0.0,0.0,0.0,0.0,0.0,0.0,0.0,0.0,0.0,0.0,0.0,0.0,0.0,0.0,0.0,0.0,0.0,0.0,0.0,0.0,0.0,0.0,0.0,0.0,0.0,0.0,0.0,0.0,0.0,0.0,0.0,0.0,0.0,0.0,0.0,0.0,0.0,0.0,0.0,0.0,0.0,0.0,0.0,0.0,0.0,0.0,0.0,0.0,0.0,0.0,0.0,0.0,0.0,0.0,0.0,0.0,0.0,0.0,0.0,0.0,0.0,0.0,0.0,0.0,0.0,0.0,0.0,0.0,0.0,0.0,0.0,0.0,0.0,0.0,0.0,0.0,0.0,0.0,0.0,0.0,0.0,0.0,0.0,0.0,0.0,0.0,0.0,0.0,0.0,0.0,0.0,0.0,0.0,0.0,0.0,0.0,0.0,0.0,0.0,0.0,0.0,0.0,0.0,0.0,0.0,0.0,0.0,0.0,0.0,0.0,0.0,0.0,0.0,0.0,0.0,0.0,0.0,0.0,0.0,0.0,0.0,0.0,0.0,0.0,0.0,0.0,0.0,0.0,0.0,0.0,0.0,0.0,0.0,0.0,0.0,0.0,0.0,0.0,0.0,0.0,0.0,0.0,0.0,0.0,0.0,0.0,0.0,0.0,0.0,0.0,0.0,0.0,0.0,0.0,0.0,0.0,0.0,0.0,0.0,0.0,0.0,0.0,0.0,0.0,0.0,0.0,0.0,0.0,0.0,0.0,0.0,0.0,0.0,0.0,0.0,0.0,0.0,0.0,0.0,0.0,0.0,0.0,0.0,0.0,0.0,0.0,0.0,0.0,0.0,0.0,0.0,0.0,0.0,0.0,0.0,0.0,0.0,0.0,0.0,0.0,0.0,0.0,0.0,0.0,0.0,0.0,0.0,0.0,0.0,0.0,0.0,0.0,0.0,0.0,0.0,0.0,0.0,0.0,0.0,0.0,0.0,0.0,0.0,0.0,0.0,0.0,0.0,0.0,0.0,0.0,0.0,0.0,0.0,0.0,0.0,0.0,0.0,0.0,0.0,0.0,0.0,0.0,0.0,0.0,0.0,0.0,0.0,0.0,0.0,0.0,0.0,0.0,0.0,0.0,0.0,0.0,0.0,0.0,0.0,0.0,0.0,0.0,0.0,0.0,0.0,0.0,0.0,0.0,0.0,0.0,0.0,0.0,0.0,0.0,0.0,0.0,0.0,0.0,0.0,0.0,0.0,0.0,0.0,0.0,0.0,0.0,0.0,0.0,0.0,0.0,0.0,0.0,0.0,0.0,0.0,0.0,0.0,0.0,0.0,0.0,0.0,0.0,0.0,0.0,0.0,0.0,0.0,0.0,0.0,0.0,0.0,0.0,0.0,0.0,0.0,0.0,0.0,0.0,0.0,0.0,0.0,0.0,0.0,0.0,0.0,0.0,0.0,0.0,0.0,0.0,0.0,0.0,0.0,0.0,0.0,0.0,0.0,0.0,0.0,0.0,0.0,0.0,0.0,0.0,0.0,0.0,0.0,0.0,0.0,0.0,0.0,0.0,0.0,0.0,0.0,0.0,0.0,0.0,0.0,0.0,0.0,0.0,0.0,0.0,0.0,0.0,0.0,0.0,0.0,0.0,0.0,0.0,0.798,0.0,0.0,0.0,0.9274,0.0,0.0,0.0,0.0,0.0,0.0,0.0,0.0,0.0,0.0,0.0,0.0,0.0,0.0,0.0,0.0,0.0,0.0,0.0,0.0,0.0,0.0,0.0,0.0,0.0,0.0,0.0,0.0,0.0,0.0,0.0,0.0,0.0,0.0,0.0,0.0,0.0,0.0,0.0,0.0,0.0,0.0,0.0,0.0,0.0,0.0,0.0,0.0,0.0,0.0,0.0,0.0,0.0,0.0,0.0,0.0,0.0,0.0,0.0,0.0,0.0,0.0,0.0,0.0,0.0,0.0,0.0,0.0,0.0,0.0,0.0,0.0,0.0,0.0,0.0,0.0,0.0,0.0,0.0,0.0,0.0,0.0,0.0,0.0,0.0,0.0,0.0,0.0,0.0,0.0,0.0,0.0,0.0,0.0,0.0,0.0,0.0,0.0,0.0,0.0,0.0,0.0,0.0,0.0,0.0,0.0,0.0,0.0,0.0,0.0,0.8138,0.8319,0.8698,0.9056,0.9341,0.0,0.0,0.0,0.0,0.0,0.0,0.0,0.0,0.0,0.0,0.0,0.0,0.0,0.0,0.0,0.0,0.0,0.0,0.0,0.0,0.0,0.0,0.0,0.0,0.0,0.0,0.0,0.0,0.0,0.0,0.0,0.0,0.0,0.0,0.0,0.0,0.0,0.0,0.0,0.0,0.0,0.0,0.0,0.0,0.0,0.0,0.0,0.0,0.0,0.0,0.0,0.0,0.0,0.0,0.0,0.0,0.0,0.0,0.0,0.0,0.0,0.0,0.0,0.0,0.0,0.0,0.0,0.0,0.0,0.0,0.0,0.0,0.0,0.0,0.0,0.0,0.0,0.0,0.0,0.0,0.0,0.0,0.0,0.0,0.0,0.0,0.0,0.0,0.0,0.0,0.0,0.0,0.0,0.0,0.0,0.0,0.0,0.0,0.0,0.0,0.0,0.0,0.0,0.0,0.0,0.0,0.0,0.0,0.0,0.0,0.0,0.0,0.882,0.9149,0.9461,0.0,0.0,0.0,0.0,0.0,0.0,0.0,0.0,0.0,0.0,0.0,0.0,0.0,0.0,0.0,0.0,0.0,0.0,0.0,0.0,0.0,0.0,0.0,0.0,0.0,0.0,0.0,0.0,0.0,0.0,0.0,0.0,0.0,0.0,0.0,0.0,0.0,0.0,0.0,0.0,0.0,0.0,0.0,0.0,0.0,0.0,0.0,0.0,0.0,0.0,0.0,0.0,0.0,0.0,0.0,0.0,0.0,0.0,0.0,0.0,0.0,0.0,0.0,0.0,0.0,0.0,0.0,0.0,0.0,0.0,0.0,0.0,0.0,0.0,0.0,0.0,0.0,0.0,0.0,0.0,0.0,0.0,0.0,0.0,0.0,0.0,0.0,0.0,0.0,0.0,0.0,0.0,0.0,0.0,0.0,0.0,0.0,0.0,0.0,0.0,0.0,0.0,0.0,0.0,0.0,0.0,0.0,0.0,0.0,0.0,0.8389,0.8589,0.8916,0.0,0.9658,0.0,0.0,0.0,0.0,0.0,0.0,0.0,0.0,0.0,0.0,0.0,0.0,0.0,0.0,0.0,0.0,0.0,0.0,0.0,0.0,0.0,0.0,0.0,0.0,0.0,0.0,0.0,0.0,0.0,0.0,0.0,0.0,0.0,0.0,0.0,0.0,0.0,0.0,0.0,0.0,0.0,0.0,0.0,0.0,0.0,0.0,0.0,0.0,0.0,0.0,0.0,0.0,0.0,0.0,0.0,0.0,0.0,0.0,0.0,0.0,0.0,0.0,0.0,0.0,0.0,0.0,0.0,0.0,0.0,0.0,0.0,0.0,0.0,0.0,0.0,0.0,0.0,0.0,0.0,0.0,0.0,0.0,0.0,0.0,0.0,0.0,0.0,0.0,0.0,0.0,0.0,0.0,0.0,0.0,0.0,0.0,0.0,0.0,0.0,0.0,0.0,0.0,0.0,0.0,0.0,0.0,0.0,0.0,0.0,0.0,0.8715,0.8946,0.9286,0.9552,0.0,0.0,0.0,0.0,0.0,0.0,0.0,0.0,0.0,0.0,0.0,0.0,0.0,0.0,0.0,0.0,0.0,0.0,0.0,0.0,0.0,0.0,0.0,0.0,0.0,0.0,0.0,0.0,0.0,0.0,0.0,0.0,0.0,0.0,0.0,0.0,0.0,0.0,0.0,0.0,0.0,0.0,0.0,0.0,0.0,0.0,0.0,0.0,0.0,0.0,0.0,0.0,0.0,0.0,0.0,0.0,0.0,0.0,0.0,0.0,0.0,0.0,0.0,0.0,0.0,0.0,0.0,0.0,0.0,0.0,0.0,0.0,0.0,0.0,0.0,0.0,0.0,0.0,0.0,0.0,0.0,0.0,0.0,0.0,0.0,0.0,0.0,0.0,0.0,0.0,0.0,0.0,0.0,0.0,0.0,0.0,0.0,0.0,0.0,0.0,0.0,0.0,0.0,0.0,0.0,0.0,0.0,0.0,0.0,0.0,0.8728,0.9017,0.9299,0.9579,0.9749,0.9789,0.0,0.0,0.0,0.0,0.0,0.0,0.0,0.0,0.0,0.0,0.0,0.0,0.0,0.0,0.0,0.0,0.0,0.0,0.0,0.0,0.0,0.0,0.0,0.0,0.0,0.0,0.0,0.0,0.0,0.0,0.0,0.0,0.0,0.0,0.0,0.0,0.0,0.0,0.0,0.0,0.0,0.0,0.0,0.0,0.0,0.0,0.0,0.0,0.0,0.0,0.0,0.0,0.0,0.0,0.0,0.0,0.0,0.0,0.0,0.0,0.0,0.0,0.0,0.0,0.0,0.0,0.0,0.0,0.0,0.0,0.0,0.0,0.0,0.0,0.0,0.0,0.0,0.0,0.0,0.0,0.0,0.0,0.0,0.0,0.0,0.0,0.0,0.0,0.0,0.0,0.0,0.0,0.0,0.0,0.0,0.0,0.0,0.0,0.0,0.0,0.0,0.0,0.0,0.0,0.0,0.0,0.0,0.0,0.8513,0.8889,0.9244,0.9578,0.9736,0.9789,0.0,0.0,0.0,0.0,0.0,0.0,0.0,0.0,0.0,0.0,0.0,0.0,0.0,0.0,0.0,0.0,0.0,0.0,0.0,0.0,0.0,0.0,0.0,0.0,0.0,0.0,0.0,0.0,0.0,0.0,0.0,0.0,0.0,0.0,0.0,0.0,0.0,0.0,0.0,0.0,0.0,0.0,0.0,0.0,0.0,0.0,0.0,0.0,0.0,0.0,0.0,0.0,0.0,0.0,0.0,0.0,0.0,0.0,0.0,0.0,0.0,0.0,0.0,0.0,0.0,0.0,0.0,0.0,0.0,0.0,0.0,0.0,0.0,0.0,0.0,0.0,0.0,0.0,0.0,0.0,0.0,0.0,0.0,0.0,0.0,0.0,0.0,0.0,0.0,0.0,0.0,0.0,0.0,0.0,0.0,0.0,0.0,0.0,0.0,0.0,0.0,0.0,0.0,0.0,0.0,0.0,0.0,0.0,0.0,0.8875,0.9313,0.9632,0.9788,0.9841,0.9867,0.0,0.0,0.0,0.0,0.0,0.0,0.0,0.0,0.0,0.0,0.0,0.0,0.0,0.0,0.0,0.0,0.0,0.0,0.0,0.0,0.0,0.0,0.0,0.0,0.0,0.0,0.0,0.0,0.0,0.0,0.0,0.0,0.0,0.0,0.0,0.0,0.0,0.0,0.0,0.0,0.0,0.0,0.0,0.0,0.0,0.0,0.0,0.0,0.0,0.0,0.0,0.0,0.0,0.0,0.0,0.0,0.0,0.0,0.0,0.0,0.0,0.0,0.0,0.0,0.0,0.0,0.0,0.0,0.0,0.0,0.0,0.0,0.0,0.0,0.0,0.0,0.0,0.0,0.0,0.0,0.0,0.0,0.0,0.0,0.0,0.0,0.0,0.0,0.0,0.0,0.0,0.0,0.0,0.0,0.0,0.0,0.0,0.0,0.0,0.0,0.0,0.0,0.0,0.0,0.0,0.0,0.0,0.0,0.0,0.9269,0.9605,0.9828,0.9893,0.9893,0.9893,0.0,0.0,0.0,0.0,0.0,0.0,0.0,0.0,0.0,0.0,0.0,0.0,0.0,0.0,0.0,0.0,0.0,0.0,0.0,0.0,0.0,0.0,0.0,0.0,0.0,0.0,0.0,0.0,0.0,0.0,0.0,0.0,0.0,0.0,0.0,0.0,0.0,0.0,0.0,0.0,0.0,0.0,0.0,0.0,0.0,0.0,0.0,0.0,0.0,0.0,0.0,0.0,0.0,0.0,0.0,0.0,0.0,0.0,0.0,0.0,0.0,0.0,0.0,0.0,0.0,0.0,0.0,0.0,0.0,0.0,0.0,0.0,0.0,0.0,0.0,0.0,0.0,0.0,0.0,0.0,0.0,0.0,0.0,0.0,0.0,0.0,0.0,0.0,0.0,0.0,0.0,0.0,0.0,0.0,0.0,0.0,0.0,0.0,0.0,0.0,0.0,0.0,0.0,0.0,0.0,0.0,0.0,0.0,0.904,0.959,0.9749,0.9865,0.9905,0.9931,0.9905,0.0,0.0,0.0,0.0,0.0,0.0,0.0,0.0,0.0,0.0,0.0,0.0,0.0,0.0,0.0,0.0,0.0,0.0,0.0,0.0,0.0,0.0,0.0,0.0,0.0,0.0,0.0,0.0,0.0,0.0,0.0,0.0,0.0,0.0,0.0,0.0,0.0,0.0,0.0,0.0,0.0,0.0,0.0,0.0,0.0,0.0,0.0,0.0,0.0,0.0,0.0,0.0,0.0,0.0,0.0,0.0,0.0,0.0,0.0,0.0,0.0,0.0,0.0,0.0,0.0,0.0,0.0,0.0,0.0,0.0,0.0,0.0,0.0,0.0,0.0,0.0,0.0,0.0,0.0,0.0,0.0,0.0,0.0,0.0,0.0,0.0,0.0,0.0,0.0,0.0,0.0,0.0,0.0,0.0,0.0,0.0,0.0,0.0,0.0,0.0,0.0,0.0,0.0,0.0,0.0,0.0,0.0,0.0,0.0,1.0277,1.0375,1.0429,1.0457,1.0457,1.0269,0.0,0.0,0.0,0.0,0.0,0.0,0.0,0.0,0.0,0.0,0.0,0.0,0.0,0.0,0.0,0.0,0.0,0.0,0.0,0.0,0.0,0.0,0.0,0.0,0.0,0.0,0.0,0.0,0.0,0.0,0.0,0.0,0.0,0.0,0.0,0.0,0.0,0.0,0.0,0.0,0.0,0.0,0.0,0.0,0.0,0.0,0.0,0.0,0.0,0.0,0.0,0.0,0.0,0.0,0.0,0.0,0.0,0.0,0.0,0.0,0.0,0.0,0.0,0.0,0.0,0.0,0.0,0.0,0.0,0.0,0.0,0.0,0.0,0.0,0.0,0.0,0.0,0.0,0.0,0.0,0.0,0.0,0.0,0.0,0.0,0.0,0.0,0.0,0.0,0.0,0.0,0.0,0.0,0.0,0.0,0.0,0.0,0.0,0.0,0.0,0.0,0.0,0.0,0.0,0.0,0.0,0.0,0.0,0.0,1.1532,1.1417,1.132,1.1347,1.1161,1.0784,1.0232,0.0,0.0,0.0,0.0,0.0,0.0,0.0,0.0,0.0,0.0,0.0,0.0,0.0,0.0,0.0,0.0,0.0,0.0,0.0,0.0,0.0,0.0,0.0,0.0,0.0,0.0,0.0,0.0,0.0,0.0,0.0,0.0,0.0,0.0,0.0,0.0,0.0,0.0,0.0,0.0,0.0,0.0,0.0,0.0,0.0,0.0,0.0,0.0,0.0,0.0,0.0,0.0,0.0,0.0,0.0,0.0,0.0,0.0,0.0,0.0,0.0,0.0,0.0,0.0,0.0,0.0,0.0,0.0,0.0,0.0,0.0,0.0,0.0,0.0,0.0,0.0,0.0,0.0,0.0,0.0,0.0,0.0,0.0,0.0,0.0,0.0,0.0,0.0,0.0,0.0,0.0,0.0,0.0,0.0,0.0,0.0,0.0,0.0,0.0,0.0,0.0,0.0,0.0,0.0,0.0,0.0,0.0,0.0,1.3223,1.2814,1.2551,1.2504,1.1992,1.1402,0.0,0.0,0.0,0.0,0.0,0.0,0.0,0.0,0.0,0.0,0.0,0.0,0.0,0.0,0.0,0.0,0.0,0.0,0.0,0.0,0.0,0.0,0.0,0.0,0.0,0.0,0.0,0.0,0.0,0.0,0.0,0.0,0.0,0.0,0.0,0.0,0.0,0.0,0.0,0.0,0.0,0.0,0.0,0.0,0.0,0.0,0.0,0.0,0.0,0.0,0.0,0.0,0.0,0.0,0.0,0.0,0.0,0.0,0.0,0.0,0.0,0.0,0.0,0.0,0.0,0.0,0.0,0.0,0.0,0.0,0.0,0.0,0.0,0.0,0.0,0.0,0.0,0.0,0.0,0.0,0.0,0.0,0.0,0.0,0.0,0.0,0.0,0.0,0.0,0.0,0.0,0.0,0.0,0.0,0.0,0.0,0.0,0.0,0.0,0.0,0.0,0.0,0.0,0.0,0.0,0.0,0.0,0.0,0.0,1.3815,1.4507,1.445,1.3682,1.3183,1.2469,0.0,0.0,0.0,0.0,0.0,0.0,0.0,0.0,0.0,0.0,0.0,0.0,0.0,0.0,0.0,0.0,0.0,0.0,0.0,0.0,0.0,0.0,0.0,0.0,0.0,0.0,0.0,0.0,0.0,0.0,0.0,0.0,0.0,0.0,0.0,0.0,0.0,0.0,0.0,0.0,0.0,0.0,0.0,0.0,0.0,0.0,0.0,0.0,0.0,0.0,0.0,0.0,0.0,0.0,0.0,0.0,0.0,0.0,0.0,0.0,0.0,0.0,0.0,0.0,0.0,0.0,0.0,0.0,0.0,0.0,0.0,0.0,0.0,0.0,0.0,0.0,0.0,0.0,0.0,0.0,0.0,0.0,0.0,0.0,0.0,0.0,0.0,0.0,0.0,0.0,0.0,0.0,0.0,0.0,0.0,0.0,0.0,0.0,0.0,0.0,0.0,0.0,0.0,0.0,0.0,0.0,0.0,0.0,1.3539,1.4425,1.55,1.5853,1.5434,1.4359,1.3246,0.0,0.0,0.0,0.0,0.0,0.0,0.0,0.0,0.0,0.0,0.0,0.0,0.0,0.0,0.0,0.0,0.0,0.0,0.0,0.0,0.0,0.0,0.0,0.0,0.0,0.0,0.0,0.0,0.0,0.0,0.0,0.0,0.0,0.0,0.0,0.0,0.0,0.0,0.0,0.0,0.0,0.0,0.0,0.0,0.0,0.0,0.0,0.0,0.0,0.0,0.0,0.0,0.0,0.0,0.0,0.0,0.0,0.0,0.0,0.0,0.0,0.0,0.0,0.0,0.0,0.0,0.0,0.0,0.0,0.0,0.0,0.0,0.0,0.0,0.0,0.0,0.0,0.0,0.0,0.0,0.0,0.0,0.0,0.0,0.0,0.0,0.0,0.0,0.0,0.0,0.0,0.0,0.0,0.0,0.0,0.0,0.0,0.0,0.0,0.0,0.0,0.0,0.0,0.0,0.0,0.0,0.0,0.0,1.4462,1.5072,1.617,1.7004,1.7423,1.5504,1.3929,0.0,0.0,0.0,0.0,0.0,0.0,0.0,0.0,0.0,0.0,0.0,0.0,0.0,0.0,0.0,0.0,0.0,0.0,0.0,0.0,0.0,0.0,0.0,0.0,0.0,0.0,0.0,0.0,0.0,0.0,0.0,0.0,0.0,0.0,0.0,0.0,0.0,0.0,0.0,0.0,0.0,0.0,0.0,0.0,0.0,0.0,0.0,0.0,0.0,0.0,0.0,0.0,0.0,0.0,0.0,0.0,0.0,0.0,0.0,0.0,0.0,0.0,0.0,0.0,0.0,0.0,0.0,0.0,0.0,0.0,0.0,0.0,0.0,0.0,0.0,0.0,0.0,0.0,0.0,0.0,0.0,0.0,0.0,0.0,0.0,0.0,0.0,0.0,0.0,0.0,0.0,0.0,0.0,0.0,0.0,0.0,0.0,0.0,0.0,0.0,0.0,0.0,0.0,0.0,0.0,0.0,0.0,0.0,1.5198,1.6179,1.7708,1.8604,1.8702,1.6448,1.4906,0.0,0.0,0.0,0.0,0.0,0.0,0.0,0.0,0.0,0.0,0.0,0.0,0.0,0.0,0.0,0.0,0.0,0.0,0.0,0.0,0.0,0.0,0.0,0.0,0.0,0.0,0.0,0.0,0.0,0.0,0.0,0.0,0.0,0.0,0.0,0.0,0.0,0.0,0.0,0.0,0.0,0.0,0.0,0.0,0.0,0.0,0.0,0.0,1.9954,0.0,0.0,0.0,0.0,0.0,0.0,0.0,0.0,0.0,0.0,0.0,0.0,0.0,0.0,0.0,0.0,0.0,0.0,0.0,0.0,0.0,0.0,0.0,0.0,0.0,0.0,0.0,0.0,0.0,0.0,0.0,0.0,0.0,0.0,0.0,0.0,0.0,0.0,0.0,0.0,0.0,0.0,0.0,0.0,0.0,0.0,0.0,0.0,0.0,0.0,0.0,0.0,0.0,0.0,0.0,0.0,0.0,0.0,0.0,1.5668,1.6509,1.8204,1.923,1.9395,1.7894,1.6582,0.0,0.0,0.0,0.0,0.0,0.0,0.0,0.0,0.0,0.0,0.0,0.0,0.0,0.0,0.0,0.0,0.0,0.0,0.0,0.0,0.0,0.0,0.0,0.0,0.0,0.0,0.0,0.0,0.0,0.0,0.0,0.0,0.0,0.0,0.0,0.0,0.0,0.0,0.0,0.0,0.0,0.0,0.0,0.0,0.0,0.0,0.0,0.0,0.0,0.0,0.0,0.0,0.0,0.0,0.0,0.0,0.0,0.0,0.0,0.0,0.0,0.0,0.0,0.0,0.0,0.0,0.0,0.0,0.0,0.0,0.0,0.0,0.0,0.0,0.0,0.0,0.0,0.0,0.0,0.0,0.0,0.0,0.0,0.0,0.0,0.0,0.0,0.0,0.0,0.0,0.0,0.0,0.0,0.0,0.0,0.0,0.0,0.0,0.0,0.0,0.0,0.0,0.0,0.0,0.0,0.0,0.0,1.4751,1.6132,1.6807,1.8464,1.9633,2.0142,1.9456,1.8503,1.7265,0.0,0.0,0.0,0.0,0.0,0.0,0.0,0.0,0.0,0.0,0.0,0.0,0.0,0.0,0.0,0.0,0.0,0.0,0.0,0.0,0.0,0.0,0.0,0.0,0.0,0.0,0.0,0.0,0.0,0.0,0.0,0.0,0.0,0.0,0.0,0.0,0.0,0.0,1.7243,1.8825,0.0,0.0,0.0,0.0,0.0,0.0,0.0,0.0,2.1302,0.0,0.0,0.0,0.0,0.0,0.0,0.0,0.0,0.0,0.0,0.0,0.0,0.0,0.0,0.0,0.0,0.0,0.0,0.0,0.0,0.0,0.0,0.0,0.0,0.0,0.0,0.0,0.0,0.0,0.0,0.0,0.0,0.0,0.0,0.0,0.0,0.0,0.0,0.0,0.0,0.0,0.0,0.0,0.0,0.0,0.0,0.0,0.0,0.0,0.0,0.0,0.0,0.0,0.0,0.0,0.0,1.3795,1.5492,1.6886,1.7915,1.9614,2.0807,2.1342,2.069,1.9975,1.9138,0.0,0.0,0.0,0.0,0.0,0.0,0.0,0.0,0.0,0.0,0.0,0.0,0.0,0.0,0.0,0.0,0.0,0.0,0.0,0.0,0.0,0.0,0.0,0.0,0.0,0.0,0.0,0.0,0.0,0.0,0.0,0.0,0.0,0.0,0.0,0.0,0.0,0.0,0.0,2.002,2.0181,0.0,0.0,0.0,0.0,0.0,0.0,0.0,0.0,2.2062,0.0,0.0,0.0,0.0,0.0,0.0,0.0,0.0,0.0,0.0,0.0,0.0,0.0,0.0,0.0,0.0,0.0,0.0,0.0,0.0,0.0,0.0,0.0,0.0,0.0,0.0,0.0,0.0,0.0,0.0,0.0,0.0,0.0,0.0,0.0,0.0,0.0,0.0,0.0,0.0,0.0,0.0,0.0,0.0,0.0,0.0,0.0,0.0,0.0,0.0,0.0,0.0,0.0,0.0,0.0,1.4519,1.6396,1.7928,1.902,2.0199,2.109,2.1628,2.0901,2.0075,0.0,0.0,0.0,0.0,0.0,0.0,0.0,0.0,0.0,0.0,0.0,0.0,0.0,0.0,0.0,0.0,0.0,0.0,0.0,0.0,0.0,0.0,0.0,0.0,0.0,0.0,0.0,0.0,0.0,0.0,0.0,0.0,0.0,0.0,0.0,0.0,0.0,0.0,0.0,0.0,2.0887,2.1412,2.3127,0.0,0.0,0.0,0.0,0.0,0.0,2.3393,2.2998,0.0,0.0,0.0,0.0,0.0,0.0,0.0,0.0,0.0,0.0,0.0,0.0,0.0,0.0,0.0,0.0,0.0,0.0,0.0,0.0,0.0,0.0,0.0,0.0,0.0,0.0,0.0,0.0,0.0,0.0,0.0,0.0,0.0,0.0,0.0,0.0,0.0,0.0,0.0,0.0,0.0,0.0,0.0,0.0,0.0,0.0,0.0,0.0,0.0,0.0,0.0,0.0,0.0,0.0,0.0,1.5085,1.7124,1.8719,1.9761,2.0321,2.0896,2.1549,2.0643,1.967,0.0,0.0,0.0,0.0,0.0,0.0,0.0,0.0,0.0,0.0,0.0,0.0,0.0,0.0,0.0,0.0,0.0,0.0,0.0,0.0,0.0,0.0,0.0,0.0,0.0,0.0,0.0,0.0,0.0,0.0,0.0,0.0,0.0,0.0,0.0,0.0,0.0,0.0,0.0,0.0,0.0,2.2985,2.5018,2.512,0.0,0.0,0.0,0.0,2.5191,2.4841,0.0,0.0,0.0,0.0,0.0,0.0,0.0,0.0,0.0,0.0,0.0,0.0,0.0,0.0,0.0,0.0,0.0,0.0,0.0,0.0,0.0,0.0,0.0,0.0,0.0,0.0,0.0,0.0,0.0,0.0,0.0,0.0,0.0,0.0,0.0,0.0,0.0,0.0,0.0,0.0,0.0,0.0,0.0,0.0,0.0,0.0,0.0,0.0,0.0,0.0,0.0,0.0,0.0,0.0,0.0,0.0,1.5593,1.7325,1.8731,1.9736,1.9888,2.045,2.1549,2.0123,1.9105,0.0,0.0,0.0,0.0,0.0,0.0,0.0,0.0,0.0,0.0,0.0,0.0,0.0,0.0,0.0,0.0,0.0,0.0,0.0,0.0,0.0,0.0,0.0,0.0,0.0,0.0,0.0,0.0,0.0,0.0,0.0,0.0,0.0,0.0,0.0,0.0,0.0,0.0,0.0,0.0,0.0,2.4406,2.6458,2.6043,2.5556,0.0,0.0,2.6487,2.6487,2.6533,0.0,0.0,0.0,0.0,0.0,0.0,0.0,0.0,0.0,0.0,0.0,0.0,0.0,0.0,0.0,0.0,0.0,0.0,0.0,0.0,0.0,0.0,0.0,0.0,0.0,0.0,0.0,0.0,0.0,0.0,0.0,0.0,0.0,0.0,0.0,0.0,0.0,0.0,0.0,0.0,0.0,0.0,0.0,0.0,0.0,0.0,0.0,0.0,0.0,0.0,0.0,0.0,0.0,0.0,0.0,1.4977,1.6656,1.8267,1.9798,2.1142,2.0641,2.0711,2.1527,2.0235,1.9026,0.0,0.0,0.0,0.0,0.0,0.0,0.0,0.0,0.0,0.0,0.0,0.0,0.0,0.0,0.0,0.0,0.0,0.0,0.0,0.0,0.0,0.0,0.0,0.0,0.0,0.0,0.0,0.0,0.0,0.0,0.0,0.0,0.0,0.0,0.0,0.0,0.0,0.0,0.0,0.0,0.0,0.0,2.7414,2.7216,0.0,0.0,0.0,2.7351,2.7436,0.0,0.0,0.0,0.0,0.0,0.0,0.0,0.0,0.0,0.0,0.0,0.0,0.0,0.0,0.0,0.0,0.0,0.0,0.0,0.0,0.0,0.0,0.0,0.0,0.0,0.0,0.0,0.0,0.0,0.0,0.0,0.0,0.0,0.0,0.0,0.0,0.0,0.0,0.0,0.0,0.0,0.0,0.0,0.0,0.0,0.0,0.0,0.0,0.0,0.0,0.0,0.0,0.0,0.0,0.0,0.0,0.0,1.7385,1.897,2.0614,2.2209,2.1257,2.0943,2.1471,2.0592,0.0,0.0,0.0,0.0,0.0,0.0,0.0,0.0,0.0,0.0,0.0,0.0,0.0,0.0,0.0,0.0,0.0,0.0,0.0,0.0,0.0,0.0,0.0,0.0,0.0,0.0,0.0,1.3441,0.0,0.0,0.0,0.0,0.0,0.0,0.0,0.0,0.0,0.0,0.0,0.0,0.0,0.0,2.6219,2.8101,2.8194,2.835,0.0,0.0,2.8329,2.8488,2.8522,2.8217,0.0,0.0,0.0,0.0,0.0,0.0,0.0,0.0,0.0,0.0,0.0,0.0,0.0,0.0,0.0,0.0,0.0,0.0,0.0,0.0,0.0,0.0,0.0,0.0,0.0,0.0,0.0,0.0,0.0,0.0,0.0,0.0,0.0,0.0,0.0,0.0,0.0,0.0,0.0,0.0,0.0,0.0,0.0,0.0,0.0,0.0,0.0,0.0,0.0,0.0,0.0,0.0,0.0,0.0,0.0,1.7398,1.8982,2.0627,2.218,2.1257,2.0968,2.1483,2.1135,2.0099,0.0,0.0,0.0,0.0,0.0,0.0,0.0,0.0,0.0,0.0,0.0,0.0,0.0,0.0,0.0,0.0,0.0,0.0,0.0,0.0,0.0,0.0,0.0,0.0,0.0,0.0,0.0,0.0,0.0,0.0,0.0,0.0,0.0,0.0,0.0,0.0,0.0,0.0,0.0,0.0,0.0,2.7432,2.8668,2.8787,2.9033,0.0,0.0,2.9676,2.9901,2.9956,2.9409,2.7814,0.0,0.0,0.0,0.0,0.0,0.0,0.0,0.0,0.0,0.0,0.0,0.0,0.0,0.0,0.0,0.0,0.0,0.0,0.0,0.0,0.0,0.0,0.0,0.0,0.0,0.0,0.0,0.0,0.0,0.0,0.0,0.0,0.0,0.0,0.0,0.0,0.0,0.0,0.0,0.0,0.0,0.0,0.0,0.0,0.0,0.0,0.0,0.0,0.0,0.0,0.0,0.0,0.0,1.5889,1.7865,1.9535,2.1142,2.2681,2.2071,2.1619,2.1493,2.1158,2.0295,0.0,0.0,0.0,0.0,0.0,0.0,0.0,0.0,0.0,0.0,0.0,0.0,0.0,0.0,0.0,0.0,0.0,0.0,0.0,0.0,0.0,0.0,0.0,0.0,0.0,0.0,0.0,0.0,1.5978,1.6377,1.6349,0.0,0.0,0.0,0.0,0.0,0.0,0.0,0.0,0.0,0.0,2.7279,2.8403,2.8524,0.0,0.0,2.8918,2.8939,2.9198,2.9617,2.9589,2.8623,2.7467,0.0,0.0,0.0,0.0,0.0,0.0,0.0,0.0,0.0,0.0,0.0,0.0,0.0,0.0,0.0,0.0,0.0,0.0,0.0,0.0,0.0,0.0,0.0,0.0,0.0,0.0,0.0,0.0,0.0,0.0,0.0,0.0,0.0,0.0,0.0,0.0,0.0,0.0,0.0,0.0,0.0,0.0,0.0,0.0,0.0,0.0,0.0,0.0,0.0,0.0,0.0,0.0,1.622,1.8406,1.9937,2.1496,2.307,2.2598,2.2121,2.1744,2.1673,2.1014,0.0,0.0,0.0,0.0,0.0,0.0,0.0,0.0,0.0,0.0,0.0,0.0,0.0,0.0,0.0,0.0,0.0,0.0,0.0,0.0,0.0,0.0,0.0,0.0,0.0,0.0,0.0,0.0,1.6607,1.694,1.6371,0.0,0.0,0.0,0.0,0.0,0.0,0.0,0.0,0.0,0.0,2.7178,2.8039,2.8135,2.8194,2.8434,2.8396,2.8399,2.8533,2.8979,2.9103,2.8519,0.0,0.0,0.0,0.0,0.0,0.0,0.0,0.0,0.0,0.0,0.0,0.0,0.0,0.0,0.0,0.0,0.0,0.0,0.0,0.0,0.0,0.0,0.0,0.0,0.0,0.0,0.0,0.0,0.0,0.0,0.855,0.0,0.0,0.0,0.0,0.0,0.0,0.0,0.0,0.0,0.0,0.0,0.0,0.0,0.0,0.0,0.0,0.0,0.0,0.0,0.0,0.0,0.0,1.6773,1.8945,2.0137,2.1493,2.3045,2.2581,2.2347,2.2334,2.2782,2.2441,2.1171,0.0,0.0,0.0,0.0,0.0,0.0,0.0,0.0,0.0,0.0,0.0,0.0,0.0,0.0,0.0,0.0,0.0,0.0,0.0,0.0,0.0,0.0,0.0,0.0,0.0,0.0,1.4354,1.5609,1.6184,0.0,0.0,0.0,0.0,0.0,0.0,0.0,0.0,0.0,0.0,2.6039,2.728,2.758,2.7666,2.7926,2.8639,2.8513,2.8319,2.8221,2.8214,2.7959,0.0,0.0,0.0,0.0,0.0,0.0,0.0,0.0,0.0,0.0,0.0,0.0,0.0,0.0,0.0,0.0,0.0,0.0,0.0,0.0,0.0,0.0,0.0,0.0,0.0,0.0,0.0,0.9872,0.9917,0.0,0.0,0.0,0.0,0.0,0.0,0.0,0.0,0.0,0.0,0.0,1.2227,1.2486,0.0,0.0,0.0,0.0,0.0,0.0,0.0,0.0,0.0,0.0,0.0,0.0,1.714,1.9008,2.1192,2.2761,2.3678,2.3847,2.3772,2.3439,2.3627,2.3086,2.1774,0.0,0.0,0.0,0.0,0.0,0.0,0.0,0.0,0.0,0.0,0.0,0.0,0.0,0.0,0.0,0.0,0.0,0.0,0.0,0.0,0.0,0.0,0.0,0.0,0.0,1.48,0.0,0.0,0.0,0.0,0.0,0.0,0.0,0.0,0.0,0.0,0.0,2.3096,2.4116,2.502,2.5884,2.6636,2.6755,2.6943,0.0,0.0,0.0,0.0,0.0,0.0,0.0,0.0,0.0,0.0,0.0,0.0,0.0,0.0,2.6502,2.6662,2.7068,2.7269,2.6925,0.0,0.0,0.0,0.0,0.0,0.0,0.0,0.0,0.0,0.0,0.0,0.0,0.0,0.0,1.0951,0.0,1.1013,0.0,0.0,0.0,0.0,0.0,0.0,0.0,0.0,1.2942,1.3234,1.358,1.3854,1.3835,0.0,1.4066,1.3384,0.0,0.0,0.0,0.0,0.0,0.0,0.0,0.0,1.7992,1.9886,2.2004,2.3502,2.4255,2.4612,2.4625,2.4305,2.428,2.3682,2.2436,2.1364,1.9867,0.0,0.0,0.0,0.0,0.0,0.0,0.0,0.0,0.0,0.0,0.0,0.0,0.0,0.0,0.0,0.0,0.0,0.0,0.0,0.0,0.0,0.0,0.0,1.5887,0.0,0.0,0.0,0.0,0.0,0.0,0.0,0.0,0.0,2.0175,2.1778,2.3229,2.4033,2.4654,2.5197,2.5738,0.0,0.0,0.0,0.0,0.0,0.0,0.0,2.7115,2.7411,2.7009,2.6692,2.6901,2.6526,2.6283,2.6519,0.0,0.0,2.7566,2.8155,2.8513,2.8201,2.8084,2.7983,2.7719,2.7961,2.8302,0.0,0.0,0.0,0.0,0.0,0.0,0.0,0.0,1.1911,1.2164,0.0,1.2249,0.0,0.0,0.0,0.0,0.0,1.3541,0.0,0.0,1.5027,1.5205,1.491,1.4957,1.5003,1.5101,1.5059,1.4885,1.4542,1.3604,0.0,0.0,0.0,0.0,0.0,0.0,1.9321,2.143,2.2606,2.371,2.4763,2.485,2.4895,2.4883,2.4825,2.4311,2.3246,2.2841,2.1688,1.9566,1.8302,0.0,0.0,0.0,0.0,0.0,0.0,0.0,0.0,0.0,0.0,0.0,0.0,0.0,0.0,0.0,0.0,0.0,0.0,0.0,0.0,1.5918,0.0,0.0,0.0,0.0,0.0,0.0,0.0,0.0,0.0,0.0,2.0741,2.2262,2.3575,2.4136,0.0,0.0,0.0,0.0,2.6415,2.5932,2.6353,2.671,2.6688,2.6815,2.7053,2.7381,0.0,0.0,2.6973,2.645,2.6262,2.6866,2.7481,2.7819,2.7418,2.7996,2.8492,2.8455,2.8468,2.8679,2.9227,2.9378,2.9669,0.9971,0.0,0.0,0.0,0.0,1.1202,1.2017,1.3198,1.3461,1.3602,1.361,1.3688,0.0,0.0,0.0,0.0,0.0,0.0,1.5243,1.5247,1.5457,1.6077,1.7079,1.7368,1.7711,1.8061,1.8272,1.7886,1.7038,1.7211,1.6299,1.431,0.0,0.0,0.0,0.0,2.025,2.2046,2.3534,2.4669,2.5372,2.5808,2.6021,2.6021,2.5586,2.5222,2.4895,2.3676,2.2403,2.1137,1.9677,0.0,0.0,0.0,0.0,0.0,0.0,0.0,0.0,0.0,0.0,0.0,0.0,0.0,0.0,0.0,0.0,0.0,0.0,0.0,1.7055,1.7645,1.7697,0.0,0.0,0.0,0.0,0.0,0.0,0.0,0.0,0.0,2.1915,2.2457,2.3261,0.0,0.0,2.467,2.5357,2.6104,2.6587,2.6596,2.7007,0.0,0.0,2.7569,2.7589,2.7672,2.7463,2.7124,2.6782,2.6701,2.6768,2.696,2.7154,2.7335,2.7651,2.8309,2.8639,2.8325,2.8972,2.959,2.947,3.0473,3.162,1.1005,1.1175,1.0895,1.1223,1.1913,1.2362,1.3244,1.4377,1.4533,1.4606,1.4641,1.52,1.5478,1.5496,1.5147,0.0,0.0,0.0,1.7044,1.7328,1.7139,1.7556,1.8503,1.8743,1.8835,1.8827,1.9274,1.8913,1.7789,1.9069,1.8647,1.6682,0.0,0.0,1.9216,2.0455,2.1845,2.3258,2.4474,2.5385,2.5937,2.6311,2.6487,2.6487,2.616,2.5858,2.5586,2.4632,2.3532,2.2353,2.129,1.986,0.0,0.0,0.0,0.0,0.0,0.0,0.0,0.0,0.0,0.0,0.0,1.2758,1.3191,0.0,0.0,0.0,1.7049,1.7823,1.8936,1.897,0.0,0.0,0.0,0.0,0.0,0.0,0.0,2.1039,2.2508,2.3304,2.2801,2.3391,2.4012,2.4506,2.479,2.5223,2.5923,0.0,2.7203,2.7181,2.758,2.8023,2.8289,2.8364,2.8343,2.8239,2.8126,2.7818,2.7302,2.7505,2.767,2.7498,2.759,2.7789,2.7888,2.8339,2.8691,2.8707,2.9592,3.0238,2.9868,3.0874,3.1845,1.1969,1.2843,1.2425,1.2439,1.2832,1.3736,1.4442,1.4989,1.5352,1.5389,1.5246,1.6636,1.6874,1.6328,1.7438,0.0,1.9015,1.8748,1.908,1.989,1.9512,1.9421,1.9485,1.9437,1.9036,1.8358,1.8923,1.8695,1.7888,1.9725,2.0147,1.9193,2.0117,2.0856,2.1416,2.258,2.3722,2.4825,2.5347,2.5875,2.6474,2.6487,2.6487,2.6487,2.6487,2.6235,2.5699,2.5611,2.4895,2.3384,2.298,2.2028,2.0347,0.0,0.0,0.0,0.0,0.0,0.0,0.0,0.0,0.0,0.0,0.0,0.0,0.0,0.0,0.0,1.9271,0.0,2.0724,1.9901,0.0,0.0,0.0,1.9086,2.0701,2.0932,2.1131,2.1643,0.0,0.0,2.329,2.456,2.5331,2.4872,2.5731,2.6471,2.6612,2.7398,2.7947,2.7733,2.8162,2.8638,2.9034,2.9271,2.9327,2.9126,2.9026,2.8875,2.8396,2.861,2.8712,2.8357,2.8637,2.8837,2.831,2.8332,2.8518,2.9491,3.0139,3.0583,3.0542,3.0759,3.1241,1.1962,1.2952,1.3429,1.4076,1.4795,1.5043,1.555,1.6248,1.6346,1.6367,1.6371,1.7379,1.8086,1.8657,2.0819,2.0853,1.9278,2.0141,2.0309,1.9921,1.9789,2.0305,2.1252,2.062,2.0526,2.0943,2.0495,2.0298,2.0468,2.0862,2.114,2.127,2.1879,2.2109,2.2119,2.3207,2.433,2.541,2.5536,2.5875,2.6461,2.6487,2.6487,2.6487,2.6487,2.6424,2.6285,2.5858,2.541,2.5008,2.418,2.3157,2.1964,2.027,0.0,0.0,0.0,0.0,0.0,0.0,0.0,0.0,0.0,1.4453,1.5146,0.0,1.7592,0.0,2.0111,2.0982,2.0665,2.0402,0.0,0.0,1.9329,1.9609,2.0413,2.1086,2.1498,2.1462,2.2542,2.3123,2.2605,2.3878,2.4812,2.4837,2.5402,2.6251,2.7465,2.7569,2.7759,2.8462,2.9051,2.9617,3.0124,3.0576,3.0673,3.0281,3.0179,3.003,2.949,2.949,2.9541,2.9415,2.9478,2.9515,2.9415,2.9402,2.9467,2.9766,3.0121,3.0459,3.0459,3.13,3.2165,1.2649,1.396,1.4398,1.5382,1.6581,1.6215,1.6402,1.6989,1.7031,1.7031,1.7076,1.8049,1.9141,2.0344,2.1762,2.1748,2.0718,2.1389,2.1542,2.1322,2.1322,2.1703,2.2414,2.1585,2.1239,2.1302,2.0814,2.0446,2.0209,2.1093,2.1399,2.1111,2.2399,2.2984,2.2891,2.3922,2.4941,2.5963,2.6021,2.6172,2.6474,2.6487,2.6373,2.6122,2.6109,2.6009,2.5737,2.5435,2.5134,2.4883,2.4318,2.3633,2.2795,2.1438,2.0066,0.0,0.0,0.0,0.0,0.0,0.0,0.0,0.0,0.0,0.0,0.0,1.8688,1.926,2.0533,2.1112,2.056,2.0514,2.033,1.9916,1.9975,2.0271,2.1041,2.1724,2.2101,2.2002,2.3073,2.3661,2.3258,2.427,2.517,2.5489,2.5368,2.5957,2.7615,2.7462,2.7593,2.9332,2.9526,2.9779,3.0778,3.1198,3.1298,3.1035,3.0972,3.0859,3.057,3.0708,3.0809,3.0583,3.0696,3.0783,3.0557,3.0507,3.0507,3.0536,3.0661,3.0649,3.0259,3.0773,3.1452,1.344,1.5199,1.5199,1.6271,1.7959,1.7174,1.7109,1.7461,1.7494,1.7593,1.7881,1.8861,2.0164,2.1666,2.1694,2.1958,2.241,2.2422,2.2644,2.3083,2.2987,2.2944,2.2914,2.2002,2.1175,2.043,2.0496,1.9948,1.8958,2.0946,2.13,2.0282,2.2174,2.3257,2.3562,2.4373,2.537,2.6452,2.6487,2.6487,2.6487,2.6424,2.6135,2.5624,2.5536,2.5285,2.4845,2.48,2.4562,2.4142,2.4104,2.3879,2.3333,2.2372,2.1343,0.0,1.971,0.0,0.0,0.0,0.0,0.0,0.0,0.0,0.0,1.9199,1.9684,1.9945,2.0583,2.0845,2.0452,2.0416,2.0455,2.0577,2.0599,2.0977,2.1869,2.2351,2.259,2.259,2.3727,2.4349,2.399,2.4723,2.5461,2.5718,2.5157,2.5378,2.7185,2.6921,2.7204,2.98,2.9434,2.938,3.0538,3.1137,3.1348,3.1365,3.1567,3.1599,3.1625,3.1976,3.2139,3.1763,3.1951,3.2077,3.1599,3.1474,3.1449,3.1336,3.1377,3.1153,3.0272,3.0122,3.0253,1.3411,1.5163,1.5199,1.6298,1.7998,1.7842,1.7812,1.79,1.79,1.8665,1.9964,2.0217,2.1218,2.2735,2.2794,2.2844,2.2957,2.2945,2.3007,2.3078,2.2402,2.2125,2.2032,2.0526,1.9716,1.9584,1.9868,2.0154,2.0392,2.1035,2.145,2.16,2.1296,2.1935,2.3452,0.0,0.0,0.0,2.6487,2.6487,2.6474,2.6034,2.5711,2.5586,2.5184,0.0,2.48,2.48,2.4738,2.465,2.4637,0.0,0.0,0.0,0.0,0.0,0.0,0.0,0.0,0.0,0.0,0.0,1.9598,1.8786,1.8637,1.9114,1.9684,2.0299,2.0387,2.0439,2.0551,2.0542,2.0701,2.1007,2.1066,2.1272,2.1847,2.1976,2.2066,2.2076,2.2609,2.294,2.2966,2.3245,2.3657,2.3864,2.3913,2.45,2.5743,2.5754,2.6174,2.7476,2.8293,2.874,2.9041,3.0355,3.1267,3.1332,3.2148,3.2687,3.2759,3.2822,3.2905,3.2759,3.2885,3.2717,3.2177,3.2064,3.1976,3.1486,3.1763,3.1738,3.0696,3.0809,3.104,1.3448,0.0,1.5199,1.6263,0.0,1.8008,1.8008,1.8008,1.8008,1.8977,2.0623,2.1037,2.1928,2.3095,2.3095,2.2884,2.2506,2.2506,2.2292,2.1865,2.1459,2.1239,2.1207,1.9922,1.9391,1.9601,1.9797,2.0048,2.0368,2.0922,2.1263,2.1298,2.0828,2.1565,2.3489,2.4505,2.5499,2.6487,2.6487,2.6487,2.6474,2.621,2.5887,2.5598,0.0,0.0,0.0,0.0,0.0,0.0,0.0,0.0,0.0,0.0,0.0,2.2903,2.3263,2.296,2.1815,2.2106,2.2037,2.1305,2.0386,1.9616,1.9083,1.9605,2.0158,2.05,2.0435,2.0545,2.084,2.0908,2.1074,2.1484,2.1562,2.165,2.1855,2.207,2.2197,2.2227,2.2516,2.2822,2.2779,2.2945,2.3188,2.3428,2.3643,2.4102,2.4756,2.4876,2.5375,2.6798,2.8176,2.8981,2.9139,3.0209,3.1178,3.1356,3.2239,3.2982,3.3124,3.3124,3.3124,3.3124,3.3124,3.3011,3.2754,3.2855,3.2955,3.2754,3.3068,3.3181,3.239,3.2026,3.1725,1.3448,1.5199,1.5199,1.6306,1.8008,1.8008,1.8008,1.8008,0.0,0.0,0.0,2.1428,2.2261,2.2884,2.3047,2.2671,2.192,2.192,2.1428,2.0602,2.043,2.0365,2.0333,1.9548,1.9354,1.9672,1.9837,1.992,1.993,2.071,2.0943,2.0615,2.0615,2.1555,2.3478,2.5323,2.6233,2.6245,2.6245,2.6314,2.6499,2.6249,2.5952,2.5611,2.5511,2.5259,2.4813,2.48,2.48,2.48,2.48,2.4825,2.4946,2.4926,2.4361,2.3114,2.4136,2.383,2.1631,2.2914,2.3028,2.1213,2.0801,2.035,1.9755,2.027,2.0635,2.0713,2.0684,2.0869,2.1259,2.1317,2.1523,2.1953,2.2002,2.2021,2.2119,2.2402,2.2627,2.2656,2.2867,2.3091,2.3081,2.3179,2.3369,2.3721,2.3955,2.417,2.4531,2.4683,2.5076,2.6455,2.76,2.8601,2.8844,2.9624,3.0496,3.0406,3.1468,3.2469,3.2698,3.2568,3.2612,3.3068,3.3002,3.299,3.3213,3.3646,3.401,3.4048,3.4487,3.4693,3.4236,3.3382,3.2654,1.3455,1.5199,1.5199,1.6263,1.8008,1.8008,1.8008,1.8076,1.8787,1.9233,1.9595,2.1195,2.1982,2.2106,2.2793,2.2671,2.192,2.192,2.1428,0.0,1.9814,1.9497,1.9452,1.8946,1.8714,1.8823,1.9548,1.9897,1.9941,2.0436,2.0663,2.0605,2.0615,2.1565,2.3441,2.4636,2.5229,2.5229,2.5229,2.5616,2.6452,2.5213,2.4864,2.554,2.5184,2.4876,2.4833,2.4813,2.48,2.48,2.48,2.5021,2.5448,2.544,2.5246,2.4706,2.486,2.4425,2.3201,2.2639,2.183,2.0806,2.0605,2.0546,2.0449,2.0527,2.0723,2.1044,2.1093,2.1318,2.1728,2.1787,2.1963,2.2353,2.2422,2.2549,2.2828,2.2978,2.2974,2.2984,2.3042,2.312,2.3159,2.3477,2.373,2.3896,2.4424,2.5029,2.5303,2.5215,2.5233,2.571,2.6061,2.6197,2.661,2.7305,2.8226,2.8132,2.9269,3.0496,3.1356,3.0822,3.0878,3.268,3.2563,3.2698,3.3507,3.4223,3.4537,3.458,3.5052,3.5307,3.5157,3.4605,3.3997,1.3448,1.5128,1.5199,1.6298,1.8008,1.8008,1.8008,1.8066,1.8921,1.9299,1.9497,2.1132,2.1616,2.1239,2.1573,2.129,2.0494,2.0494,2.0009,1.921,1.8787,1.8596,1.8593,1.8602,1.8724,1.8987,1.9619,2.0039,2.0264,2.0517,2.0615,2.0644,2.1116,2.1811,2.2702,2.3708,2.4192,2.4228,2.5252,2.5769,2.5687,2.5536,2.5642,2.6097,2.5858,2.5464,2.4932,2.4898,2.4647,2.4106,2.4094,2.4467,2.5192,2.4764,2.4366,2.4205,2.4181,2.3537,2.2,2.1479,2.1049,2.0644,2.0791,2.0928,2.0928,2.0928,2.1113,2.1533,2.1582,2.1758,2.2178,2.2227,2.2402,2.2812,2.2818,2.2886,2.3052,2.3101,2.3101,2.312,2.3359,2.3496,2.3486,2.3867,2.4238,2.4473,2.5059,2.5508,2.5654,2.5576,2.5488,2.5693,2.5684,2.5684,2.5781,2.6754,2.7494,2.7589,2.8598,2.9498,3.0181,2.9647,3.0023,3.1129,3.1707,3.2366,3.3165,3.4297,3.494,3.5169,3.5604,3.5855,3.5558,3.5069,3.4361,1.3266,1.4843,1.5128,1.6306,1.7974,1.8008,1.8008,1.811,1.8911,1.9199,1.9266,2.0846,2.1101,2.0365,2.0494,2.0139,1.9365,1.9299,1.8844,1.8042,1.8008,1.8008,1.8047,1.8403,1.8831,1.9297,1.9717,2.0137,2.0566,2.0615,2.0615,2.0683,2.1336,2.1811,2.1979,2.2776,2.3136,2.3257,2.4909,2.5546,2.504,2.5358,2.5687,2.6129,2.6164,2.5699,2.4743,2.4898,2.4528,2.3588,2.3478,2.3866,2.4564,2.3927,2.3404,2.322,2.3184,2.2414,2.0799,2.0664,2.0762,2.0762,2.1133,2.1385,2.1473,2.1483,2.166,2.1973,2.2031,2.2207,2.2568,2.2646,2.274,2.3052,2.3101,2.3081,2.3101,2.3169,2.3237,2.3286,2.3662,2.3926,2.3994,2.4297,2.4717,2.5146,2.5527,2.5664,2.5684,2.5684,2.5684,2.5684,2.5684,2.5684,2.5781,2.6428,2.703,2.7173,2.7851,2.8513,2.8847,2.8995,2.9311,2.9992,3.0899,3.1856,3.2747,3.4084,3.5177,3.5569,3.6044,3.6144,3.5596,3.5069,3.4374,1.2915,1.3918,1.4851,1.6298,1.793,1.8008,1.8008,1.81,1.8911,1.8844,1.8395,1.9944,2.0204,1.9617,2.0193,2.0053,1.9266,1.9299,1.8821,1.8066,1.8008,1.8008,1.8047,1.8412,1.8831,1.9297,1.9727,2.0176,2.0586,2.0615,2.0615,2.0605,2.0673,2.1155,2.1924,2.2065,2.214,2.2178,2.322,2.4192,2.4826,2.3294,2.3257,2.5111,2.5158,2.4671,2.3708,2.4528,2.4528,2.3624,2.3441,2.3514,2.3635,2.3526,2.3073,2.2242,2.214,2.1669,2.0751,2.0937,2.1112,2.1161,2.1572,2.1982,2.2314,2.2383,2.2402,2.2366,2.2409,2.2541,2.2974,2.2969,2.2926,2.3081,2.3033,2.3101,2.3071,2.3496,2.373,2.374,2.4001,2.4355,2.4404,2.4736,2.5166,2.5537,2.5615,2.5684,2.5684,2.5684,2.5684,2.5684,2.5684,2.5684,2.5732,2.5732,2.6062,2.6014,2.6033,2.683,2.7672,2.7616,2.7408,2.951,3.0182,3.0877,3.2665,3.4066,3.4932,3.5896,3.6254,3.6169,3.5596,3.5107,3.4412,1.32,1.4593,1.5021,1.6298,1.7862,1.8008,1.8008,1.8042,1.8361,1.8337,1.81,1.8744,1.8854,1.8563,1.8921,1.8854,1.8553,1.8529,1.8371,1.8008,1.8008,1.8008,1.8076,1.8711,1.9131,1.9372,1.9971,2.0419,2.0576,2.0615,2.0615,2.0615,2.0615,2.0789,2.1155,2.1193,2.1155,2.1193,2.1565,2.2274,2.311,2.3036,2.3268,2.4,2.412,2.3635,2.2776,2.3025,2.2787,2.1897,2.1783,2.2048,2.259,2.2086,2.1859,2.1914,2.1489,2.1092,2.0987,2.1103,2.1307,2.1592,2.2012,2.2334,2.25,2.2691,2.2602,2.192,2.1789,2.2145,2.2887,2.2448,2.2306,2.2847,2.2675,2.2333,2.2342,2.2731,2.2982,2.3056,2.4057,2.4805,2.4863,2.5195,2.5518,2.5664,2.5684,2.5684,2.5684,2.5684,2.5684,2.5684,2.5684,2.5684,2.5684,2.5684,2.5684,2.5781,2.5967,2.6557,2.6834,2.7062,2.7331,2.8836,2.9277,3.0341,3.2354,3.3758,3.4824,3.5868,3.6019,3.5793,3.552,3.532,3.4818,1.3091,1.4371,1.495,1.6298,1.7974,1.8008,1.8008,1.8008,1.8008,1.8008,1.8008,1.8008,1.8008,1.8008,1.8008,1.8008,1.8008,1.8008,1.8008,1.8008,1.8008,1.8008,1.8096,1.875,1.917,1.9431,2.0029,2.0478,2.0586,2.0615,2.0615,2.0615,2.0615,2.0615,2.0615,2.0615,2.0615,2.0605,2.0615,2.0934,2.1631,2.2339,2.2813,2.3062,2.311,2.2627,2.1659,2.1849,2.1545,2.0673,2.0615,2.0895,2.1517,2.0972,2.0895,2.1499,2.1092,2.0879,2.1181,2.1414,2.1678,2.2041,2.2441,2.2643,2.2639,2.2645,2.2199,2.1471,2.1016,2.1293,2.2306,2.2129,2.2167,2.2672,2.2144,2.1822,2.1994,2.2335,2.2758,2.3183,2.4497,2.5254,2.5293,2.5518,2.5674,2.5674,2.5684,2.5684,2.5684,2.5684,2.5684,2.5684,2.5684,2.5684,2.5684,2.5684,2.5703,2.5957,2.6211,2.6435,2.6631,2.7041,2.7334,2.8508,2.8982,3.003,3.194,3.3357,3.452,3.5688,3.6009,3.5699,3.5843,3.5633,3.5257,1.2372,1.2732,1.4414,1.6263,1.7974,1.7974,1.8008,1.8008,1.8008,1.8008,1.8008,1.8008,1.8008,1.8008,1.8008,1.8008,1.8008,1.8008,1.8008,1.8008,1.8027,1.8018,1.8037,1.8422,1.8906,1.9355,1.9824,2.0225,2.0595,2.0615,2.0615,2.0615,2.0615,2.0615,2.0615,2.0615,2.0615,2.0615,2.0615,2.0644,2.0712,2.0789,2.127,2.1962,2.2065,2.1631,2.0924,2.1555,2.1555,2.0634,2.0615,2.0644,2.0683,2.0644,2.0644,2.0732,2.1006,2.1181,2.1327,2.1973,2.2422,2.2529,2.2799,2.3042,2.2775,2.2047,2.1382,2.1203,2.024,2.0257,2.1159,2.1982,2.2354,2.2044,2.185,2.1908,2.2259,2.2691,2.3581,2.4402,2.5044,2.5353,2.5528,2.5664,2.5684,2.5684,2.5684,2.5684,2.5684,2.5684,2.5684,2.5684,2.5684,2.5693,2.5693,2.5791,2.5996,2.6201,2.6435,2.668,2.7217,2.7676,2.79,2.8066,2.837,2.9495,3.1436,3.2883,3.3897,3.4921,3.5833,3.5911,3.6072,3.5759,3.5483,1.2659,1.3317,1.4629,1.5939,1.7035,1.7104,1.7432,1.8008,1.8008,1.8008,1.8008,1.8008,1.8008,1.8008,1.8008,1.8008,1.8008,1.8008,1.8008,1.8013,1.8256,1.8383,1.8451,1.9075,1.9475,1.9727,2.0137,2.0449,2.0576,2.0615,2.0615,2.0615,2.0615,2.0615,2.0615,2.0615,2.0615,2.0615,2.0615,2.0615,2.0615,2.0615,2.0789,2.1078,2.1078,2.0934,2.0595,2.0934,2.0934,2.0605,2.0615,2.0615,2.0615,2.0615,2.0752,2.0967,2.1143,2.1434,2.1951,2.2334,2.2637,2.2847,2.3003,2.2731,2.2085,2.148,2.0711,1.9484,1.9627,1.9734,1.9471,2.0352,2.1384,2.1997,2.1648,2.1332,2.1722,2.2619,2.3368,2.318,2.3718,2.4393,2.4658,2.5167,2.5684,2.5684,2.5684,2.5684,2.5684,2.5684,2.5684,2.5684,2.5693,2.5791,2.6152,2.6162,2.626,2.6504,2.6758,2.7148,2.7637,2.793,2.8154,2.8174,2.8281,2.8953,3.0916,3.2392,3.3392,3.4459,3.5319,3.6061,3.6203,3.6097,3.5994,1.2842,1.3745,1.445,1.5438,1.6576,1.6746,1.7344,1.8144,1.8178,1.8169,1.8193,1.8076,1.8008,1.8008,1.8008,1.8008,1.8008,1.8008,1.8008,1.8047,1.8403,1.8598,1.8734,1.9475,1.9912,1.998,2.039,2.0615,2.0615,2.0615,2.0615,2.0615,2.0615,2.0615,2.0615,2.0615,2.0615,2.0615,2.0615,2.0615,2.0615,2.0615,2.0615,2.0615,2.0615,2.0615,2.0615,2.0615,2.0615,2.0615,2.0615,2.0664,2.0752,2.0781,2.0986,2.1346,2.1541,2.1843,2.2422,2.2594,2.2799,2.3008,2.2731,2.2129,2.1337,2.0621,1.9314,1.8342,1.8581,1.8941,1.8657,1.9126,2.0055,2.1034,2.0728,2.0418,2.0572,2.1603,2.203,2.208,2.3009,2.3633,2.385,2.4922,2.5528,2.5684,2.5684,2.5684,2.5684,2.5684,2.5771,2.5869,2.5967,2.6182,2.6523,2.6728,2.6846,2.706,2.7129,2.7539,2.7851,2.8135,2.8271,2.8291,2.8548,2.9102,3.0162,3.1735,3.3005,3.4068,3.5174,3.6061,3.6291,3.6558,3.642,1.2849,1.3571,1.3673,1.484,1.6456,1.6911,1.7682,1.8453,1.8598,1.8588,1.8481,1.8198,1.8135,1.8047,1.8086,1.8047,1.8066,1.8086,1.8076,1.8115,1.85,1.8705,1.8773,1.9563,1.999,2.0,2.0371,2.0605,2.0615,2.0615,2.0615,2.0615,2.0615,2.0615,2.0615,2.0615,2.0615,2.0615,2.0615,2.0615,2.0615,2.0615,2.0615,2.0615,2.0615,2.0615,2.0615,2.0615,2.0615,2.0615,2.0615,2.0781,2.1073,2.1171,2.1395,2.1855,2.2246,2.2471,2.2568,2.2847,2.3033,2.296,2.2076,2.1382,2.0845,1.9222,1.7885,1.7656,1.7893,1.8167,1.8543,1.8775,1.9061,1.9048,1.9345,1.9466,1.9626,1.9672,2.0187,2.1499,2.2767,2.3583,2.3939,2.4864,2.5635,2.5684,2.5684,2.5684,2.5703,2.5742,2.5967,2.6221,2.6377,2.6553,2.6953,2.7334,2.7562,2.7708,2.7708,2.7832,2.8047,2.8281,2.8281,2.8301,2.8301,2.8804,2.9408,3.0927,3.2493,3.3662,3.486,3.5885,3.6526,3.682,3.6883,1.2482,1.276,1.3005,1.4215,1.5967,1.6388,1.7278,1.8576,1.8936,1.8926,1.8666,1.8809,1.873,1.8451,1.8403,1.8403,1.8403,1.8437,1.8412,1.8564,1.9134,1.9446,1.96,2.0088,2.0361,2.0419,2.0537,2.0615,2.0615,2.0615,2.0615,2.0615,2.0615,2.0615,2.0615,2.0615,2.0615,2.0615,2.0615,2.0615,2.0615,2.0615,2.0615,2.0615,2.0615,2.0615,2.0615,2.0615,2.0615,2.0615,2.0615,2.0762,2.1182,2.1523,2.1875,2.2266,2.2422,2.2623,2.2877,2.3013,2.3047,2.2862,2.1978,2.0935,2.0079,1.8603,1.7428,1.6916,1.6974,1.7272,1.7627,1.7881,1.8389,1.9324,1.9434,1.9339,1.9443,1.9524,2.0238,2.1397,2.2055,2.2676,2.3642,2.4815,2.5528,2.5635,2.5645,2.5713,2.5732,2.5976,2.6182,2.6367,2.6611,2.6973,2.7373,2.7646,2.7773,2.7963,2.7978,2.7978,2.8193,2.8301,2.8301,2.8301,2.8301,2.8495,2.9102,3.0068,3.1582,3.2593,3.3392,3.4736,3.6438,3.7023,3.7136,1.2465,1.2529,1.2703,1.3784,1.537,1.6125,1.722,1.8495,1.9248,1.9277,1.8984,1.8984,1.8809,1.8471,1.8529,1.8598,1.8627,1.89,1.9075,1.9134,1.9572,1.9902,1.998,2.0361,2.0615,2.0615,2.0615,2.0615,2.0615,2.0615,2.0615,2.0615,2.0615,2.0615,2.0615,2.0615,2.0615,2.0615,2.0615,2.0615,2.0615,2.0615,2.0615,2.0615,2.0615,2.0615,2.0615,2.0615,2.0615,2.0644,2.0713,2.1094,2.1609,2.1992,2.2314,2.2551,2.2356,2.2331,2.2921,2.2624,2.2438,2.2208,2.1302,2.0124,1.8934,1.7813,1.6902,1.6461,1.669,1.6947,1.7192,1.746,1.8028,1.87,1.8797,1.8864,1.8857,1.8864,1.9117,1.9922,2.0531,2.1507,2.2776,2.4097,2.4864,2.4981,2.5566,2.5613,2.565,2.6039,2.6452,2.6797,2.71,2.7461,2.7803,2.7959,2.8027,2.8125,2.8223,2.8203,2.8281,2.8301,2.8301,2.8301,2.8301,2.8301,2.8804,2.9408,3.0525,3.1235,3.2252,3.4193,3.6002,3.7167,3.7577,1.279,1.2764,1.2824,1.3565,1.4848,1.6242,1.7428,1.8402,1.9468,1.9717,1.9307,1.9092,1.8682,1.8359,1.8685,1.8812,1.8822,1.9426,1.9834,1.9873,2.0,2.0019,2.0088,2.0439,2.0605,2.0615,2.0615,2.0615,2.0615,2.0615,2.0615,2.0615,2.0615,2.0615,2.0615,2.0615,2.0615,2.0615,2.0615,2.0615,2.0615,2.0615,2.0615,2.0615,2.0615,2.0635,2.0674,2.0781,2.0742,2.0674,2.1094,2.1689,2.2272,2.2529,2.2734,2.2795,2.1889,2.1861,2.235,2.1765,2.1203,2.1123,2.0079,1.898,1.8,1.7134,1.6523,1.6476,1.6891,1.7186,1.728,1.7474,1.7674,1.7635,1.7845,1.7786,1.7635,1.774,1.8094,1.8297,1.8961,2.0187,2.171,2.2953,2.3473,2.3936,2.502,2.5327,2.5279,2.5865,2.7023,2.7412,2.7549,2.7783,2.8076,2.8105,2.8164,2.8193,2.8301,2.8301,2.8301,2.8301,2.8301,2.8301,2.8301,2.8301,2.8548,2.9207,2.9817,3.0577,3.2088,3.4003,3.5584,3.6936,3.8153,1.2826,1.2498,1.3126,1.391,1.4931,1.6516,1.7593,1.8425,1.9783,2.0117,1.9824,1.998,1.9717,1.9453,1.9482,1.9543,1.9609,1.9805,2.0117,2.0361,2.0439,2.0439,2.0439,2.0537,2.0615,2.0615,2.0615,2.0615,2.0615,2.0615,2.0615,2.0615,2.0615,2.0615,2.0615,2.0615,2.0615,2.0615,2.0615,2.0615,2.0615,2.0615,2.0615,2.0615,2.0615,2.0742,2.1055,2.1377,2.1367,2.1143,2.1787,2.2204,2.2529,2.2707,2.2543,2.1906,2.148,2.0935,2.0531,2.0169,1.9988,1.9906,1.8956,1.8155,1.8028,1.6939,1.6628,1.6844,1.7146,1.7293,1.7474,1.7588,1.7582,1.7589,1.7589,1.7589,1.7589,1.7635,1.7943,1.8916,1.9317,2.0135,2.1318,2.2035,2.251,2.2792,2.4021,2.5152,2.4948,2.622,2.7617,2.7705,2.7842,2.8066,2.8242,2.8262,2.8281,2.8271,2.8301,2.8301,2.8301,2.8301,2.8301,2.8301,2.8301,2.8301,2.8698,2.926,2.9765,3.0016,3.239,3.4495,3.5865,3.7215,3.8466,1.3113,1.2732,1.334,1.3933,1.4714,1.6524,1.7291,1.7675,1.9625,2.0034,1.9535,2.0004,2.0049,1.9687,1.9824,1.9902,1.9932,2.0107,2.0332,2.0546,2.0595,2.0595,2.0605,2.0605,2.0615,2.0615,2.0615,2.0615,2.0615,2.0615,2.0615,2.0615,2.0615,2.0615,2.0615,2.0615,2.0615,2.0615,2.0615,2.0615,2.0615,2.0615,2.0615,2.0654,2.0762,2.1055,2.1494,2.1914,2.2012,2.1882,2.2256,2.2588,2.2697,2.2436,2.2031,2.1257,2.044,1.9588,1.9488,1.9085,1.8726,1.8642,1.8002,1.7621,1.7311,1.6751,1.673,1.7099,1.7286,1.7454,1.7588,1.7589,1.7589,1.7589,1.7589,1.7589,1.7589,1.7589,1.7943,1.8506,1.8819,1.9338,2.0822,2.117,2.1328,2.1872,2.3694,2.4228,2.4509,2.6524,2.791,2.7978,2.8027,2.8193,2.8271,2.8291,2.8301,2.8301,2.8301,2.8301,2.8301,2.8301,2.8301,2.8301,2.8301,2.8398,2.8698,2.8953,2.9006,3.0088,3.2721,3.4407,3.5506,3.7621,3.8865,1.3453,1.32,1.352,1.378,1.44,1.6306,1.6748,1.6462,1.9009,1.9568,1.8679,1.9335,1.9573,1.9296,1.9828,2.001,2.0019,2.0352,2.0537,2.0615,2.0615,2.0615,2.0615,2.0615,2.0615,2.0615,2.0615,2.0615,2.0615,2.0615,2.0615,2.0615,2.0615,2.0615,2.0615,2.0615,2.0615,2.0615,2.0615,2.0615,2.0615,2.0615,2.0615,2.0664,2.1094,2.1494,2.1934,2.2334,2.2516,2.2578,2.2535,2.2654,2.2804,2.18,2.1078,2.0531,1.9039,1.8365,1.8672,1.7902,1.7505,1.7458,1.7495,1.7272,1.6703,1.6643,1.6945,1.7273,1.7442,1.7535,1.7575,1.7589,1.7589,1.7589,1.7589,1.7589,1.7589,1.7589,1.7595,1.7629,1.7688,1.8453,1.9333,2.0027,2.0192,2.1356,2.3133,2.4306,2.5058,2.6786,2.7839,2.8193,2.8232,2.8262,2.8291,2.8291,2.8301,2.8301,2.8301,2.8301,2.8301,2.8301,2.8301,2.8301,2.8301,2.8291,2.8398,2.8495,2.8654,2.9813,3.217,3.3294,3.4434,3.7436,3.9358,1.3687,1.3253,1.3774,1.3895,1.4111,1.6205,1.6683,1.5902,1.8261,1.8656,1.7989,1.8694,1.9121,1.9116,1.9889,2.0468,2.0304,2.0469,2.0605,2.0615,2.0615,2.0615,2.0615,2.0615,2.0615,2.0615,2.0615,2.0615,2.0615,2.0615,2.0615,2.0615,2.0615,2.0615,2.0615,2.0615,2.0615,2.0615,2.0615,2.0615,2.0615,2.0615,2.0635,2.0742,2.1357,2.1934,2.2363,2.274,2.2955,2.2964,2.2858,2.2518,2.1915,2.1391,2.035,1.8993,1.8187,1.7358,1.6756,1.652,1.6258,1.6387,1.6614,1.6585,1.6686,1.6867,1.7213,1.7422,1.7555,1.7582,1.7589,1.7589,1.7589,1.7589,1.7589,1.7589,1.7589,1.7589,1.7669,1.7856,1.7936,1.8164,1.8769,1.9168,1.9785,2.1025,2.2624,2.431,2.572,2.7103,2.7751,2.8301,2.8301,2.8301,2.8301,2.8301,2.8301,2.8301,2.8301,2.8301,2.8301,2.8301,2.8301,2.8301,2.8301,2.8291,2.8291,2.8953,2.9303,3.0506,3.1621,3.3146,3.497,3.7645,3.9421,1.3821,1.3474,1.3901,1.3995,1.413,1.5711,1.5951,1.5504,1.7253,1.7868,1.7536,1.7989,1.8479,1.8997,1.955,1.9835,2.0001,2.0401,2.0615,2.0615,2.0615,2.0615,2.0615,2.0615,2.0615,2.0615,2.0615,2.0615,2.0615,2.0615,2.0615,2.0615,2.0615,2.0615,2.0615,2.0615,2.0615,2.0615,2.0615,2.0615,2.0615,2.0615,2.0899,2.1241,2.1836,2.2383,2.275,2.2945,2.2746,2.2403,2.2217,2.1987,2.1159,2.026,1.8956,1.8002,1.7037,1.6622,1.5967,1.5832,1.5885,1.6025,1.6192,1.6549,1.6794,1.7125,1.732,1.7495,1.7582,1.7589,1.7589,1.7589,1.7589,1.7589,1.7589,1.7589,1.7589,1.7589,1.7702,1.7949,1.7975,1.8283,1.8571,1.8908,1.9885,2.1272,2.2759,2.4429,2.5882,2.714,2.7877,2.8301,2.8301,2.8301,2.8301,2.8301,2.8301,2.8301,2.8301,2.8301,2.8301,2.8301,2.8301,2.8301,2.8301,2.8301,2.8451,2.9154,2.9586,2.9865,3.1011,3.3201,3.5358,3.7475,3.8883,1.3935,1.3686,1.3981,1.4088,1.4292,1.5262,1.5137,1.4496,1.6165,1.7009,1.7098,1.7172,1.8029,1.8877,1.9274,1.9283,1.9559,2.0089,2.0615,2.0615,2.0615,2.0615,2.0615,2.0615,2.0615,2.0615,2.0615,2.0615,2.0615,2.0615,2.0615,2.0615,2.0615,2.0615,2.0615,2.0615,2.0615,2.0615,2.0615,2.0615,2.0615,2.0635,2.1006,2.1699,2.2197,2.2646,2.2838,2.2799,2.2306,2.1346,2.098,2.08,2.026,1.9085,1.7498,1.7404,1.6433,1.6015,1.5899,1.5899,1.6032,1.6266,1.6455,1.6677,1.7065,1.7259,1.7414,1.7534,1.7589,1.7589,1.7589,1.7589,1.7589,1.7589,1.7589,1.7589,1.7595,1.7615,1.7829,1.8076,1.8303,1.8564,1.8967,1.9444,2.0508,2.1609,2.3111,2.4654,2.6109,2.7168,2.7906,2.8301,2.8301,2.8301,2.8301,2.8301,2.8301,2.8301,2.8301,2.8301,2.8301,2.8301,2.8301,2.8301,2.8301,2.8301,2.8495,2.9112,2.9363,2.9209,3.0905,3.3556,3.559,3.7252,3.842,1.4055,1.4021,1.4068,1.4088,1.4243,1.522,1.5061,1.4412,1.5421,1.5944,1.6108,1.6887,1.7738,1.8877,1.9962,2.0284,2.0079,2.0323,2.0479,2.0489,2.0527,2.0615,2.0615,2.0615,2.0615,2.0615,2.0615,2.0615,2.0615,2.0615,2.0615,2.0615,2.0615,2.0615,2.0615,2.0615,2.0615,2.0615,2.0615,2.0615,2.0615,2.0762,2.1085,2.1865,2.2334,2.2658,2.2669,2.212,2.1525,2.1159,1.936,1.8542,1.8319,1.787,1.7178,1.6433,1.6015,1.5825,1.5845,1.6052,1.6179,1.6415,1.6723,1.7005,1.7233,1.74,1.7488,1.7542,1.7589,1.7589,1.7589,1.7589,1.7589,1.7589,1.7589,1.7602,1.7649,1.7829,1.8076,1.8364,1.8611,1.8824,1.9316,2.0081,2.1368,2.2654,2.4178,2.5709,2.7232,2.7789,2.813,2.8301,2.8301,2.8301,2.8301,2.8301,2.8301,2.8301,2.8301,2.8301,2.8301,2.8301,2.8301,2.8301,2.8301,2.8301,2.8654,2.9112,2.9533,2.969,3.1833,3.4155,3.5694,3.7108,3.8261,1.3154,1.3245,1.3822,1.4088,1.4208,1.4615,1.4615,1.4215,1.465,1.5171,1.5545,1.5752,1.6609,1.7908,1.859,1.9155,1.9687,1.9766,1.9756,1.9835,2.0284,2.0615,2.0615,2.0615,2.0615,2.0615,2.0615,2.0615,2.0615,2.0615,2.0615,2.0615,2.0615,2.0615,2.0615,2.0615,2.0615,2.0615,2.0615,2.0615,2.0693,2.0977,2.1523,2.1885,2.2353,2.2553,2.2045,2.1756,2.0621,1.9497,1.8326,1.7451,1.6943,1.6709,1.648,1.592,1.5825,1.5832,1.5872,1.6099,1.6319,1.6526,1.6971,1.7259,1.74,1.7495,1.7582,1.7589,1.7589,1.7589,1.7589,1.7589,1.7589,1.7589,1.7595,1.7675,1.7836,1.8096,1.8377,1.8637,1.8784,1.9035,1.9506,2.0558,2.2081,2.3654,2.5151,2.6662,2.813,2.8301,2.8301,2.8301,2.8301,2.8301,2.8301,2.8301,2.8301,2.8301,2.8301,2.8301,2.8301,2.8301,2.8301,2.8301,2.8301,2.8301,2.8451,2.8751,2.946,3.0308,3.1814,3.3512,3.5358,3.6872,3.8072,1.2114,1.237,1.3336,1.3864,1.4082,1.4088,1.413,1.4088,1.413,1.4734,1.5496,1.5019,1.5628,1.6927,1.7496,1.794,1.8917,1.8877,1.8789,1.9234,1.9795,2.0294,2.0566,2.0615,2.0615,2.0615,2.0615,2.0615,2.0615,2.0615,2.0615,2.0615,2.0615,2.0615,2.0615,2.0615,2.0615,2.0615,2.0615,2.0625,2.0869,2.1213,2.1592,2.1614,2.2155,2.1791,2.1025,2.044,1.9542,1.8319,1.7412,1.685,1.6015,1.5825,1.5825,1.5825,1.5825,1.5852,1.5985,1.6206,1.652,1.678,1.7119,1.7387,1.7482,1.7555,1.7589,1.7589,1.7589,1.7589,1.7589,1.7589,1.7589,1.7609,1.7655,1.7782,1.7982,1.8249,1.8611,1.8818,1.8938,1.927,1.971,2.1316,2.2934,2.4044,2.5544,2.6943,2.8237,2.8291,2.8301,2.8301,2.8301,2.8301,2.8301,2.8301,2.8301,2.8301,2.8301,2.8301,2.8301,2.8301,2.8301,2.8301,2.8301,2.8291,2.8344,2.8953,3.0224,3.1184,3.1784,3.3362,3.5947,3.7203,3.8008,1.1386,1.2328,1.2456,1.3118,1.4039,1.4088,1.4088,1.4088,1.4088,1.4692,1.5538,1.5579,1.6034,1.6968,1.7212,1.7908,1.835,1.798,1.798,1.8718,1.9204,1.9766,2.0411,2.0615,2.0411,2.0372,2.045,2.0615,2.0615,2.0615,2.0615,2.0615,2.0615,2.0615,2.0615,2.0615,2.0615,2.0615,2.0625,2.0762,2.0973,2.0637,2.0649,2.0696,2.0456,2.0042,1.967,1.9039,1.8048,1.7684,1.6574,1.6015,1.5825,1.5825,1.5825,1.5825,1.5852,1.5952,1.6179,1.648,1.6747,1.7034,1.7373,1.7508,1.7575,1.7589,1.7589,1.7589,1.7589,1.7589,1.7589,1.7589,1.7589,1.7689,1.7816,1.7896,1.8109,1.8497,1.8804,1.9432,1.972,1.9766,1.9982,2.1934,2.3766,2.4765,2.5882,2.7286,2.8184,2.8237,2.8301,2.8301,2.8301,2.8301,2.8301,2.8301,2.8301,2.8301,2.8301,2.8301,2.8301,2.8301,2.8301,2.8301,2.8301,2.8698,2.926,3.012,3.1327,3.1962,3.2363,3.4498,3.7219,3.7894,3.8036,0.9701,1.1381,1.2029,1.2984,1.4046,1.4088,1.4088,1.4088,1.413,1.4328,1.4727,1.481,1.5379,1.6273,1.6396,1.6642,1.696,1.6642,1.7009,1.8109,1.8638,1.9234,1.9559,1.9678,1.9687,1.9678,1.9795,2.0079,2.0323,2.0527,2.0615,2.0615,2.0566,2.0615,2.0615,2.0615,2.0615,2.0674,2.0801,2.1035,2.1015,2.0676,2.0449,2.0638,1.9855,1.916,1.8473,1.8095,1.7271,1.681,1.5974,1.5825,1.5825,1.5825,1.5825,1.5791,1.6005,1.6146,1.6299,1.6757,1.7025,1.7213,1.7454,1.7569,1.7589,1.7589,1.7589,1.7589,1.7589,1.7589,1.7589,1.7589,1.7702,1.7822,1.7929,1.8202,1.8444,1.8733,1.9122,1.984,2.0594,2.088,2.1266,2.271,2.4378,2.5434,2.6436,2.7672,2.8237,2.8237,2.8301,2.8301,2.8301,2.8301,2.8301,2.8301,2.8301,2.8301,2.8301,2.8301,2.8301,2.8301,2.8301,2.8301,2.8301,2.8953,2.9964,3.012,3.0235,3.1436,3.2879,3.4823,3.6674,3.767,3.7971,0.8313,1.0269,1.1423,1.2553,1.3646,1.3955,1.4088,1.4088,1.4088,1.4088,1.4088,1.4166,1.4734,1.5372,1.5504,1.5504,1.5779,1.5462,1.5992,1.6968,1.794,1.847,1.8709,1.8758,1.8917,1.859,1.9036,1.9234,1.9511,2.0001,2.0206,2.0527,2.0157,2.0362,2.0527,2.0566,2.0489,2.0069,2.003,2.0161,2.0205,1.9832,1.9764,1.9577,1.9133,1.8248,1.7522,1.7308,1.6707,1.6286,1.5913,1.5832,1.5825,1.5825,1.5899,1.5992,1.6219,1.644,1.662,1.6951,1.7192,1.7353,1.746,1.7589,1.7589,1.7589,1.7589,1.7589,1.7589,1.7589,1.7589,1.7589,1.7729,1.7916,1.8069,1.8428,1.8804,1.9022,1.9585,2.0537,2.1484,2.267,2.3151,2.3989,2.5041,2.6036,2.7051,2.8067,2.8301,2.8301,2.8301,2.8301,2.8301,2.8301,2.8301,2.8301,2.8301,2.8301,2.8301,2.8301,2.8301,2.8301,2.8301,2.8301,2.8301,2.9049,2.9964,2.9418,2.9119,3.1304,3.322,3.4209,3.555,3.6884,3.8065,0.7837,0.9109,1.0226,1.1381,1.2504,1.3652,1.4046,1.3955,1.4039,1.4088,1.4088,1.4166,1.4699,1.522,1.4852,1.4852,1.5621,1.465,1.5144,1.5992,1.6797,1.7334,1.7617,1.802,1.831,1.7698,1.802,1.8069,1.8029,1.863,1.9481,2.0362,1.9638,1.9883,2.0157,2.0284,1.9852,1.9261,1.8862,1.8718,1.8605,1.8213,1.7864,1.7856,1.7165,1.6476,1.642,1.6491,1.6457,1.6119,1.5891,1.5832,1.5825,1.5879,1.5992,1.6179,1.65,1.6784,1.7012,1.7152,1.7326,1.7514,1.7569,1.7589,1.7589,1.7589,1.7589,1.7589,1.7589,1.7589,1.7589,1.7622,1.7809,1.807,1.8343,1.8651,1.8951,1.9165,1.9892,2.1115,2.2307,2.3479,2.4931,2.5717,2.5936,2.6825,2.7276,2.8301,2.8301,2.8301,2.8301,2.8301,2.8301,2.8301,2.8301,2.8301,2.8301,2.8301,2.8301,2.8301,2.8301,2.8301,2.8301,2.8301,2.8344,2.9154,2.966,2.9059,2.9465,3.1893,3.3625,3.4652,3.6218,3.7995,3.8834,0.736,0.7925,0.9056,1.0226,1.1343,1.2504,1.2984,1.316,1.3779,1.4088,1.4088,1.413,1.4334,1.4496,1.4412,1.4292,1.465,1.437,1.4817,1.5462,1.615,1.6273,1.656,1.6683,1.6723,1.6478,1.6838,1.7334,1.7464,1.7334,1.7617,1.8181,1.863,1.9195,1.9559,1.9518,1.9012,1.8514,1.8196,1.8296,1.8394,1.7931,1.7511,1.7591,1.655,1.604,1.5985,1.5992,1.5999,1.5937,1.5851,1.5811,1.5892,1.5999,1.6152,1.6395,1.672,1.7045,1.7213,1.7353,1.7527,1.7574,1.7582,1.7589,1.7589,1.7589,1.7589,1.7589,1.7589,1.7589,1.7595,1.7762,1.8009,1.829,1.8564,1.8844,1.9078,1.9343,2.058,2.2032,2.3207,2.4378,2.5882,2.7394,2.7447,2.7609,2.8014,2.8301,2.8301,2.8301,2.8301,2.8301,2.8301,2.8301,2.8301,2.8301,2.8301,2.8301,2.8301,2.8301,2.8301,2.8301,2.8301,2.8301,2.8301,2.8751,2.8847,2.8601,2.9503,3.1296,3.3323,3.5225,3.7,3.8879,3.939,0.7095,0.7228,0.8013,0.9013,1.0178,1.1295,1.1809,1.1986,1.3033,1.3822,1.4082,1.4088,1.4088,1.4088,1.4088,1.4088,1.4208,1.4166,1.4573,1.5095,1.5496,1.5455,1.5413,1.5538,1.5786,1.5421,1.5662,1.6157,1.6083,1.582,1.6067,1.6601,1.7415,1.794,1.8416,1.8198,1.787,1.7526,1.7364,1.7601,1.7597,1.7298,1.707,1.7026,1.6273,1.6067,1.6032,1.6052,1.6039,1.5992,1.5925,1.5899,1.5999,1.6159,1.6395,1.6656,1.6924,1.7219,1.7367,1.7481,1.7628,1.7589,1.7589,1.7589,1.7589,1.7589,1.7589,1.7589,1.7589,1.7615,1.7675,1.7862,1.8175,1.8517,1.8698,1.8951,1.9165,1.9533,2.1316,2.2983,2.3933,2.471,2.6554,2.796,2.7897,2.795,2.8067,2.8301,2.8301,2.8301,2.8301,2.8301,2.8301,2.8301,2.8301,2.8301,2.8301,2.8301,2.8301,2.8301,2.8301,2.8301,2.8301,2.8301,2.8301,2.8301,2.8359,2.8491,2.9242,3.034,3.2749,3.5481,3.7099,3.8742,3.9376,0.7095,0.7095,0.7183,0.7881,0.9017,1.0135,1.0654,1.0783,1.1858,1.2942,1.3815,1.3906,1.4039,1.4039,1.4088,1.4088,1.4088,1.4088,1.4208,1.4489,1.5061,1.4936,1.4859,1.4936,1.5061,1.4615,1.4901,1.5061,1.4489,1.5137,1.5095,1.4922,1.5722,1.6556,1.7188,1.6598,1.6202,1.6122,1.5826,1.5853,1.5948,1.6081,1.6129,1.6157,1.6143,1.6086,1.6086,1.6086,1.6072,1.6059,1.5912,1.5952,1.6186,1.6273,1.6547,1.7058,1.7152,1.7353,1.7528,1.7569,1.7635,1.7589,1.7589,1.7589,1.7589,1.7589,1.7589,1.7589,1.7622,1.7762,1.7849,1.8062,1.8408,1.8691,1.8871,1.9052,1.9272,1.9982,2.1764,2.3375,2.3989,2.4774,2.6834,2.8237,2.8237,2.8237,2.8291,2.8301,2.8301,2.8301,2.8301,2.8301,2.8301,2.8301,2.8301,2.8301,2.8301,2.8301,2.8301,2.8301,2.8301,2.8301,2.8301,2.8301,2.8301,2.8301,2.8457,2.8623,2.9614,3.0833,3.3289,3.5665,3.7293,3.8582,3.931,0.7095,0.7095,0.7095,0.7316,0.7885,0.8973,0.9492,0.9666,1.0697,1.1815,1.2723,1.2893,1.3421,1.3864,1.4039,1.4039,1.4088,1.4088,1.4088,1.4166,1.4573,1.4412,1.4334,1.4412,1.4489,1.4292,1.4531,1.4615,1.4208,1.465,1.4531,1.4355,1.4717,1.5489,1.6209,1.6154,1.6001,1.5697,1.5508,1.5524,1.5618,1.5724,1.5832,1.5784,1.5952,1.6005,1.6012,1.6012,1.6012,1.6025,1.5865,1.6019,1.6286,1.6413,1.6747,1.7186,1.7333,1.7468,1.7569,1.7582,1.7589,1.7589,1.7589,1.7589,1.7589,1.7589,1.7589,1.7649,1.7769,1.7862,1.7969,1.8402,1.8721,1.8878,1.9038,1.9199,1.9584,2.0587,2.1919,2.3479,2.4488,2.5827,2.7618,2.8237,2.8301,2.8301,2.8301,2.8301,2.8301,2.8301,2.8301,2.8301,2.8301,2.8301,2.8301,2.8301,2.8301,2.8301,2.8301,2.8301,2.8301,2.8301,2.8301,2.8301,2.8301,2.831,2.8594,2.9035,3.0189,3.1667,3.3944,3.6151,3.7967,3.8973,3.9478,0.7095,0.7095,0.7095,0.7095,0.7228,0.7969,0.8496,0.8973,0.9705,1.0654,1.1552,1.1729,1.2334,1.316,1.347,1.3906,1.4039,1.4088,1.4088,1.4088,1.413,1.413,1.413,1.4088,1.4208,1.4088,1.4088,1.4088,1.4088,1.4088,1.4197,1.4289,1.4436,1.5053,1.5624,1.5772,1.5693,1.5508,1.5491,1.5645,1.5718,1.5825,1.5825,1.5825,1.5845,1.5838,1.5832,1.5825,1.5832,1.5852,1.5952,1.6112,1.6406,1.6693,1.6987,1.7333,1.7442,1.7575,1.7582,1.7589,1.7589,1.7589,1.7589,1.7589,1.7589,1.7589,1.7682,1.7782,1.7896,1.8102,1.8315,1.8824,1.8951,1.9045,1.9287,1.9448,2.0357,2.1365,2.2589,2.4092,2.5316,2.6771,2.795,2.8121,2.8301,2.8301,2.8301,2.8301,2.8301,2.8301,2.8301,2.8301,2.8301,2.8301,2.8301,2.8301,2.8301,2.8301,2.8301,2.8301,2.8301,2.8301,2.8301,2.8301,2.8301,2.8408,2.8818,2.9494,3.0651,3.2256,3.4307,3.6453,3.857,3.9297,3.9697,0.7095,0.7095,0.7095,0.7095,0.7139,0.7228,0.7797,0.8803,0.8807,0.9492,1.0524,1.0567,1.1171,1.2109,1.2322,1.2857,1.3695,1.387,1.3955,1.3997,1.3997,1.4039,1.4088,1.4088,1.4088,1.4088,1.4088,1.4088,1.4088,1.4175,1.4302,1.4462,1.4616,1.501,1.5364,1.5579,1.5548,1.5571,1.5651,1.5711,1.5825,1.5825,1.5825,1.5825,1.5825,1.5825,1.5825,1.5825,1.5804,1.5939,1.6106,1.64,1.6693,1.6987,1.7333,1.7488,1.7569,1.7582,1.7589,1.7589,1.7589,1.7589,1.7589,1.7589,1.7589,1.7602,1.7702,1.7896,1.8042,1.845,1.8784,1.8938,1.9078,1.93,1.9581,2.0256,2.1194,2.2363,2.3646,2.4867,2.5927,2.7105,2.796,2.8291,2.8301,2.8301,2.8301,2.8301,2.8301,2.8301,2.8301,2.8301,2.8301,2.8301,2.8301,2.8301,2.8301,2.8301,2.8301,2.8301,2.8301,2.8301,2.8301,2.8301,2.8301,2.8525,2.9043,3.0008,3.1156,3.2878,3.4836,3.6507,3.8518,3.9297,3.9697,0.7095,0.7095,0.7095,0.7095,0.7095,0.7095,0.7316,0.7621,0.7621,0.8277,0.941,0.9405,1.0053,1.108,1.1938,1.1949,1.2431,1.2997,1.3209,1.3379,1.3646,1.3955,1.4088,1.4088,1.4088,1.4088,1.4088,1.4088,1.4142,1.4249,1.4396,1.4529,1.4897,1.5211,1.5404,1.5598,1.5645,1.5691,1.5738,1.5812,1.5825,1.5825,1.5825,1.5825,1.5825,1.5825,1.5825,1.5852,1.5919,1.6139,1.6219,1.6529,1.7052,1.7166,1.7326,1.7535,1.7582,1.7589,1.7589,1.7589,1.7589,1.7589,1.7589,1.7589,1.7589,1.7649,1.7756,1.8003,1.8283,1.8631,1.8918,1.9085,1.9192,1.9401,1.9873,2.0759,2.1805,2.3255,2.4535,2.5818,2.6825,2.7394,2.8237,2.8301,2.8301,2.8301,2.8301,2.8301,2.8301,2.8301,2.8301,2.8301,2.8301,2.8301,2.8301,2.8301,2.8301,2.8301,2.8301,2.8301,2.8301,2.8301,2.8301,2.832,2.8369,2.8789,2.9375,3.0266,3.102,3.3394,3.5376,3.6865,3.8202,3.9141,3.9697,0.7095,0.7095,0.7095,0.7095,0.7095,0.7095,0.7095,0.7095,0.7095,0.758,0.8145,0.8189,0.8842,0.9879,1.0567,1.0826,1.0869,1.1826,1.2339,1.2808,1.3033,1.3603,1.3864,1.4039,1.4088,1.4088,1.4088,1.4088,1.4182,1.4389,1.4519,1.493,1.5297,1.5431,1.5585,1.5718,1.5792,1.5805,1.5825,1.5825,1.5825,1.5825,1.5825,1.5825,1.5825,1.5825,1.5852,1.5892,1.6106,1.6382,1.6449,1.6804,1.7219,1.7293,1.74,1.7575,1.7589,1.7589,1.7589,1.7589,1.7589,1.7589,1.7595,1.7669,1.7749,1.7829,1.7996,1.8203,1.8497,1.8784,1.9025,1.9239,1.9357,1.9424,2.0256,2.1145,2.2533,2.4036,2.5426,2.6771,2.7501,2.8014,2.8301,2.8301,2.8301,2.8301,2.8301,2.8301,2.8301,2.8301,2.8301,2.8301,2.8301,2.8301,2.8301,2.8301,2.8301,2.8301,2.8301,2.8301,2.8301,2.8301,2.8301,2.8369,2.8467,2.8955,2.9473,2.9944,3.084,3.339,3.5617,3.6876,3.8149,3.931,3.9697,0.6874,0.6735,0.6918,0.6962,0.7095,0.7095,0.7095,0.7095,0.7095,0.7139,0.7183,0.7139,0.7797,0.8711,0.9235,0.9623,0.9918,1.0654,1.1343,1.2023,1.2072,1.2559,1.3173,1.3737,1.3385,1.3695,1.3926,1.3776,1.4193,1.4529,1.497,1.5384,1.5451,1.5565,1.5745,1.5792,1.5825,1.5825,1.5825,1.5825,1.5825,1.5825,1.5825,1.5825,1.5825,1.5832,1.5905,1.6059,1.6279,1.6536,1.6804,1.7139,1.7326,1.7402,1.7528,1.7569,1.7582,1.7589,1.7589,1.7589,1.7589,1.7595,1.7609,1.7769,1.7836,1.7896,1.809,1.843,1.8738,1.8951,1.9185,1.9394,1.9455,1.9866,2.0644,2.2096,2.3877,2.5206,2.6327,2.7447,2.7843,2.8301,2.8301,2.8301,2.8301,2.8301,2.8301,2.8301,2.8301,2.8301,2.8301,2.8301,2.8301,2.8301,2.8301,2.8301,2.8301,2.8301,2.8301,2.8301,2.8301,2.8301,2.8301,2.8398,2.8525,2.8994,2.9509,2.9964,3.1166,3.3865,3.5781,3.6823,3.8043,3.9362,3.9697,0.5265,0.4548,0.5401,0.6293,0.7051,0.7095,0.7095,0.7095,0.7095,0.7095,0.7095,0.7139,0.7228,0.7665,0.8452,0.8711,0.84,0.9527,1.0048,1.0361,1.0621,1.1311,1.1542,1.1957,1.2106,1.251,1.2881,1.3433,1.4339,1.4863,1.5211,1.5418,1.5558,1.5752,1.5812,1.5825,1.5825,1.5825,1.5825,1.5825,1.5825,1.5825,1.5825,1.5825,1.5825,1.5845,1.5939,1.6126,1.638,1.6633,1.6991,1.728,1.7521,1.7549,1.7582,1.7589,1.7589,1.7589,1.7589,1.7589,1.7602,1.7695,1.7769,1.7916,1.7962,1.7982,1.8182,1.8631,1.8931,1.9132,1.933,1.9441,1.9758,2.0429,2.1038,2.3039,2.5105,2.6273,2.733,2.7789,2.8184,2.8301,2.8301,2.8301,2.8301,2.8301,2.8301,2.8301,2.8301,2.8301,2.8301,2.8301,2.8301,2.8301,2.8301,2.8301,2.8301,2.8301,2.8301,2.8301,2.8301,2.8301,2.831,2.8428,2.8623,2.9101,2.9541,2.9912,3.1569,3.4306,3.5672,3.6607,3.8202,3.9645,3.9697,0.5001,0.4465,0.4508,0.5265,0.6204,0.6337,0.6605,0.7051,0.7095,0.7095,0.7095,0.7095,0.7095,0.7095,0.7841,0.7969,0.7401,0.8352,0.8969,0.9196,0.9486,1.024,1.045,1.0518,1.1079,1.163,1.2386,1.3274,1.4389,1.5104,1.5404,1.5525,1.5718,1.5778,1.5778,1.5825,1.5825,1.5825,1.5825,1.5825,1.5825,1.5825,1.5825,1.5825,1.5838,1.5879,1.6106,1.6313,1.66,1.6894,1.7246,1.742,1.7588,1.7575,1.7582,1.7589,1.7589,1.7589,1.7589,1.7609,1.7655,1.7802,1.7862,1.7995,1.8428,1.8475,1.8544,1.8898,1.9098,1.9299,1.9319,1.9475,2.0199,2.0923,2.1536,2.2814,2.5041,2.6943,2.7618,2.8067,2.8301,2.8301,2.8301,2.8301,2.8301,2.8301,2.8301,2.8301,2.8301,2.8301,2.8301,2.8301,2.8301,2.8301,2.8301,2.8301,2.8301,2.8301,2.8301,2.8301,2.8301,2.8301,2.833,2.8476,2.876,2.9228,2.9648,3.0078,3.1886,3.4549,3.5563,3.6217,3.8031,3.9697,3.9697,0.5001,0.4823,0.3794,0.4063,0.509,0.5181,0.5669,0.6514,0.6782,0.6827,0.6871,0.7007,0.7095,0.7095,0.7095,0.7095,0.7272,0.7573,0.7969,0.8368,0.871,0.9087,0.9598,1.0098,1.0227,1.1018,1.212,1.3016,1.4004,1.4646,1.5136,1.5501,1.5588,1.5635,1.5778,1.5825,1.5825,1.5825,1.5825,1.5825,1.5825,1.5825,1.5825,1.5832,1.5892,1.6025,1.6279,1.6643,1.6931,1.7166,1.7414,1.7554,1.7615,1.7589,1.7589,1.7589,1.7589,1.7589,1.7602,1.7669,1.7816,1.7916,1.8015,1.8295,1.8791,1.8945,1.8958,1.9058,1.9265,1.9339,1.9417,1.9866,2.0644,2.187,2.2476,2.3087,2.5371,2.7447,2.7897,2.8301,2.8301,2.8301,2.8301,2.8301,2.8301,2.8301,2.8301,2.8301,2.8301,2.8301,2.8301,2.8301,2.8301,2.8301,2.8301,2.8301,2.8301,2.8301,2.8301,2.8301,2.8301,2.8301,2.8379,2.8574,2.8906,2.9394,2.9873,3.0312,3.2498,3.4736,3.5343,3.6162,3.8372,3.9697,3.9697,0.3393,0.2459,0.2236,0.286,0.3838,0.3927,0.4061,0.4417,0.5354,0.5714,0.6027,0.6738,0.7095,0.7095,0.7095,0.7095,0.7095,0.7098,0.7098,0.7429,0.7911,0.7911,0.8147,0.8782,0.8771,0.9926,1.1478,1.2539,1.3072,1.372,1.4249,1.4364,1.4364,1.48,1.5778,1.5825,1.5825,1.5825,1.5825,1.5825,1.5791,1.5791,1.5825,1.5912,1.6066,1.6179,1.6442,1.6851,1.7065,1.7266,1.746,1.7542,1.7589,1.7589,1.7589,1.7589,1.7589,1.7622,1.7662,1.7802,1.7929,1.8122,1.8295,1.8684,1.9005,1.9165,1.9185,1.9225,1.9417,1.9417,1.9591,2.0422,2.1309,2.3375,2.4599,2.5206,2.6608,2.7565,2.8184,2.8301,2.8301,2.8301,2.8301,2.8301,2.8301,2.8301,2.8301,2.8301,2.8301,2.8301,2.8301,2.8301,2.8301,2.8301,2.8301,2.8301,2.8301,2.8301,2.8301,2.8301,2.8301,2.8301,2.8408,2.8662,2.9092,2.96,3.0068,3.0469,3.2447,3.4414,3.5013,3.6108,3.8425,3.9697,3.9697]}]]